[[{"header":{"parameterUnit":"m.s-1","parameterCategory":1,"la1":30.6,"la2":28.766,"lo1":-90.7593,"lo2":-88.6598,"dy":0.0162,"dx":0.0183,"nx":116,"ny":114,"refTime":"2023-07-10T12:00:00:Z","depth":0,"parameterNumber":2,"parameterNumberName":"U-component_of_WINDS"},"data":[0.0,0.0,0.0,0.0,0.0,0.0,0.0,0.0,0.0,0.0,0.0,0.0,0.0,0.0,0.0,0.0,0.0,0.0,0.0,0.0,0.0,0.0,0.0,0.0,0.0,0.0,0.0,0.0,0.0,0.0,0.0,0.0,0.0,0.0,0.0,0.0,0.0,0.0,0.0,0.0,0.0,0.0,0.0,0.0,0.0,0.0,0.0,0.0,0.0,0.0,0.0,0.0,0.0,0.0,0.0,0.0,0.0,0.0,0.0,0.0,0.0,0.0,0.0,0.0,0.0,0.0,0.0,0.0,0.0,0.0,0.0,0.0,0.0,0.0,0.0,0.0,0.0,0.0,0.0,0.0,0.0,0.0,0.0,0.0,0.0,0.0,0.0,0.0,0.0,0.0,0.0,0.0,0.0,0.0,0.0,0.0,0.0,0.0,0.0,0.0,0.0,0.0,0.0,0.0,0.0,0.0,0.0,0.0,0.0,0.0,0.0,0.0,0.0,0.0,0.0,0.0,0.0,0.0,0.0,0.0,0.0,0.0,0.0,0.0,0.0,0.0,0.0,0.0,0.0,0.0,0.0,0.0,0.0,0.0,0.0,0.0,0.0,0.0,0.0,0.0,0.0,0.0,0.0,0.0,0.0,0.0,0.0,0.0,0.0,0.0,0.0,0.0,0.0,0.0,0.0,0.0,0.0,0.0,0.0,0.0,0.0,0.0,0.0,0.0,0.0,0.0,0.0,0.0,0.0,0.0,0.0,0.0,0.0,0.0,0.0,0.0,0.0,0.0,0.0,0.0,0.0,0.0,0.0,0.0,0.0,0.0,0.0,0.0,0.0,0.0,0.0,0.0,0.0,0.0,0.0,0.0,0.0,0.0,0.0,0.0,0.0,0.0,0.0,0.0,0.0,0.0,0.0,0.0,0.0,0.0,0.0,0.0,0.0,0.0,0.0,0.0,0.0,0.0,0.0,0.0,0.0,0.0,0.0,0.0,0.0,0.0,0.0,0.0,0.0,0.0,0.0,0.0,0.0,0.0,0.0,0.0,0.0,0.0,0.0,0.0,0.0,0.0,0.0,0.0,0.0,0.0,0.0,0.0,0.0,0.0,0.0,0.0,0.0,0.0,0.0,0.0,0.0,0.0,0.0,0.0,0.0,0.0,0.0,0.0,0.0,0.0,0.0,0.0,0.0,0.0,0.0,0.0,0.0,0.0,0.0,0.0,0.0,0.0,0.0,0.0,0.0,0.0,0.0,0.0,0.0,0.0,0.0,0.0,0.0,0.0,0.0,0.0,0.0,0.0,0.0,0.0,0.0,0.0,0.0,0.0,0.0,0.0,0.0,0.0,0.0,0.0,0.0,0.0,0.0,0.0,0.0,0.0,0.0,0.0,0.0,0.0,0.0,0.0,0.0,0.0,0.0,0.0,0.0,0.0,0.0,0.0,0.0,0.0,0.0,0.0,0.0,0.0,0.0,0.0,0.0,0.0,0.0,0.0,0.0,0.0,0.0,0.0,0.0,0.0,0.0,0.0,0.0,0.0,0.0,0.0,0.0,0.0,0.0,0.0,0.0,0.0,0.0,0.0,0.0,0.0,0.0,0.0,0.0,0.0,0.0,0.0,0.0,0.0,0.0,0.0,0.0,0.0,0.0,0.0,0.0,0.0,0.0,0.0,0.0,0.0,0.0,0.0,0.0,0.0,0.0,0.0,0.0,0.0,0.0,0.0,0.0,0.0,0.0,0.0,0.0,0.0,0.0,0.0,0.0,0.0,0.0,0.0,0.0,0.0,0.0,0.0,0.0,0.0,0.0,0.0,0.0,0.0,0.0,0.0,0.0,0.0,0.0,0.0,0.0,0.0,0.0,0.0,0.0,0.0,0.0,0.0,0.0,0.0,0.0,0.0,0.0,0.0,0.0,0.0,0.0,0.0,0.0,0.0,0.0,0.0,0.0,0.0,0.0,0.0,0.0,0.0,0.0,0.0,0.0,0.0,0.0,0.0,0.0,0.0,0.0,0.0,0.0,0.0,0.0,0.0,0.0,0.0,0.0,0.0,0.0,0.0,0.0,0.0,0.0,0.0,0.0,0.0,0.0,0.0,0.0,0.0,0.0,0.0,0.0,0.0,0.0,0.0,0.0,0.0,0.0,0.0,0.0,0.0,0.0,0.0,0.0,0.0,0.0,0.0,0.0,0.0,0.0,0.0,0.0,0.0,0.0,0.0,0.0,0.0,0.0,0.0,0.0,0.0,0.0,0.0,0.0,0.0,0.0,0.0,0.0,0.0,0.0,0.0,0.0,0.0,0.0,0.0,0.0,0.0,0.0,0.0,0.0,0.0,0.0,0.0,0.0,0.0,0.0,0.0,0.0,0.0,0.0,0.0,0.0,0.0,0.0,0.0,0.0,0.0,0.0,0.0,0.0,0.0,0.0,0.0,0.0,0.0,0.0,0.0,0.0,0.0,0.0,0.0,0.0,0.0,0.0,0.0,0.0,0.0,0.0,0.0,0.0,0.0,0.0,0.0,0.0,0.0,0.0,0.0,0.0,0.0,0.0,0.0,0.0,0.0,0.0,0.0,0.0,0.0,0.0,0.0,0.0,0.0,0.0,0.0,0.0,0.0,0.0,0.0,0.0,0.0,0.0,0.0,0.0,0.0,0.0,0.0,0.0,0.0,0.0,0.0,0.0,0.0,0.0,0.0,0.0,0.0,0.0,0.0,0.0,0.0,0.0,0.0,0.0,0.0,0.0,0.0,0.0,0.0,0.0,0.0,0.0,0.0,0.0,0.0,0.0,0.0,0.0,0.0,0.0,0.0,0.0,0.0,0.0,0.0,0.0,0.0,0.0,0.0,0.0,0.0,0.0,0.0,0.0,0.0,0.0,0.0,0.0,0.0,0.0,0.0,0.0,0.0,0.0,0.0,0.0,0.0,0.0,0.0,0.0,0.0,0.0,0.0,0.0,0.0,0.0,0.0,0.0,0.0,0.0,0.0,0.0,0.0,0.0,0.0,0.0,0.0,0.0,0.0,0.0,0.0,0.0,0.0,0.0,0.0,0.0,0.0,0.0,0.0,0.0,0.0,0.0,0.0,0.0,0.0,0.0,0.0,0.0,0.0,0.0,0.0,0.0,0.0,0.0,0.0,0.0,0.0,0.0,0.0,0.0,0.0,0.0,0.0,0.0,0.0,0.0,0.0,0.0,0.0,0.0,0.0,0.0,0.0,0.0,0.0,0.0,0.0,0.0,0.0,0.0,0.0,0.0,0.0,0.0,0.0,0.0,0.0,0.0,0.0,0.0,0.0,0.0,0.0,0.0,0.0,0.0,0.0,0.0,0.0,0.0,0.0,0.0,0.0,0.0,0.0,0.0,0.0,0.0,0.0,0.0,0.0,0.0,0.0,0.0,0.0,0.0,0.0,0.0,0.0,0.0,0.0,0.0,0.0,0.0,0.0,0.0,0.0,0.0,0.0,0.0,0.0,0.0,0.0,0.0,0.0,0.0,0.0,0.0,0.0,0.0,0.0,0.0,0.0,0.0,0.0,0.0,0.0,0.0,0.0,0.0,0.0,0.0,0.0,0.0,0.0,0.0,0.0,0.0,0.0,0.0,0.0,0.0,0.0,0.0,0.0,0.0,0.0,0.0,0.0,0.0,0.0,0.0,0.0,0.0,0.0,0.0,0.0,0.0,0.0,0.0,0.0,0.0,0.0,0.0,0.0,0.0,0.0,0.0,0.0,0.0,0.0,0.0,0.0,0.0,0.0,0.0,0.0,0.0,0.0,0.0,0.0,0.0,0.0,0.0,0.0,0.0,0.0,0.0,0.0,0.0,0.0,0.0,0.0,0.0,0.0,0.0,0.0,0.0,0.0,0.0,0.0,0.0,0.0,0.0,0.0,0.0,0.0,0.0,0.0,0.0,0.0,0.0,0.0,0.0,0.0,0.0,0.0,0.0,0.0,0.0,0.0,0.0,0.0,0.0,0.0,0.0,0.0,0.0,0.0,0.0,0.0,0.0,0.0,0.0,0.0,0.0,0.0,0.0,0.0,0.0,0.0,0.0,0.0,0.0,0.0,0.0,0.0,0.0,0.0,0.0,0.0,0.0,0.0,0.0,0.0,0.0,0.0,0.0,0.0,0.0,0.0,0.0,0.0,0.0,0.0,0.0,0.0,0.0,0.0,0.0,0.0,0.0,0.0,0.0,0.0,0.0,0.0,0.0,0.0,0.0,0.0,0.0,0.0,0.0,0.0,0.0,0.0,0.0,0.0,0.0,0.0,0.0,0.0,0.0,0.0,0.0,0.0,0.0,0.0,0.0,0.0,0.0,0.0,0.0,0.0,0.0,0.0,0.0,0.0,0.0,0.0,0.0,0.0,0.0,0.0,0.0,0.0,0.0,0.0,0.0,0.0,0.0,0.0,0.0,0.0,0.0,0.0,0.0,0.0,0.0,0.0,0.0,0.0,0.0,0.0,0.0,0.0,0.0,0.0,0.0,0.0,0.0,0.0,0.0,0.0,0.0,0.0,0.0,0.0,0.0,0.0,0.0,0.0,0.0,0.0,0.0,0.0,0.0,0.0,0.0,0.0,0.0,0.0,0.0,0.0,0.0,0.0,0.0,0.0,0.0,0.0,0.0,0.0,0.0,0.0,0.0,0.0,0.0,0.0,0.0,0.0,0.0,0.0,0.0,0.0,0.0,0.0,0.0,0.0,0.0,0.0,0.0,0.0,0.0,0.0,0.0,0.0,0.0,0.0,0.0,0.0,0.0,0.0,0.0,0.0,0.0,0.0,0.0,0.0,0.0,0.0,0.0,0.0,0.0,0.0,0.0,0.0,0.0,0.0,0.0,0.0,0.0,0.0,0.0,0.0,0.0,0.0,0.0,0.0,0.0,0.0,0.0,0.0,0.0,0.0,0.0,0.0,0.0,0.0,0.0,0.0,0.0,0.0,0.0,0.0,0.0,0.0,0.0,0.0,0.0,0.0,0.0,0.0,0.0,0.0,0.0,0.0,0.0,0.0,0.0,0.0,0.0,0.0,0.0,0.0,0.0,0.0,0.0,0.0,0.0,0.0,0.0,0.0,0.0,0.0,0.0,0.0,0.0,0.0,0.0,0.0,0.0,0.0,0.0,0.0,0.0,0.0,0.0,0.0,0.0,0.0,0.0,0.0,0.0,0.0,0.0,0.0,0.0,0.0,0.0,0.0,0.0,0.0,0.0,0.0,0.0,0.0,0.0,0.0,0.0,0.0,0.0,0.0,0.0,0.0,0.0,0.0,0.0,0.0,0.0,0.0,0.0,0.0,0.0,0.0,0.0,0.0,0.0,0.0,0.0,0.0,0.0,0.0,0.0,0.0,0.0,0.0,0.0,0.0,0.0,0.0,0.0,0.0,0.0,0.0,0.0,0.0,0.0,0.0,0.0,0.0,0.0,0.0,0.0,0.0,0.0,0.0,0.0,0.0,0.0,0.0,0.0,0.0,0.0,0.0,0.0,0.0,0.0,0.0,0.0,0.0,0.0,0.0,0.0,0.0,0.0,0.0,0.0,0.0,0.0,0.0,0.0,0.0,0.0,0.0,0.0,0.0,0.0,0.0,0.0,0.0,0.0,0.0,0.0,0.0,0.0,0.0,0.0,0.0,0.0,0.0,0.0,0.0,0.0,0.0,0.0,0.0,0.0,0.0,0.0,0.0,0.0,0.0,0.0,0.0,0.0,0.0,0.0,0.0,0.0,0.0,0.0,0.0,0.0,0.0,0.0,0.0,0.0,0.0,0.0,0.0,0.0,0.0,0.0,0.0,0.0,0.0,0.0,0.0,0.0,0.0,0.0,0.0,0.0,0.0,0.0,0.0,0.0,0.0,0.0,0.0,0.0,0.0,0.0,0.0,0.0,0.0,0.0,0.0,0.0,0.0,0.0,0.0,0.0,0.0,0.0,0.0,0.0,0.0,0.0,0.0,0.0,0.0,0.0,0.0,0.0,0.0,0.0,0.0,0.0,0.0,0.0,0.0,0.0,0.0,0.0,0.0,0.0,0.0,0.0,0.0,0.0,0.0,0.0,0.0,0.0,0.0,0.0,0.0,0.0,0.0,0.0,0.0,0.0,0.0,-3.2726,0.0,0.0,0.0,0.0,0.0,0.0,0.0,0.0,0.0,0.0,0.0,0.0,0.0,0.0,0.0,0.0,0.0,0.0,0.0,0.0,0.0,0.0,0.0,0.0,0.0,0.0,0.0,0.0,0.0,0.0,0.0,0.0,0.0,0.0,0.0,0.0,0.0,0.0,0.0,0.0,0.0,0.0,0.0,0.0,0.0,0.0,0.0,0.0,0.0,0.0,0.0,0.0,0.0,0.0,0.0,0.0,0.0,0.0,0.0,0.0,0.0,0.0,0.0,0.0,0.0,0.0,0.0,0.0,0.0,0.0,0.0,0.0,0.0,0.0,0.0,0.0,0.0,0.0,0.0,0.0,0.0,0.0,0.0,0.0,0.0,0.0,0.0,0.0,0.0,0.0,0.0,0.0,0.0,0.0,0.0,0.0,0.0,0.0,0.0,0.0,0.0,0.0,0.0,0.0,0.0,0.0,0.0,0.0,0.0,0.0,0.0,0.0,0.0,0.0,0.0,0.0,-3.388,0.0,0.0,0.0,0.0,0.0,0.0,0.0,0.0,0.0,0.0,0.0,0.0,0.0,0.0,0.0,0.0,0.0,0.0,0.0,0.0,0.0,0.0,0.0,0.0,0.0,0.0,0.0,0.0,0.0,0.0,0.0,0.0,0.0,0.0,0.0,0.0,0.0,0.0,0.0,0.0,0.0,0.0,0.0,0.0,0.0,0.0,0.0,0.0,0.0,0.0,0.0,0.0,0.0,0.0,0.0,0.0,0.0,0.0,0.0,0.0,0.0,0.0,0.0,0.0,0.0,0.0,0.0,0.0,0.0,0.0,0.0,0.0,0.0,0.0,0.0,0.0,0.0,0.0,0.0,0.0,0.0,0.0,0.0,0.0,0.0,0.0,0.0,0.0,0.0,0.0,0.0,0.0,0.0,0.0,0.0,0.0,0.0,0.0,0.0,0.0,0.0,0.0,0.0,0.0,0.0,0.0,0.0,0.0,-4.3539,-4.3891,-4.3639,-4.3504,-4.32,-4.2591,-3.9884,-3.7753,-3.614,0.0,0.0,0.0,0.0,0.0,0.0,0.0,0.0,0.0,0.0,0.0,0.0,0.0,0.0,0.0,0.0,0.0,0.0,0.0,0.0,0.0,0.0,0.0,0.0,0.0,0.0,0.0,0.0,0.0,0.0,0.0,0.0,0.0,0.0,0.0,0.0,0.0,0.0,0.0,-4.355,-4.4966,-4.5829,-4.594,0.0,0.0,0.0,0.0,0.0,0.0,0.0,0.0,0.0,0.0,0.0,0.0,0.0,0.0,0.0,0.0,0.0,0.0,0.0,0.0,0.0,0.0,0.0,0.0,0.0,0.0,0.0,0.0,0.0,0.0,0.0,0.0,0.0,0.0,0.0,0.0,0.0,0.0,0.0,0.0,0.0,0.0,0.0,0.0,-3.3472,-3.4315,0.0,0.0,0.0,0.0,0.0,0.0,0.0,0.0,0.0,0.0,0.0,0.0,0.0,0.0,-4.4788,-4.6128,-4.6883,-4.7056,-4.9086,-4.9695,-4.9052,-4.8409,-4.8409,-4.8815,-4.7158,0.0,-3.8497,-3.7753,0.0,0.0,0.0,0.0,0.0,0.0,0.0,0.0,0.0,0.0,0.0,0.0,0.0,0.0,0.0,0.0,0.0,0.0,0.0,0.0,0.0,0.0,0.0,0.0,0.0,0.0,0.0,0.0,0.0,0.0,0.0,0.0,0.0,0.0,0.0,0.0,-4.253,-4.5398,-4.8315,-4.8976,-4.9705,-5.0337,-4.6492,-4.3875,-4.2277,-3.9894,0.0,0.0,0.0,0.0,0.0,0.0,0.0,0.0,0.0,0.0,0.0,0.0,0.0,0.0,0.0,0.0,0.0,0.0,0.0,0.0,0.0,0.0,0.0,0.0,0.0,0.0,0.0,0.0,0.0,0.0,0.0,0.0,0.0,0.0,0.0,0.0,0.0,0.0,0.0,-3.4907,-3.5684,-3.5238,-3.6202,-3.6127,0.0,0.0,0.0,0.0,0.0,0.0,0.0,0.0,0.0,-4.2698,-4.4886,-4.6781,-4.8199,-4.9627,-5.0811,-5.1691,-5.3078,-5.3585,-5.3247,-5.2909,-5.2503,-5.1961,-5.0845,-4.8173,-4.4418,-4.2016,-3.9648,-3.7381,0.0,0.0,0.0,0.0,-3.4677,-3.451,0.0,0.0,0.0,0.0,0.0,0.0,0.0,0.0,0.0,0.0,0.0,0.0,0.0,0.0,0.0,0.0,0.0,0.0,0.0,0.0,0.0,0.0,0.0,0.0,0.0,0.0,0.0,0.0,-4.6424,-4.948,-5.2771,-5.3126,-5.3831,-5.476,-5.3274,-5.0116,-4.5732,-4.3219,-4.0622,0.0,0.0,0.0,0.0,0.0,0.0,0.0,0.0,0.0,0.0,0.0,0.0,0.0,0.0,0.0,0.0,0.0,0.0,0.0,0.0,0.0,0.0,0.0,0.0,0.0,0.0,0.0,0.0,0.0,0.0,0.0,0.0,0.0,0.0,0.0,0.0,0.0,0.0,-3.6655,-3.7631,-3.6367,-3.8604,-3.8955,0.0,0.0,0.0,0.0,0.0,0.0,-4.1316,-4.4217,-4.623,-4.7153,-4.9661,-5.1454,-5.2367,-5.3281,-5.4397,-5.5716,-5.6089,-5.6156,-5.5987,-5.5818,-5.5006,-5.3754,-5.2942,-5.1555,-4.956,-4.5805,-4.276,-4.0257,-3.8792,-3.7719,-3.7087,-3.7483,-3.7175,-3.6663,0.0,0.0,0.0,0.0,0.0,0.0,0.0,0.0,0.0,0.0,0.0,0.0,0.0,0.0,0.0,0.0,0.0,0.0,0.0,0.0,0.0,0.0,0.0,0.0,0.0,0.0,0.0,-4.5258,-4.9288,-5.292,-5.6178,-5.7661,-5.9218,-6.0741,-5.9812,-5.6283,-5.0711,-4.5918,-4.3355,-4.2166,0.0,0.0,0.0,0.0,0.0,0.0,0.0,0.0,0.0,0.0,0.0,0.0,0.0,0.0,0.0,0.0,0.0,0.0,0.0,0.0,0.0,0.0,0.0,0.0,0.0,0.0,0.0,0.0,0.0,0.0,0.0,0.0,0.0,0.0,0.0,0.0,0.0,0.0,0.0,-3.7756,-4.1487,0.0,0.0,0.0,0.0,-4.1454,-4.3216,-4.5292,-4.7534,-5.0399,-5.2603,-5.4025,-5.5615,-5.7103,-5.8558,-5.7915,-5.8017,-5.8795,-5.8118,-5.7408,-5.6731,-5.6021,-5.5277,-5.4499,-5.3754,-5.2942,-5.186,-4.8139,-4.5703,-4.4175,-4.2625,-4.1576,-4.0865,-4.0164,-3.9817,-3.9556,0.0,0.0,0.0,0.0,0.0,0.0,0.0,0.0,0.0,0.0,0.0,0.0,0.0,0.0,0.0,0.0,0.0,0.0,0.0,0.0,0.0,0.0,0.0,0.0,0.0,0.0,0.0,0.0,-5.3386,-5.6286,-5.9483,-6.0035,-6.063,-6.1187,-6.089,-5.9292,-5.6543,-5.1584,-4.7519,-4.4135,-4.103,-3.8187,0.0,0.0,0.0,0.0,0.0,0.0,0.0,0.0,0.0,0.0,0.0,0.0,0.0,0.0,0.0,0.0,0.0,0.0,0.0,0.0,0.0,0.0,0.0,0.0,0.0,0.0,0.0,0.0,0.0,0.0,0.0,0.0,0.0,0.0,0.0,0.0,0.0,-4.3966,-4.6823,0.0,0.0,-4.5527,-4.6212,-4.6527,-4.8425,-5.0367,-5.2162,-5.4601,-5.6393,-5.7408,-5.8389,-5.9167,-5.9708,-5.8998,-5.8761,-5.8998,-5.8254,-5.7509,-5.6799,-5.6528,-5.575,-5.4566,-5.4329,-5.3484,-5.2198,-5.0879,-4.8917,-4.6616,-4.5602,-4.4451,-4.3335,-4.2955,-4.2717,-4.2478,0.0,0.0,0.0,0.0,0.0,0.0,0.0,0.0,0.0,0.0,0.0,0.0,0.0,0.0,0.0,0.0,0.0,0.0,0.0,0.0,0.0,0.0,0.0,0.0,0.0,0.0,0.0,0.0,0.0,0.0,0.0,-6.1596,-6.1744,-6.2004,-6.2004,-6.1558,-6.0497,-5.6928,-5.2308,-4.7107,-4.3998,-4.1141,-3.8423,0.0,0.0,0.0,0.0,0.0,0.0,0.0,0.0,0.0,0.0,0.0,0.0,0.0,0.0,0.0,0.0,0.0,0.0,0.0,0.0,0.0,0.0,0.0,0.0,0.0,0.0,0.0,0.0,0.0,0.0,0.0,0.0,0.0,0.0,0.0,-4.7155,-4.8672,-5.1679,-5.2719,-5.0356,-5.1312,-5.2043,-5.1947,-5.4025,-5.5784,-5.6799,-5.8727,-5.9911,-6.0148,-6.0858,-6.1129,-6.0892,-6.0148,-5.9641,-5.937,-5.8626,-5.7611,-5.6427,-5.6427,-5.5615,-5.4228,-5.4228,-5.3653,-5.2706,-5.2706,-5.1386,-4.9289,-4.8308,-4.6989,-4.5703,-4.5554,-4.524,-4.4758,0.0,0.0,0.0,0.0,0.0,0.0,0.0,0.0,0.0,0.0,0.0,0.0,0.0,0.0,0.0,0.0,0.0,0.0,0.0,0.0,0.0,0.0,0.0,0.0,0.0,0.0,0.0,0.0,0.0,0.0,0.0,0.0,0.0,0.0,0.0,-6.3193,-6.2376,-6.1596,-5.7546,-5.1342,-4.7181,-4.4422,-4.2468,0.0,0.0,0.0,0.0,0.0,0.0,0.0,0.0,0.0,0.0,0.0,0.0,0.0,0.0,0.0,0.0,0.0,0.0,0.0,0.0,0.0,0.0,0.0,0.0,0.0,0.0,0.0,0.0,0.0,0.0,0.0,0.0,0.0,-4.2338,-4.7513,-5.1316,-5.1578,-5.5881,-5.75,-5.4143,-5.7261,-5.8955,-5.7634,-5.9963,-6.1434,-6.14,-6.2787,-6.3193,-6.2448,-6.3125,-6.3159,-6.2381,-6.167,-6.0892,-6.008,-5.937,-5.7881,-5.5715,-5.5681,-5.4938,-5.3551,-5.3518,-5.3518,-5.3518,-5.3518,-5.3044,-5.2164,-5.071,-4.9255,-4.7973,-4.7939,-4.7342,-4.6286,0.0,0.0,0.0,0.0,0.0,0.0,0.0,0.0,0.0,0.0,0.0,0.0,0.0,0.0,0.0,0.0,0.0,0.0,0.0,0.0,0.0,0.0,0.0,0.0,0.0,0.0,0.0,0.0,0.0,0.0,0.0,0.0,0.0,0.0,0.0,0.0,0.0,0.0,0.0,0.0,-5.2717,0.0,-4.5143,0.0,0.0,0.0,0.0,0.0,0.0,0.0,0.0,0.0,0.0,0.0,0.0,0.0,0.0,0.0,0.0,0.0,0.0,0.0,0.0,0.0,0.0,0.0,0.0,0.0,0.0,0.0,0.0,0.0,0.0,0.0,0.0,-4.7679,-4.8556,-5.1399,-5.4785,-5.846,-6.0421,-6.1483,-6.1544,-6.2774,-6.3281,-6.2639,-6.374,-6.4241,-6.3734,-6.4072,-6.3971,-6.3226,-6.3396,-6.3159,-6.2381,-6.167,-6.0892,-6.008,-5.937,-5.8118,-5.6494,-5.5953,-5.5209,-5.4262,-5.3721,-5.3518,-5.3518,-5.3518,-5.3044,-5.2266,-5.186,-5.0777,-4.9492,-4.9369,-4.8341,-4.676,0.0,0.0,0.0,0.0,0.0,0.0,0.0,0.0,0.0,0.0,0.0,0.0,0.0,0.0,0.0,0.0,0.0,0.0,0.0,0.0,0.0,0.0,0.0,0.0,0.0,0.0,0.0,0.0,0.0,0.0,0.0,0.0,0.0,0.0,0.0,0.0,0.0,0.0,0.0,0.0,0.0,0.0,-4.9654,-4.6162,-4.4029,-4.2526,-4.0345,-3.9761,-3.9798,-3.7847,0.0,0.0,0.0,0.0,0.0,0.0,0.0,0.0,0.0,0.0,0.0,0.0,0.0,0.0,0.0,0.0,0.0,0.0,0.0,0.0,0.0,0.0,0.0,0.0,-4.8953,-5.2567,-5.4632,-5.6257,-5.8565,-6.2132,-6.3549,-6.4611,-6.5522,-6.6432,-6.6759,-6.6289,-6.6498,-6.6305,-6.5561,-6.5527,-6.4918,-6.3565,-6.3802,-6.3463,-6.2415,-6.167,-6.0892,-6.008,-5.937,-5.8084,-5.6325,-5.5919,-5.5141,0.0,-5.3687,-5.3518,-5.3518,-5.3518,-5.3213,0.0,0.0,0.0,0.0,0.0,-4.8448,-4.7126,0.0,0.0,0.0,0.0,0.0,0.0,0.0,0.0,0.0,0.0,0.0,0.0,0.0,0.0,0.0,0.0,0.0,0.0,0.0,0.0,0.0,0.0,0.0,0.0,0.0,0.0,0.0,0.0,0.0,0.0,0.0,0.0,0.0,0.0,0.0,0.0,0.0,0.0,0.0,0.0,0.0,0.0,-5.4679,-5.0006,-4.7579,-4.6259,-4.3358,-4.157,-4.0454,-3.9384,0.0,0.0,0.0,0.0,0.0,0.0,0.0,0.0,0.0,0.0,0.0,0.0,0.0,0.0,0.0,0.0,0.0,0.0,0.0,0.0,0.0,0.0,0.0,0.0,-5.2922,-5.6393,-6.0082,-6.1151,-6.2117,-6.3632,-6.5551,-6.6883,-6.7242,-6.8576,-6.9246,-6.869,-6.8243,-6.7658,-6.6846,0.0,0.0,0.0,0.0,-6.3802,-6.2415,-6.167,-6.0892,-6.008,-5.937,-5.7949,-5.5953,-5.5784,-5.5006,-5.3754,-5.3585,-5.3518,-5.3518,-5.3518,-5.3518,-5.3416,-5.2536,-5.1386,-5.0103,-4.8944,-4.8113,-4.745,0.0,0.0,0.0,0.0,0.0,0.0,0.0,0.0,0.0,0.0,0.0,0.0,0.0,0.0,0.0,0.0,0.0,0.0,0.0,0.0,0.0,0.0,0.0,0.0,0.0,0.0,0.0,0.0,0.0,0.0,0.0,0.0,0.0,0.0,0.0,0.0,0.0,0.0,0.0,0.0,0.0,0.0,-5.6634,-5.2995,-5.0693,-4.9023,-4.649,-4.5843,-4.5813,-4.3723,-4.2846,-4.2574,-4.197,0.0,0.0,0.0,0.0,0.0,0.0,0.0,0.0,0.0,0.0,0.0,0.0,0.0,0.0,0.0,0.0,0.0,0.0,0.0,0.0,-5.2127,-5.6157,-5.9804,-6.2565,-6.3048,-6.3629,-6.4992,-6.617,-6.7467,-6.8785,-6.9331,-6.945,-6.9049,-6.8919,-6.8267,-6.688,-6.6237,0.0,-6.441,-6.3971,-6.3294,-6.2415,-6.167,-6.0892,-6.008,0.0,0.0,-5.7442,-5.6258,-5.5512,-5.5209,-5.4025,-5.3518,-5.3518,-5.3518,-5.3518,-5.3382,-5.1961,-5.1251,-5.0813,-4.9306,-4.8543,-4.8182,0.0,0.0,0.0,0.0,0.0,0.0,0.0,0.0,0.0,0.0,0.0,0.0,0.0,0.0,0.0,0.0,0.0,0.0,0.0,0.0,0.0,0.0,0.0,0.0,0.0,0.0,0.0,0.0,0.0,0.0,0.0,0.0,0.0,0.0,0.0,0.0,0.0,0.0,0.0,0.0,0.0,0.0,-5.9032,-5.6172,-5.3497,-5.1065,-4.901,-4.7719,-4.6798,-4.5162,-4.435,-4.4007,-4.3687,-4.1934,-3.9645,0.0,0.0,0.0,0.0,0.0,0.0,0.0,0.0,0.0,0.0,0.0,0.0,0.0,0.0,-4.3291,0.0,0.0,-5.3423,-5.6608,-6.0354,-6.3353,-6.4565,-6.5393,-6.5803,-6.5688,-6.6493,-6.7581,-6.9013,-6.9449,-6.9731,-6.9804,-6.8996,-6.7996,-6.688,-6.6102,-6.5189,-6.4106,-6.37,-6.3159,-6.2381,-6.1264,-6.0486,-6.008,-5.8964,-5.8051,-5.7306,-5.6224,-5.5513,-5.5108,-5.3991,-5.3518,-5.3518,-5.3518,-5.3518,-5.3382,-5.2232,-5.1758,-5.1557,-4.9814,-4.9149,-4.892,0.0,0.0,0.0,0.0,0.0,0.0,0.0,0.0,0.0,0.0,0.0,0.0,0.0,0.0,0.0,0.0,0.0,0.0,0.0,0.0,0.0,0.0,0.0,0.0,0.0,0.0,0.0,0.0,0.0,0.0,0.0,0.0,0.0,0.0,0.0,0.0,0.0,0.0,0.0,0.0,0.0,0.0,-6.0964,-5.8624,-5.5689,-5.2604,-5.07,-4.8368,-4.6057,-4.5685,-4.4788,-4.3966,-4.4554,-4.3956,-4.2447,-3.9477,-3.8748,0.0,0.0,0.0,0.0,0.0,0.0,0.0,0.0,0.0,-4.0945,-4.3242,-4.5499,-4.7928,-5.0737,-5.4188,-5.7604,-6.0581,-6.3618,-6.5704,-6.5876,-6.6773,-6.698,-6.5807,-6.6462,-6.7522,-6.8795,-6.9233,-6.9638,-7.0036,-6.8701,-6.7523,-6.6643,-6.5899,-6.4884,-6.3565,-6.3362,-6.299,-6.2381,-6.0858,-6.0114,-6.008,-5.8592,-5.7509,-5.6765,-5.6055,-5.531,-5.4566,-5.3822,-5.3518,-5.3518,-5.3518,-5.3518,-5.345,-5.2807,-5.2435,-5.2098,-5.032,-4.9586,-4.9255,0.0,0.0,0.0,0.0,0.0,0.0,0.0,0.0,0.0,0.0,0.0,0.0,0.0,0.0,0.0,0.0,0.0,0.0,0.0,0.0,0.0,0.0,0.0,0.0,0.0,0.0,0.0,0.0,0.0,0.0,0.0,0.0,0.0,0.0,0.0,0.0,0.0,0.0,0.0,0.0,0.0,0.0,-6.1001,-5.9255,-5.6543,-5.3366,-5.1028,-4.7977,-4.5276,-4.6742,-4.5623,-4.4036,-4.6328,-4.5526,-4.3266,-4.0815,0.0,-3.754,-3.5659,-3.5731,-3.6788,-3.8698,-3.9319,-4.0765,0.0,0.0,-4.7953,-5.0568,-5.3073,-5.4873,-5.5247,-5.8697,-6.1553,-6.1927,-6.3589,-6.5083,-6.5773,-6.5428,-6.5014,-6.4841,-6.6117,-6.7522,-6.8795,-6.8795,-6.8656,-6.8583,-6.8124,-6.7286,-6.5899,-6.5121,-6.4343,-6.3531,-6.2854,-6.2482,-6.2381,-6.0858,-6.0114,-6.008,-5.8592,-5.7509,-5.6765,-5.6055,-5.531,-5.4566,-5.3822,-5.3518,-5.3518,-5.3518,-5.3518,-5.3484,-5.3416,-5.2942,-5.2131,-5.061,-4.9441,-4.8584,0.0,0.0,0.0,0.0,0.0,0.0,0.0,0.0,0.0,0.0,0.0,0.0,0.0,0.0,0.0,0.0,0.0,0.0,0.0,0.0,0.0,0.0,0.0,0.0,0.0,0.0,0.0,0.0,0.0,0.0,0.0,0.0,0.0,0.0,0.0,0.0,0.0,0.0,0.0,0.0,0.0,0.0,-6.0184,-5.7546,-5.4143,-5.049,-4.8789,-4.6269,0.0,0.0,-4.3038,-4.2739,-4.4261,-4.3746,-4.2179,-4.0176,-3.9446,0.0,-3.8838,-3.9168,0.0,0.0,-4.4044,-4.6411,-4.914,-5.0731,-5.2279,-5.4568,-5.6501,-5.8061,-5.9089,-6.1493,-6.3498,0.0,-6.5551,-6.6635,-6.6531,-6.5462,-6.4393,-6.3531,-6.3186,-6.4077,-6.6666,-6.6742,-6.6752,-6.7114,-6.6818,-6.6008,-6.468,-6.422,-6.3632,-6.2888,-6.255,-6.2381,-6.2381,-6.1332,-6.0554,-6.008,-5.9032,-5.7915,-5.6765,-5.6055,-5.5074,-5.3923,-5.3619,-5.3518,-5.3518,-5.3518,-5.3518,-5.3518,-5.3518,-5.301,-5.2164,-5.1053,-4.9983,-4.9086,0.0,0.0,0.0,0.0,0.0,0.0,0.0,0.0,0.0,0.0,0.0,0.0,0.0,0.0,0.0,0.0,0.0,0.0,0.0,0.0,0.0,0.0,0.0,0.0,0.0,0.0,0.0,0.0,0.0,0.0,0.0,0.0,0.0,0.0,0.0,0.0,0.0,0.0,0.0,0.0,0.0,0.0,-5.8884,-5.5614,-5.1658,-4.7758,-4.636,-4.3889,0.0,0.0,-4.0176,-4.0348,-4.1495,-4.1429,-4.074,-3.9454,-3.946,-4.0035,-4.0539,0.0,0.0,-4.5113,-4.8424,-5.1468,-5.2454,-5.4181,-5.6031,-5.7698,-5.8911,-6.0062,-6.1132,-6.2552,0.0,-6.5049,-6.6174,-6.6738,-6.6393,-6.4841,-6.3117,-6.1427,-6.0082,-6.0253,-6.2861,-6.3875,-6.4713,-6.571,-6.5379,-6.4776,-6.3849,-6.3617,-6.3159,-6.2415,-6.2381,-6.2381,-6.2381,-6.1434,-6.0689,-6.008,-5.9167,-5.8051,-5.6765,-5.5852,-5.4702,-5.3518,-5.3518,-5.3518,-5.3518,-5.3518,-5.3518,-5.3518,-5.3518,-5.301,-5.2198,-5.1358,-5.0453,-4.9554,0.0,0.0,0.0,0.0,0.0,0.0,0.0,0.0,0.0,0.0,0.0,0.0,0.0,0.0,0.0,0.0,0.0,0.0,0.0,0.0,0.0,0.0,0.0,0.0,0.0,0.0,0.0,0.0,0.0,0.0,0.0,0.0,0.0,0.0,0.0,0.0,0.0,0.0,0.0,0.0,0.0,0.0,-5.7212,-5.3905,-5.01,-4.6248,-4.4415,0.0,0.0,0.0,-3.7809,-3.6656,-3.8818,-3.9455,0.0,-3.914,-3.9003,0.0,0.0,0.0,-4.5845,-4.8086,-5.1563,-5.4879,-5.6951,-5.8425,-5.965,-6.0435,-6.1071,-6.1374,-6.0808,-6.1542,-6.2719,-6.4195,-6.4036,-6.3979,-6.4669,-6.2841,-6.0565,-5.8323,-5.7357,-5.6943,0.0,-6.0181,-6.2819,-6.4328,-6.4118,-6.3849,-6.3815,-6.3617,-6.3159,-6.2415,-6.2381,-6.2381,-6.2381,-6.0892,-6.0114,-6.008,-5.8626,-5.7543,-5.6765,-5.5277,-5.4228,-5.3518,-5.3518,-5.3518,-5.3518,-5.3518,-5.3518,-5.3518,-5.3518,-5.301,-5.2198,-5.1455,-5.0649,-4.9848,0.0,0.0,0.0,0.0,0.0,0.0,0.0,0.0,0.0,0.0,0.0,0.0,0.0,0.0,0.0,0.0,0.0,0.0,0.0,0.0,0.0,0.0,0.0,0.0,0.0,0.0,0.0,0.0,0.0,0.0,0.0,0.0,0.0,0.0,0.0,0.0,0.0,0.0,0.0,0.0,0.0,0.0,-5.5298,-5.0359,-4.567,-4.1452,0.0,0.0,0.0,0.0,-3.4623,-3.4711,-3.5922,0.0,0.0,-3.7137,-3.8703,-4.0665,-4.2871,0.0,-5.0085,-5.3908,-5.6564,-5.8806,-6.0901,-6.1268,-6.0916,-6.0128,-5.8823,-5.7492,-5.6576,-5.7055,-5.8153,-5.9804,-6.2081,-6.3496,-6.3255,-6.2979,-6.122,-5.6909,-5.6633,0.0,0.0,0.0,0.0,-6.1457,-6.1562,-6.1813,-6.2442,-6.2678,-6.2651,-6.2381,-6.2381,-6.2381,-6.2381,-6.14,-6.0622,-6.008,-5.7611,-5.6325,-5.6021,-5.4532,-5.3721,-5.3518,-5.3518,-5.3518,-5.3518,-5.3518,-5.3518,-5.3518,-5.3518,-5.301,-5.2266,-5.2029,-5.1117,-4.9938,0.0,0.0,0.0,0.0,0.0,0.0,0.0,0.0,0.0,0.0,0.0,0.0,0.0,0.0,0.0,0.0,0.0,0.0,0.0,0.0,0.0,0.0,0.0,0.0,0.0,0.0,0.0,0.0,0.0,0.0,0.0,0.0,0.0,0.0,0.0,0.0,0.0,0.0,0.0,0.0,0.0,0.0,-5.0417,-4.5847,-4.1871,0.0,0.0,0.0,0.0,0.0,0.0,0.0,-3.4004,-3.4964,-3.5943,-3.7324,-3.9997,-4.3182,-4.6224,-5.0223,-5.4425,-5.8185,-6.0461,-6.2081,-6.3176,-6.227,-6.0615,-5.8597,-5.6167,-5.4054,-5.2901,-5.2798,-5.3653,-5.591,-5.8357,-6.0151,-6.0771,-6.0806,-5.9564,-5.6426,-5.6012,0.0,0.0,0.0,0.0,-5.9219,-5.9826,-6.0492,-6.1357,-6.18,-6.211,-6.2381,-6.2381,-6.2381,-6.2381,-6.1366,-6.0351,-5.9268,-5.7137,-5.5987,-5.5647,-5.4465,-5.3754,-5.3518,-5.3518,-5.3518,-5.3518,-5.3518,-5.3518,-5.3518,-5.3518,-5.3179,-5.2672,-5.2131,-5.1319,-5.034,0.0,0.0,0.0,0.0,0.0,0.0,0.0,0.0,0.0,0.0,0.0,0.0,0.0,0.0,0.0,0.0,0.0,0.0,0.0,0.0,0.0,0.0,0.0,0.0,0.0,0.0,0.0,0.0,0.0,0.0,0.0,0.0,0.0,0.0,0.0,0.0,0.0,0.0,0.0,0.0,0.0,0.0,-4.3269,-4.0804,0.0,0.0,0.0,0.0,0.0,0.0,0.0,0.0,0.0,0.0,-3.8256,-3.9789,-4.2817,-4.6362,-4.9493,-5.4149,-5.8668,-6.0978,-6.3082,-6.4427,-6.3669,-6.1525,-5.884,-5.5912,-5.3178,-5.0933,0.0,0.0,-4.9457,-5.2636,-5.346,-5.4701,-5.7598,-5.6909,-5.6288,0.0,0.0,0.0,0.0,0.0,0.0,-5.7736,0.0,-5.9855,-6.064,-6.1155,-6.167,-6.2381,-6.2381,-6.2381,-6.2347,-6.0791,-5.9302,-5.7881,-5.7103,-5.6393,-5.5683,-5.4905,-5.416,-5.3518,-5.3518,-5.3518,-5.3518,-5.3518,-5.3518,-5.3518,-5.3518,-5.345,-5.3213,-5.1758,-5.1151,-5.095,0.0,0.0,0.0,0.0,0.0,0.0,0.0,0.0,0.0,0.0,0.0,0.0,0.0,0.0,0.0,0.0,0.0,0.0,0.0,0.0,0.0,0.0,0.0,0.0,0.0,0.0,0.0,0.0,0.0,0.0,0.0,0.0,0.0,0.0,0.0,0.0,0.0,0.0,0.0,0.0,0.0,0.0,-4.2077,0.0,0.0,0.0,0.0,0.0,0.0,0.0,0.0,0.0,0.0,-3.9703,-4.0793,-4.3957,-4.7148,-5.0459,-5.408,-5.8116,-6.1875,-6.4152,-6.4289,-6.3531,-6.2186,-5.9116,-5.5577,-5.2153,-4.8501,-4.5404,0.0,0.0,0.0,-4.9568,-5.4253,0.0,-5.9426,-6.122,0.0,0.0,0.0,-5.8909,-5.7219,-5.7529,0.0,0.0,-5.8392,-5.9308,-6.0606,-6.1596,-6.2212,-6.2381,-6.2381,-6.2144,-6.1603,-6.0047,-5.8829,-5.7881,-5.6596,-5.5886,-5.5683,-5.4363,-5.3687,-5.3518,-5.3518,-5.3518,-5.3518,-5.3518,-5.3518,-5.3518,-5.3518,-5.2807,-5.1758,-5.132,-5.0507,-4.9494,0.0,0.0,0.0,0.0,0.0,0.0,0.0,0.0,0.0,0.0,0.0,0.0,0.0,0.0,0.0,0.0,0.0,0.0,0.0,0.0,0.0,0.0,0.0,0.0,0.0,0.0,0.0,0.0,0.0,0.0,0.0,0.0,0.0,0.0,0.0,0.0,0.0,0.0,0.0,0.0,0.0,0.0,0.0,0.0,0.0,0.0,0.0,0.0,0.0,0.0,0.0,-3.9199,-4.1811,-4.3692,-4.5589,-4.8694,0.0,-5.477,-5.7909,-6.1323,-6.4289,-6.5566,-6.4496,-6.2427,-5.9909,-5.5776,-5.1313,-4.7293,-4.4122,0.0,0.0,0.0,0.0,0.0,0.0,0.0,-5.784,-6.022,-6.1289,0.0,-6.0771,0.0,-5.9047,-5.9288,-5.9219,0.0,-5.87,-5.9308,-6.0162,-6.1325,-6.2076,-6.2381,-6.2381,-6.1873,-6.0791,-5.9607,-5.8626,-5.7881,-5.6393,-5.5681,-5.5683,-5.4194,-5.3518,-5.3518,0.0,-5.3518,-5.3518,-5.3518,-5.3518,-5.345,-5.3112,-5.2435,-5.1623,-5.098,-5.0202,-4.9424,0.0,0.0,0.0,0.0,0.0,0.0,0.0,0.0,0.0,0.0,0.0,0.0,0.0,0.0,0.0,0.0,0.0,0.0,0.0,0.0,0.0,0.0,0.0,0.0,0.0,0.0,0.0,0.0,0.0,0.0,0.0,0.0,0.0,0.0,0.0,0.0,0.0,0.0,0.0,0.0,0.0,0.0,0.0,0.0,0.0,0.0,0.0,0.0,0.0,0.0,-4.0203,-4.2193,-4.4568,-4.7699,-5.102,-5.3318,-5.6012,-5.8737,-6.1116,-6.3841,-6.5979,-6.5773,-6.3945,-6.1116,-5.7116,-5.1985,-4.6832,-4.2433,0.0,0.0,-3.6483,0.0,-4.1274,-4.331,0.0,-5.0705,-5.5426,-5.7391,-5.9116,-6.122,-6.1565,-6.1358,-6.0703,-6.0565,-6.022,-5.953,-5.9728,-5.9855,-5.9752,-6.0812,-6.1704,-6.2245,-6.2066,-6.1211,-5.9793,-5.8938,-5.8265,-5.7701,-5.6215,-5.5506,-5.5508,-5.4092,-5.3416,-5.3348,0.0,0.0,-5.3518,-5.3518,-5.3518,-5.3416,-5.2604,-5.2232,-5.1995,-5.0608,-5.0033,-4.9864,0.0,0.0,0.0,0.0,0.0,0.0,0.0,0.0,0.0,0.0,0.0,0.0,0.0,0.0,0.0,0.0,0.0,0.0,0.0,0.0,0.0,0.0,0.0,0.0,0.0,0.0,0.0,0.0,0.0,0.0,0.0,0.0,0.0,0.0,0.0,0.0,0.0,0.0,0.0,0.0,0.0,0.0,0.0,0.0,0.0,0.0,0.0,0.0,0.0,0.0,-4.1923,-4.5459,-4.9,-5.1371,-5.3387,-5.6288,-5.8392,-6.0427,-6.3324,-6.5428,-6.6497,-6.5221,-6.2737,-5.9254,-5.4184,-4.8787,0.0,0.0,0.0,-3.5778,-3.5366,-3.7344,0.0,-4.5251,0.0,0.0,0.0,0.0,-6.1116,0.0,0.0,0.0,0.0,0.0,0.0,0.0,0.0,0.0,-6.0537,-6.1596,-6.1975,-6.1501,-6.013,-5.9006,-5.8108,-5.6671,-5.6244,-5.6806,-5.5343,-5.4645,-5.4689,-5.3885,-5.3144,-5.252,0.0,0.0,-5.3518,-5.3518,-5.3518,-5.3416,-5.2604,-5.1928,-5.1319,-5.0405,-4.9695,-4.9187,0.0,0.0,0.0,0.0,0.0,0.0,0.0,0.0,0.0,0.0,0.0,0.0,0.0,0.0,0.0,0.0,0.0,0.0,0.0,0.0,0.0,0.0,0.0,0.0,0.0,0.0,0.0,0.0,0.0,0.0,0.0,0.0,0.0,0.0,0.0,0.0,0.0,0.0,0.0,0.0,0.0,0.0,0.0,0.0,0.0,0.0,0.0,0.0,0.0,0.0,-4.1125,-4.5217,-5.0201,-5.3042,-5.5081,-5.7702,-5.9288,-6.084,-6.3876,-6.5221,-6.5531,-6.4393,-6.0944,-5.6426,-5.108,0.0,0.0,0.0,0.0,-3.3685,-3.3333,0.0,0.0,0.0,0.0,0.0,0.0,0.0,0.0,0.0,0.0,0.0,0.0,0.0,0.0,0.0,0.0,0.0,-6.1326,-6.163,-6.167,-6.1332,-5.9309,-5.8078,-5.7713,-5.6082,-5.5515,-5.5915,-5.4475,-5.3787,-5.376,-5.2719,-5.2272,-5.2307,-5.2729,0.0,-5.3518,-5.3518,-5.3518,-5.3382,-5.2198,-5.1522,-5.105,-4.9932,-4.9289,-4.9018,0.0,0.0,0.0,0.0,0.0,0.0,0.0,0.0,0.0,0.0,0.0,0.0,0.0,0.0,0.0,0.0,0.0,0.0,0.0,0.0,0.0,0.0,0.0,0.0,0.0,0.0,0.0,0.0,0.0,0.0,0.0,0.0,0.0,0.0,0.0,0.0,0.0,0.0,0.0,0.0,0.0,0.0,0.0,0.0,0.0,0.0,0.0,0.0,0.0,0.0,-3.9238,-4.2689,-4.8252,-5.2119,-5.5012,-5.6805,-5.8564,-6.0565,-6.3255,-6.4462,-6.46,-6.322,-5.9081,-5.3908,-4.8224,-4.2352,0.0,0.0,0.0,-3.2217,-3.1922,0.0,0.0,0.0,0.0,0.0,0.0,0.0,0.0,0.0,0.0,0.0,0.0,0.0,0.0,0.0,0.0,0.0,-6.149,-6.1219,-6.096,-6.0825,-5.8619,-5.7371,-5.7206,-5.5442,-5.4636,-5.4809,-5.3383,-5.2706,-5.2713,-5.1615,-5.1331,-5.1769,-5.1951,0.0,0.0,-5.3078,-5.3112,-5.3078,-5.1555,-5.098,-5.0811,-4.9492,-4.9018,-4.9018,0.0,0.0,0.0,0.0,0.0,0.0,0.0,0.0,0.0,0.0,0.0,0.0,0.0,0.0,0.0,0.0,0.0,0.0,0.0,0.0,0.0,0.0,0.0,0.0,0.0,0.0,0.0,0.0,0.0,0.0,0.0,0.0,0.0,0.0,0.0,0.0,0.0,0.0,0.0,0.0,0.0,0.0,0.0,0.0,0.0,0.0,0.0,0.0,0.0,0.0,0.0,-3.7629,-4.1664,-4.6872,-5.1563,-5.177,0.0,0.0,-6.1185,-6.3669,-6.4945,-6.1392,-5.7529,-5.2873,-4.6121,0.0,0.0,0.0,-3.2115,-3.1696,-3.2539,-3.3525,0.0,0.0,0.0,0.0,0.0,0.0,0.0,0.0,0.0,0.0,0.0,0.0,0.0,0.0,0.0,0.0,0.0,-6.0329,-5.9911,-5.9235,-5.7463,-5.6189,-5.5531,-5.3227,-5.241,-5.3196,-5.176,-5.1127,-5.1176,-5.1121,-5.0729,-5.0182,0.0,0.0,0.0,-5.1615,-5.1764,-5.2266,-5.0777,-5.0202,-5.0101,-4.9289,-4.9018,-4.9018,0.0,0.0,0.0,0.0,0.0,0.0,0.0,0.0,0.0,0.0,0.0,0.0,0.0,0.0,0.0,0.0,0.0,0.0,0.0,0.0,0.0,0.0,0.0,0.0,0.0,0.0,0.0,0.0,0.0,0.0,0.0,0.0,0.0,0.0,0.0,0.0,0.0,0.0,0.0,0.0,0.0,0.0,0.0,0.0,0.0,0.0,0.0,0.0,0.0,0.0,0.0,0.0,-3.5525,-3.8767,0.0,0.0,-5.2218,-5.5667,-5.9012,-6.1841,-6.3151,-6.0254,-5.6288,-5.1597,-4.563,0.0,0.0,-3.3313,-3.2012,-3.1472,-3.1948,-3.3054,-3.4555,0.0,0.0,0.0,0.0,0.0,0.0,0.0,0.0,0.0,0.0,0.0,0.0,0.0,0.0,0.0,0.0,-5.9312,-5.9077,-5.8212,-5.6577,-5.5172,-5.393,-5.243,-5.1642,-5.1596,-5.0631,-5.0196,-5.0206,-4.9784,-4.9678,-4.9876,0.0,0.0,0.0,-5.1234,-5.1287,-5.1496,-5.0482,-5.0101,-4.9999,-4.9255,-4.9018,-4.9018,0.0,0.0,0.0,0.0,0.0,0.0,0.0,0.0,0.0,0.0,0.0,0.0,0.0,0.0,0.0,0.0,0.0,0.0,0.0,0.0,0.0,0.0,0.0,0.0,0.0,0.0,0.0,0.0,0.0,0.0,0.0,0.0,0.0,0.0,0.0,0.0,0.0,0.0,0.0,0.0,0.0,0.0,0.0,0.0,0.0,0.0,0.0,0.0,0.0,0.0,0.0,0.0,0.0,0.0,0.0,0.0,-4.8217,-5.1671,-5.5357,-5.8702,-6.0461,-5.7736,-5.4115,-4.974,0.0,0.0,0.0,-3.2863,-3.1784,-3.1312,-3.1462,-3.2789,-3.3979,0.0,0.0,0.0,0.0,0.0,0.0,0.0,0.0,0.0,0.0,0.0,0.0,0.0,0.0,0.0,0.0,-5.8296,-5.8051,-5.7415,-5.5829,-5.4364,-5.3007,-5.1728,-5.0882,-5.0389,-4.9682,-4.9374,-4.9343,-4.885,-4.8903,-4.9439,0.0,0.0,0.0,-4.9964,-5.0068,-5.042,-4.9721,-4.9571,-4.9695,-4.9187,-4.9018,-4.9052,0.0,0.0,0.0,0.0,0.0,0.0,0.0,0.0,0.0,0.0,0.0,0.0,0.0,0.0,0.0,0.0,0.0,0.0,0.0,0.0,0.0,0.0,0.0,0.0,0.0,0.0,0.0,0.0,0.0,0.0,0.0,0.0,0.0,0.0,0.0,0.0,0.0,0.0,0.0,0.0,0.0,0.0,0.0,0.0,0.0,0.0,0.0,0.0,0.0,0.0,0.0,0.0,0.0,0.0,0.0,0.0,-4.3009,-4.8114,-4.9666,-5.3942,-5.7047,-5.3222,-5.0533,-4.7196,0.0,0.0,0.0,-3.1959,-3.1361,-3.1249,-3.1443,-3.2764,-3.3516,-3.2764,0.0,0.0,0.0,0.0,0.0,0.0,0.0,0.0,0.0,0.0,0.0,0.0,0.0,0.0,0.0,-5.7313,-5.6774,-5.6614,-5.511,-5.3882,-5.3007,-5.0838,-4.9712,-4.9682,-4.8974,-4.8635,-4.8635,-4.8604,-4.8604,0.0,0.0,0.0,0.0,-4.7308,-4.7648,-4.8928,-4.8232,-4.8386,-4.9018,-4.9018,-4.9018,-4.912,0.0,0.0,0.0,0.0,0.0,0.0,0.0,0.0,0.0,0.0,0.0,0.0,0.0,0.0,0.0,0.0,0.0,0.0,0.0,0.0,0.0,0.0,0.0,0.0,0.0,0.0,0.0,-3.2434,-3.3797,0.0,0.0,0.0,0.0,0.0,0.0,0.0,0.0,0.0,0.0,0.0,0.0,0.0,0.0,0.0,0.0,0.0,0.0,0.0,0.0,0.0,0.0,0.0,0.0,0.0,0.0,0.0,0.0,0.0,-4.4932,-4.8079,-5.0287,-4.7493,-4.5458,-4.3088,-3.894,0.0,0.0,0.0,-3.1327,-3.123,-3.1332,-3.2188,-3.3162,-3.3925,-3.5416,0.0,0.0,0.0,0.0,0.0,0.0,0.0,0.0,0.0,0.0,0.0,0.0,0.0,0.0,0.0,-5.5161,-5.5044,-5.4045,-5.2629,-5.0734,-5.0067,-4.9435,-4.8943,-4.8727,-4.8604,-4.8604,-4.8604,0.0,0.0,0.0,0.0,0.0,-4.6856,-4.6966,-4.748,-4.7802,-4.8064,-4.8289,-4.8829,-4.9323,-4.9632,0.0,0.0,0.0,0.0,0.0,0.0,0.0,0.0,0.0,0.0,0.0,0.0,0.0,0.0,0.0,0.0,0.0,0.0,0.0,0.0,0.0,0.0,0.0,0.0,0.0,0.0,-3.2516,-3.2604,-3.3825,-3.4526,-3.4706,-3.4558,0.0,0.0,0.0,0.0,0.0,0.0,0.0,0.0,0.0,0.0,-3.0903,0.0,0.0,0.0,0.0,0.0,0.0,0.0,0.0,0.0,0.0,0.0,0.0,0.0,-3.3455,0.0,0.0,-4.3009,-4.5079,-4.3044,-4.1605,0.0,0.0,0.0,0.0,0.0,0.0,0.0,-3.093,-3.1973,-3.3114,-3.3684,-3.5036,0.0,0.0,0.0,0.0,0.0,0.0,0.0,0.0,0.0,0.0,0.0,0.0,0.0,0.0,0.0,-5.4229,-5.3512,-5.2771,-5.1516,-4.9724,-4.9404,-4.9066,-4.8604,-4.8604,-4.8604,-4.8604,-4.8358,0.0,0.0,0.0,0.0,0.0,-4.597,-4.6065,-4.637,-4.6853,-4.7238,-4.7572,-4.8322,-4.8686,-4.8827,0.0,0.0,0.0,0.0,0.0,0.0,0.0,0.0,0.0,0.0,0.0,0.0,0.0,0.0,0.0,0.0,0.0,0.0,0.0,0.0,0.0,0.0,0.0,0.0,0.0,-3.1733,-3.2328,-3.2807,-3.3517,-3.4215,-3.4907,-3.4942,-3.4374,0.0,0.0,0.0,0.0,0.0,0.0,0.0,0.0,0.0,0.0,0.0,0.0,0.0,0.0,0.0,0.0,0.0,0.0,0.0,0.0,0.0,0.0,0.0,0.0,0.0,0.0,0.0,0.0,0.0,0.0,0.0,0.0,0.0,0.0,0.0,0.0,0.0,0.0,-3.2083,-3.3345,-3.2652,-3.4517,0.0,0.0,0.0,0.0,0.0,0.0,0.0,0.0,0.0,0.0,0.0,0.0,0.0,0.0,0.0,-5.3732,-5.22,-5.131,-5.042,-4.957,-4.8912,-4.8604,-4.8543,-4.8543,-4.8543,-4.8512,-4.7835,0.0,0.0,0.0,0.0,0.0,-4.4849,-4.4993,-4.5624,-4.566,-4.6159,-4.6892,-4.7638,-4.7504,-4.7123,0.0,0.0,0.0,0.0,0.0,0.0,0.0,0.0,0.0,0.0,0.0,0.0,0.0,0.0,0.0,0.0,0.0,0.0,0.0,0.0,0.0,0.0,0.0,0.0,0.0,-3.1621,-3.1882,-3.1907,-3.3785,-3.4765,-3.4925,-3.5324,-3.5053,-3.4173,-3.3354,0.0,0.0,0.0,0.0,0.0,0.0,0.0,0.0,0.0,0.0,0.0,-2.8661,-2.8282,0.0,0.0,0.0,0.0,0.0,0.0,0.0,0.0,-2.8351,-2.9144,-3.0006,0.0,-3.311,-3.207,0.0,0.0,0.0,0.0,0.0,0.0,0.0,0.0,0.0,0.0,0.0,0.0,0.0,0.0,0.0,0.0,0.0,0.0,0.0,0.0,0.0,0.0,0.0,0.0,0.0,0.0,0.0,0.0,-5.2381,-5.1394,-5.0037,-4.8906,-4.8081,-4.845,-4.8358,-4.7835,-4.7835,-4.7835,-4.7804,-4.7127,0.0,0.0,0.0,0.0,-4.4787,-4.4671,-4.4685,-4.4918,-4.5478,-4.6122,-4.6816,-4.7535,-4.8067,-4.8278,0.0,0.0,0.0,0.0,0.0,0.0,0.0,0.0,0.0,0.0,0.0,0.0,0.0,0.0,0.0,0.0,0.0,0.0,0.0,0.0,0.0,0.0,0.0,0.0,0.0,-3.1769,-3.229,-3.2774,-3.4021,-3.4894,-3.5572,-3.5834,-3.5392,-3.4245,-3.2618,0.0,0.0,0.0,0.0,0.0,0.0,0.0,0.0,0.0,0.0,0.0,-2.7754,-2.753,0.0,-2.9438,-2.9558,-2.8972,0.0,0.0,0.0,0.0,-2.7558,-2.7902,-2.7819,-2.942,-3.0985,-3.0536,-3.0925,-3.1257,0.0,0.0,0.0,0.0,0.0,0.0,0.0,0.0,0.0,0.0,0.0,0.0,0.0,0.0,0.0,0.0,0.0,0.0,0.0,0.0,0.0,0.0,0.0,0.0,0.0,0.0,-5.1794,-5.0616,-4.9775,-4.8796,-4.7652,-4.7657,-4.7496,-4.7127,-4.7127,-4.7127,-4.7127,-4.6449,0.0,0.0,0.0,0.0,-4.461,-4.461,-4.461,-4.4678,-4.5372,-4.5865,-4.6316,-4.7384,-4.7585,-4.7294,0.0,0.0,0.0,0.0,0.0,0.0,0.0,0.0,0.0,0.0,0.0,0.0,0.0,0.0,0.0,0.0,0.0,0.0,0.0,0.0,0.0,0.0,0.0,0.0,0.0,-3.2001,-3.2772,-3.3852,-3.4032,-3.4731,-3.5973,-3.618,-3.549,-3.4027,-3.1938,0.0,0.0,0.0,0.0,0.0,-3.0109,0.0,0.0,0.0,0.0,0.0,0.0,0.0,0.0,-2.875,-2.9179,-2.9179,-2.9317,0.0,0.0,0.0,0.0,0.0,-2.7273,-2.935,-3.1507,-3.1286,-3.1769,-3.2278,0.0,0.0,0.0,0.0,0.0,0.0,0.0,0.0,0.0,0.0,0.0,0.0,0.0,0.0,0.0,0.0,0.0,0.0,0.0,0.0,0.0,0.0,0.0,0.0,0.0,0.0,0.0,-4.9888,-4.9717,-4.8923,-4.7429,-4.6874,-4.6542,-4.6449,-4.6449,-4.6449,-4.6419,-4.5741,-4.5434,0.0,0.0,0.0,-4.461,-4.461,-4.461,-4.4671,-4.5311,-4.5588,-4.5766,-4.7035,-4.6788,-4.5735,0.0,0.0,0.0,0.0,0.0,0.0,0.0,0.0,0.0,0.0,0.0,0.0,0.0,0.0,0.0,0.0,0.0,0.0,0.0,0.0,0.0,0.0,0.0,0.0,0.0,0.0,0.0,0.0,0.0,-3.4234,-3.4456,-3.5732,-3.549,-3.4061,-3.3007,-3.2214,-3.1593,-3.0847,-3.0468,-3.0245,-2.9007,0.0,0.0,0.0,0.0,0.0,0.0,0.0,0.0,-2.8166,-2.8078,-2.773,-2.8351,0.0,0.0,0.0,0.0,0.0,-2.7809,-2.9635,-3.1059,-2.9819,-3.0496,-3.1288,0.0,0.0,0.0,0.0,0.0,0.0,0.0,0.0,0.0,0.0,0.0,0.0,0.0,0.0,0.0,0.0,0.0,0.0,0.0,0.0,0.0,0.0,0.0,0.0,0.0,0.0,0.0,-4.9227,-4.8544,-4.7512,-4.6013,-4.6377,-4.6296,-4.5741,-4.5741,-4.5741,-4.5711,-4.5033,-4.4764,0.0,0.0,-4.461,-4.461,-4.461,-4.461,-4.4671,-4.5311,-4.5588,-4.5719,-4.6484,-4.663,-4.6212,0.0,0.0,0.0,0.0,0.0,0.0,0.0,0.0,0.0,0.0,0.0,0.0,0.0,0.0,0.0,0.0,0.0,0.0,0.0,0.0,0.0,0.0,0.0,0.0,0.0,0.0,0.0,0.0,0.0,-3.4904,-3.5283,-3.5145,-3.4525,-3.3421,-3.2662,-3.2073,-3.1673,-3.1239,-3.0825,-3.0361,0.0,0.0,0.0,0.0,0.0,0.0,0.0,0.0,0.0,0.0,-2.7913,-2.774,-2.8083,0.0,0.0,0.0,0.0,0.0,-2.7283,-2.8983,-3.0628,-3.0319,-3.1656,-3.2822,-3.207,0.0,0.0,0.0,0.0,0.0,0.0,0.0,0.0,0.0,0.0,0.0,0.0,0.0,0.0,0.0,0.0,0.0,0.0,0.0,0.0,0.0,0.0,0.0,0.0,0.0,0.0,0.0,-4.7143,-4.6237,-4.5152,-4.4674,-4.4449,-4.4517,-4.4141,-4.3987,-4.3956,-4.3648,-4.3525,-4.3525,0.0,-4.371,-4.4086,-4.4086,-4.4271,-4.4671,-4.5311,-4.5803,-4.6111,-4.608,-4.5803,-4.5218,0.0,0.0,0.0,0.0,0.0,0.0,0.0,0.0,0.0,0.0,0.0,0.0,0.0,0.0,0.0,0.0,0.0,0.0,0.0,0.0,0.0,0.0,0.0,0.0,0.0,0.0,-3.3041,-3.38,-3.4559,-3.5318,-3.6008,-3.4869,-3.3835,-3.2869,0.0,-3.1863,-3.1598,-3.156,-3.1059,-3.0286,0.0,0.0,0.0,0.0,0.0,0.0,0.0,0.0,0.0,0.0,0.0,0.0,0.0,0.0,0.0,-2.6995,-2.6826,-2.6843,-2.6894,-2.8367,-2.9995,-3.0495,0.0,-3.3761,-3.3897,0.0,0.0,0.0,0.0,0.0,0.0,0.0,0.0,0.0,0.0,0.0,0.0,0.0,0.0,0.0,0.0,0.0,0.0,0.0,0.0,0.0,0.0,0.0,0.0,0.0,0.0,0.0,-4.596,-4.5274,-4.4225,-4.3134,-4.2875,-4.3377,-4.2848,-4.2602,-4.2602,-4.2602,-4.2602,-4.2602,-4.2602,-4.2879,-4.3377,-4.3531,-4.3809,-4.4202,-4.5033,-4.568,-4.6049,-4.5372,-4.4825,-4.4148,0.0,0.0,0.0,0.0,0.0,0.0,0.0,0.0,0.0,0.0,0.0,0.0,0.0,0.0,0.0,0.0,0.0,0.0,0.0,0.0,0.0,0.0,0.0,0.0,0.0,-3.1834,-3.2248,-3.2972,-3.38,-3.4579,-3.5283,-3.5145,-3.4318,-3.2904,0.0,-3.2303,-3.1579,-3.1408,-3.0889,-3.0122,-2.9336,0.0,0.0,0.0,0.0,0.0,0.0,0.0,0.0,0.0,0.0,0.0,0.0,0.0,-2.6742,-2.6657,-2.664,-2.6758,-2.736,-2.8202,-2.8912,-2.8945,0.0,0.0,-3.4822,0.0,0.0,0.0,0.0,0.0,0.0,0.0,0.0,0.0,0.0,0.0,0.0,0.0,0.0,0.0,0.0,0.0,0.0,0.0,0.0,0.0,0.0,0.0,0.0,0.0,0.0,0.0,0.0,-4.4788,-4.2783,-4.2664,-4.2626,-4.2663,-4.2633,-4.2602,-4.2602,-4.2602,-4.2602,-4.2602,-4.2602,-4.2633,-4.2725,-4.3347,-4.3248,-4.2879,-4.4141,-4.4702,-4.4671,-4.3994,-4.3716,-4.3655,0.0,0.0,0.0,0.0,0.0,0.0,0.0,0.0,0.0,0.0,0.0,0.0,0.0,0.0,0.0,0.0,0.0,0.0,0.0,0.0,0.0,0.0,0.0,-3.111,-3.111,-3.249,-3.3593,-3.4318,-3.4628,-3.4683,-3.449,-3.3948,0.0,0.0,0.0,-3.1792,-3.1428,-3.1351,-3.0613,-2.9437,-2.913,-2.8212,0.0,0.0,0.0,0.0,0.0,0.0,0.0,0.0,0.0,0.0,0.0,0.0,0.0,0.0,-2.6417,-2.6501,-2.6837,-2.8166,-2.9484,-2.9484,0.0,0.0,0.0,0.0,0.0,0.0,0.0,0.0,0.0,0.0,0.0,0.0,0.0,0.0,0.0,0.0,0.0,0.0,0.0,0.0,0.0,0.0,0.0,0.0,0.0,0.0,0.0,0.0,0.0,0.0,0.0,-4.374,-4.2549,-4.2129,-4.1943,-4.1986,-4.1524,-4.1274,-4.1274,-4.1274,-4.1274,-4.1274,-4.1274,-4.1555,-4.2017,-4.2232,-4.2448,-4.2694,-4.3624,-4.3994,-4.3963,-4.3685,-4.387,-4.4117,0.0,0.0,0.0,0.0,0.0,0.0,0.0,0.0,0.0,0.0,0.0,0.0,0.0,0.0,0.0,0.0,0.0,0.0,0.0,0.0,0.0,0.0,0.0,-3.0558,-3.1059,-3.2577,-3.3628,-3.4111,-3.4594,-3.4456,-3.3692,0.0,0.0,0.0,0.0,0.0,-3.1652,-3.1138,-3.03,-2.9259,-2.8789,-2.794,0.0,0.0,0.0,0.0,0.0,0.0,0.0,0.0,0.0,0.0,0.0,0.0,0.0,0.0,0.0,-2.6243,-2.608,-2.7389,-2.8837,0.0,0.0,0.0,0.0,0.0,0.0,0.0,0.0,0.0,0.0,0.0,0.0,0.0,0.0,0.0,0.0,0.0,0.0,0.0,0.0,0.0,0.0,0.0,0.0,0.0,0.0,0.0,0.0,0.0,0.0,0.0,0.0,-4.2716,-4.181,-4.1373,-4.1081,-4.091,-4.0393,-4.0505,-4.1151,-4.1151,-4.1151,-4.1151,-4.0935,-4.1155,-4.1586,-4.1586,-4.1863,-4.2325,-4.2509,-4.2879,-4.3285,-4.3069,-4.3685,-4.4456,0.0,0.0,0.0,0.0,0.0,0.0,0.0,0.0,0.0,0.0,0.0,0.0,0.0,0.0,0.0,0.0,0.0,0.0,0.0,0.0,0.0,0.0,0.0,-3.0213,-3.1731,-3.18,-3.18,-3.18,-3.3317,-3.3658,-3.2818,-3.3539,0.0,0.0,0.0,0.0,-3.238,-3.0789,-3.0017,-2.9772,-2.8363,-2.7702,-2.7526,0.0,0.0,0.0,0.0,0.0,0.0,0.0,0.0,0.0,0.0,0.0,0.0,0.0,-2.5044,-2.602,-2.5309,-2.571,0.0,0.0,0.0,0.0,0.0,0.0,0.0,0.0,0.0,0.0,0.0,0.0,0.0,0.0,0.0,0.0,0.0,0.0,0.0,0.0,0.0,0.0,0.0,0.0,0.0,0.0,0.0,0.0,0.0,0.0,0.0,0.0,0.0,0.0,-4.0326,-4.0386,-4.0087,-3.9409,-3.9484,-4.0601,-4.2571,-4.2602,-4.2602,-4.2571,-4.1894,-4.1617,-4.1617,-4.1617,-4.1617,-4.1524,-4.0816,-4.1366,-4.254,-4.1863,-4.2879,-4.4517,0.0,0.0,0.0,0.0,0.0,0.0,0.0,0.0,0.0,0.0,0.0,0.0,0.0,0.0,0.0,0.0,0.0,0.0,0.0,0.0,0.0,0.0,0.0,0.0,0.0,0.0,-3.1524,-3.2559,-3.2965,-3.3063,0.0,0.0,0.0,-3.2528,0.0,0.0,-3.0789,-3.022,-2.9353,-2.8306,-2.785,-2.7291,-2.6665,0.0,0.0,0.0,0.0,0.0,0.0,0.0,0.0,0.0,0.0,0.0,0.0,0.0,-2.549,-2.5607,-2.6474,-2.6947,0.0,0.0,0.0,0.0,0.0,0.0,0.0,0.0,0.0,0.0,0.0,0.0,0.0,0.0,0.0,0.0,0.0,0.0,0.0,0.0,0.0,0.0,0.0,0.0,0.0,0.0,0.0,0.0,0.0,0.0,0.0,0.0,0.0,0.0,-4.1029,-4.1029,-4.0909,-4.0732,-4.0323,-4.0238,-4.0443,-4.1463,-4.1894,-4.1925,-4.2202,-4.2294,-4.2294,-4.2294,-4.2294,-4.2294,-4.2078,-4.2509,-4.3285,-4.31,-4.3685,-4.4579,0.0,0.0,0.0,0.0,0.0,0.0,0.0,0.0,0.0,0.0,0.0,0.0,0.0,0.0,0.0,0.0,0.0,0.0,0.0,0.0,0.0,0.0,0.0,0.0,0.0,-3.0144,-3.092,0.0,0.0,0.0,0.0,0.0,0.0,-3.2428,0.0,-3.1881,0.0,-2.9738,-2.8721,-2.7559,-2.7291,-2.68,-2.6259,0.0,0.0,0.0,0.0,0.0,0.0,0.0,0.0,0.0,0.0,0.0,0.0,0.0,-2.5424,-2.5691,-2.6361,0.0,0.0,0.0,0.0,0.0,0.0,0.0,0.0,0.0,0.0,0.0,0.0,0.0,0.0,0.0,0.0,0.0,0.0,0.0,0.0,0.0,0.0,0.0,0.0,0.0,0.0,0.0,0.0,0.0,0.0,0.0,0.0,0.0,0.0,0.0,-3.9947,-3.9999,-4.0028,-4.0033,-3.9991,-3.9819,-3.9487,-4.0955,-4.174,-4.2017,-4.2417,-4.2448,-4.2232,-4.2509,-4.2602,-4.2602,-4.2602,-4.3002,-4.3593,-4.3593,-4.4024,-4.461,0.0,0.0,0.0,0.0,0.0,0.0,0.0,0.0,0.0,0.0,0.0,0.0,0.0,0.0,0.0,0.0,0.0,0.0,0.0,0.0,0.0,0.0,0.0,0.0,0.0,0.0,0.0,0.0,0.0,0.0,0.0,0.0,-3.2951,-3.2226,0.0,-3.2279,-3.0715,-2.9297,-2.8126,-2.7244,-2.67,-2.6363,-2.6203,-2.6259,0.0,0.0,0.0,0.0,0.0,0.0,0.0,0.0,0.0,0.0,0.0,-2.4381,-2.511,-2.6007,0.0,0.0,0.0,0.0,0.0,0.0,0.0,0.0,0.0,0.0,0.0,0.0,0.0,0.0,0.0,0.0,0.0,0.0,0.0,0.0,0.0,0.0,0.0,0.0,0.0,0.0,0.0,0.0,0.0,0.0,0.0,0.0,0.0,0.0,0.0,0.0,-3.7922,-3.8003,-3.8081,0.0,-3.8791,-3.9159,-3.9345,-4.0885,-4.1929,-4.2602,-4.2602,-4.2263,-4.174,-4.2355,-4.2602,-4.2602,-4.2602,-4.2971,-4.3531,-4.3593,-4.3994,-4.4517,0.0,0.0,0.0,0.0,0.0,0.0,0.0,0.0,0.0,0.0,0.0,0.0,0.0,0.0,0.0,0.0,0.0,0.0,0.0,0.0,0.0,0.0,0.0,0.0,0.0,0.0,0.0,0.0,0.0,0.0,0.0,0.0,0.0,-3.1427,0.0,-3.0701,-2.9196,-2.8141,-2.7247,-2.6512,-2.6341,-2.6221,-2.6185,-2.6221,-2.6203,0.0,0.0,0.0,0.0,0.0,0.0,0.0,-2.511,-2.511,-2.5176,-2.559,-2.5593,0.0,0.0,0.0,0.0,0.0,0.0,0.0,0.0,0.0,0.0,0.0,0.0,0.0,0.0,0.0,0.0,0.0,0.0,0.0,0.0,0.0,0.0,0.0,0.0,0.0,0.0,0.0,0.0,0.0,0.0,0.0,0.0,0.0,0.0,0.0,0.0,-3.7922,-3.7922,-3.7937,-3.8003,0.0,-3.7813,-3.8004,-3.8683,-4.0571,-4.1859,-4.2602,-4.2602,-4.2509,-4.2417,-4.254,-4.2602,-4.2602,-4.2602,-4.2694,-4.2879,-4.3408,-4.3685,-4.3901,0.0,0.0,0.0,0.0,0.0,0.0,0.0,0.0,0.0,0.0,0.0,0.0,0.0,0.0,0.0,0.0,0.0,0.0,0.0,0.0,0.0,0.0,0.0,0.0,0.0,0.0,0.0,0.0,0.0,0.0,0.0,0.0,0.0,-3.1112,0.0,-3.0118,-2.8609,-2.7748,-2.696,-2.6241,-2.6203,-2.6185,-2.6185,-2.6185,-2.6185,-2.6185,-2.6185,0.0,0.0,0.0,0.0,0.0,0.0,0.0,-2.5243,-2.5987,-2.594,-2.5878,0.0,0.0,0.0,0.0,0.0,0.0,0.0,0.0,0.0,0.0,0.0,0.0,0.0,0.0,0.0,0.0,0.0,0.0,0.0,0.0,0.0,0.0,0.0,0.0,0.0,0.0,0.0,0.0,0.0,0.0,0.0,0.0,0.0,0.0,-3.6603,-3.6783,-3.6783,-3.7178,-3.7408,-3.7476,-3.7583,-3.7903,-3.843,-3.9531,-4.0414,-4.1155,-4.1463,-4.1801,-4.214,-4.2479,-4.2602,-4.2602,-4.2602,-4.2786,-4.3094,-4.347,-4.3809,-4.4148,0.0,0.0,0.0,0.0,0.0,0.0,0.0,0.0,0.0,0.0,0.0,0.0,0.0,0.0,0.0,0.0,0.0,0.0,0.0,0.0,0.0,0.0,0.0,0.0,0.0,0.0,0.0,0.0,0.0,0.0,0.0,0.0,0.0,-3.0978,0.0,-2.9853,-2.8258,-2.7526,-2.6806,-2.6185,-2.6185,-2.6185,-2.6185,-2.6185,-2.6185,-2.6185,-2.6185,-2.6185,-2.6185,-2.6185,0.0,0.0,0.0,0.0,-2.5391,-2.602,-2.6203,-2.6257,0.0,0.0,0.0,0.0,0.0,0.0,0.0,0.0,0.0,0.0,0.0,0.0,0.0,0.0,0.0,0.0,0.0,0.0,0.0,0.0,0.0,0.0,0.0,0.0,0.0,0.0,0.0,0.0,0.0,0.0,0.0,0.0,-3.5464,-3.56,-3.56,-3.56,-3.56,-3.6265,-3.6614,-3.6632,-3.74,-3.795,-3.8241,-3.8181,-3.86,-3.9336,-4.0043,-4.0693,-4.1309,-4.1955,-4.2263,-4.2263,-4.2263,-4.2663,-4.3285,-4.3408,-4.3809,-4.4264,0.0,0.0,0.0,0.0,0.0,0.0,0.0,0.0,0.0,0.0,0.0,0.0,0.0,0.0,0.0,0.0,0.0,0.0,-2.5247,0.0,0.0,-2.6327,-2.7599,0.0,0.0,0.0,0.0,0.0,0.0,0.0,0.0,0.0,0.0,-3.0985,0.0,0.0,-2.7492,-2.6721,-2.6303,-2.6185,-2.6185,-2.6185,-2.6185,-2.6185,-2.6185,-2.6185,-2.6185,-2.6185,-2.6185,-2.6185,-2.6119,0.0,0.0,0.0,-2.6053,-2.6152,-2.6257,0.0,0.0,0.0,0.0,0.0,0.0,0.0,0.0,0.0,0.0,0.0,0.0,0.0,0.0,0.0,0.0,0.0,0.0,0.0,0.0,0.0,0.0,0.0,0.0,0.0,0.0,0.0,0.0,0.0,0.0,0.0,0.0,-3.4641,-3.4945,-3.5566,-3.56,-3.56,-3.56,-3.5701,-3.5843,-3.6,-3.6372,-3.6901,-3.7514,-3.7002,-3.7461,-3.8692,-3.937,-3.9674,-3.9828,-4.0474,-4.0782,-4.0782,-4.0782,-4.1247,-4.1925,-4.2509,-4.2786,-4.294,0.0,0.0,0.0,0.0,0.0,0.0,0.0,0.0,0.0,0.0,0.0,0.0,0.0,0.0,0.0,-2.4947,-2.3874,-2.3509,-2.4267,-2.506,-2.5631,-2.5968,-2.6592,-2.7093,0.0,0.0,0.0,0.0,0.0,0.0,0.0,-3.0656,-3.1086,0.0,0.0,0.0,0.0,0.0,0.0,-2.6185,-2.6185,-2.6221,-2.6241,-2.6203,-2.6221,-2.6241,-2.6203,-2.6185,-2.6185,-2.6185,-2.6185,-2.6185,-2.6185,0.0,0.0,0.0,-2.6221,0.0,0.0,0.0,0.0,0.0,0.0,0.0,0.0,0.0,0.0,0.0,0.0,0.0,0.0,0.0,0.0,0.0,0.0,0.0,0.0,0.0,0.0,0.0,0.0,0.0,0.0,0.0,0.0,0.0,0.0,0.0,-3.3863,-3.3863,-3.4032,-3.4349,-3.4349,-3.4573,-3.4979,-3.4979,-3.5111,-3.5386,-3.5213,-3.5543,-3.6315,-3.6075,-3.6661,-3.7954,-3.8262,-3.8816,-3.9521,-3.9797,-4.0166,-4.0505,-4.0505,-4.0935,-4.1648,-4.1925,-4.2294,-4.2633,0.0,0.0,0.0,0.0,0.0,0.0,0.0,0.0,0.0,0.0,0.0,0.0,0.0,0.0,0.0,0.0,-2.3316,-2.2896,-2.3447,-2.4224,-2.4937,-2.5617,-2.5779,-2.6159,-2.6825,0.0,0.0,0.0,0.0,0.0,-3.092,-3.0871,-3.1804,0.0,-3.26,0.0,0.0,0.0,0.0,0.0,0.0,-2.6407,-2.6279,-2.6224,-2.6259,-2.6312,-2.6221,-2.6185,-2.6185,-2.6185,-2.6185,-2.6185,-2.6185,-2.6185,0.0,0.0,0.0,0.0,0.0,0.0,0.0,0.0,0.0,0.0,0.0,0.0,0.0,0.0,0.0,0.0,0.0,0.0,0.0,0.0,0.0,0.0,0.0,0.0,0.0,0.0,0.0,0.0,0.0,0.0,0.0,0.0,0.0,0.0,-3.3119,-3.3119,-3.322,-3.3389,-3.3423,-3.366,-3.4201,-3.4404,-3.4731,-3.5252,-3.4872,-3.4967,-3.5483,-3.5674,-3.6199,-3.6999,-3.7338,-3.8169,-3.9244,-3.9431,-3.989,-4.0505,-4.0505,-4.0935,-4.1586,-4.1586,-4.1925,-4.2355,0.0,0.0,0.0,0.0,0.0,0.0,0.0,0.0,0.0,0.0,0.0,0.0,-2.3765,-2.4281,-2.4184,-2.2849,-2.2644,-2.2609,-2.2644,-2.3308,-2.3974,-2.4633,-2.5347,0.0,-2.6708,0.0,0.0,0.0,0.0,0.0,-3.0176,-3.0715,-3.2156,-3.4196,-3.3162,-3.1459,-2.9417,0.0,0.0,0.0,0.0,0.0,0.0,0.0,0.0,0.0,0.0,0.0,-2.6185,-2.6185,-2.6185,-2.6185,-2.6185,-2.6185,-2.6185,0.0,0.0,0.0,0.0,0.0,0.0,0.0,0.0,0.0,0.0,0.0,0.0,0.0,0.0,0.0,0.0,0.0,0.0,0.0,0.0,0.0,0.0,0.0,0.0,0.0,0.0,0.0,0.0,0.0,0.0,0.0,0.0,0.0,-3.2361,-3.2361,-3.2699,-3.3389,-3.3423,-3.3423,-3.3457,-3.4134,-3.5003,-3.5943,-3.5968,-3.5796,-3.5458,-3.6133,-3.6138,-3.5645,-3.6938,-3.7892,-3.86,-3.9247,-3.989,-4.0505,-4.0505,-4.0935,-4.1586,-4.1586,-4.1617,-4.1648,0.0,0.0,0.0,0.0,0.0,0.0,0.0,0.0,0.0,0.0,0.0,0.0,0.0,-2.4003,-2.374,-2.3224,-2.2788,-2.2542,-2.2542,-2.2754,-2.3414,-2.455,-2.4856,-2.5537,-2.6674,0.0,0.0,0.0,0.0,-2.7551,-2.9252,-2.935,-3.0062,-3.1353,-3.2362,-3.1865,-3.0214,-2.9636,0.0,0.0,0.0,0.0,0.0,0.0,0.0,0.0,0.0,0.0,0.0,-2.6259,-2.6257,-2.6185,-2.6185,-2.6185,-2.6185,-2.6185,-2.615,0.0,0.0,0.0,0.0,0.0,0.0,0.0,0.0,0.0,0.0,0.0,0.0,0.0,0.0,0.0,0.0,0.0,0.0,0.0,0.0,0.0,0.0,0.0,0.0,0.0,0.0,0.0,0.0,0.0,0.0,0.0,-3.1596,-3.1582,-3.1577,-3.1546,-3.1546,-3.178,-3.2226,-3.3406,-3.422,-3.4651,-3.4824,-3.5082,-3.5447,-3.5272,-3.5337,-3.5552,-3.5984,-3.6846,-3.7892,-3.8138,-3.8631,-3.9244,-3.9674,-4.0047,-4.0324,-4.0755,-4.0874,-4.0874,0.0,0.0,0.0,0.0,0.0,0.0,0.0,0.0,0.0,0.0,0.0,0.0,0.0,0.0,-2.4094,-2.3886,-2.3249,-2.2937,-2.3176,-2.2957,-2.3425,-2.4893,-2.4961,-2.5487,-2.6657,0.0,0.0,0.0,0.0,0.0,0.0,-2.8237,-2.8662,-2.9662,-3.0854,-3.11,0.0,0.0,0.0,-2.7661,0.0,0.0,-2.7255,0.0,0.0,0.0,0.0,0.0,0.0,0.0,0.0,0.0,-2.6622,-2.642,-2.6185,-2.615,-2.6063,0.0,0.0,0.0,0.0,0.0,0.0,0.0,0.0,0.0,0.0,0.0,0.0,0.0,0.0,0.0,0.0,0.0,0.0,0.0,0.0,0.0,0.0,0.0,0.0,0.0,0.0,0.0,0.0,0.0,0.0,0.0,-3.1092,-3.1112,-3.0998,-3.0723,-3.0723,-3.1008,-3.1591,-3.274,-3.3425,-3.3649,-3.4011,-3.4397,-3.4783,-3.4597,-3.4628,-3.4783,-3.5059,-3.5799,-3.6846,-3.7307,-3.7769,-3.8231,-3.8908,-3.9152,-3.9247,-3.9644,-3.9951,-4.0166,0.0,0.0,0.0,0.0,0.0,0.0,0.0,0.0,0.0,-2.4643,0.0,0.0,0.0,0.0,0.0,-2.4671,-2.3988,-2.3852,-2.455,-2.3879,-2.4086,-2.5541,-2.5592,-2.5947,-2.6657,0.0,0.0,0.0,0.0,0.0,0.0,0.0,-2.8185,-2.9476,-2.8713,-2.9118,-3.0456,0.0,-3.1085,-3.0344,0.0,-2.9298,-2.8781,0.0,0.0,0.0,-2.8796,-2.8976,0.0,0.0,0.0,0.0,0.0,0.0,-2.6168,-2.6045,0.0,0.0,0.0,0.0,0.0,0.0,0.0,0.0,0.0,0.0,0.0,0.0,0.0,0.0,0.0,0.0,0.0,0.0,0.0,0.0,0.0,0.0,0.0,0.0,0.0,0.0,0.0,0.0,0.0,0.0,0.0,-3.0892,-3.0892,-3.0972,-3.1052,-3.1171,-3.1171,-3.1308,-3.1558,-3.2243,-3.2769,-3.324,-3.3878,-3.3928,-3.349,-3.4166,-3.4104,-3.3429,-3.4166,-3.4844,-3.5521,-3.6876,-3.743,-3.7523,-3.82,-3.8477,-3.8477,-3.8508,-3.8939,-3.9459,0.0,0.0,0.0,0.0,0.0,0.0,0.0,0.0,0.0,0.0,0.0,0.0,-2.4508,-2.5169,-2.5541,-2.5354,-2.5117,-2.4896,-2.4557,-2.4305,-2.4609,-2.5575,-2.5592,-2.5947,-2.6657,0.0,0.0,0.0,0.0,0.0,0.0,0.0,0.0,0.0,-2.7466,-2.7812,-2.8243,-2.8973,0.0,0.0,-2.8753,-2.8881,0.0,0.0,0.0,0.0,0.0,-2.8852,0.0,0.0,-2.8379,-2.8129,0.0,0.0,0.0,0.0,0.0,0.0,-2.5775,0.0,0.0,0.0,0.0,0.0,0.0,0.0,0.0,0.0,0.0,0.0,0.0,0.0,0.0,0.0,0.0,0.0,0.0,0.0,0.0,0.0,0.0,0.0,0.0,0.0,0.0,0.0,-3.077,-3.081,-3.0892,-3.0654,-3.0559,-3.0683,-3.0683,-3.0721,-3.0796,-3.1504,-3.2475,-3.363,-3.3535,-3.3959,-3.4876,-3.4075,-3.3583,-3.3429,-3.3614,-3.3521,-3.3398,-3.5276,-3.6045,-3.6168,-3.7338,-3.7769,-3.7831,-3.8323,-3.8631,-3.8752,0.0,0.0,0.0,0.0,0.0,0.0,0.0,0.0,0.0,0.0,0.0,0.0,-2.6336,-2.6454,-2.6505,-2.6505,-2.5964,-2.5541,-2.5422,-2.5151,-2.527,-2.6015,-2.6048,-2.6251,0.0,0.0,0.0,0.0,0.0,0.0,0.0,0.0,0.0,0.0,0.0,0.0,0.0,0.0,0.0,0.0,-2.8887,0.0,0.0,-3.0031,-3.0244,0.0,0.0,0.0,-3.0508,-2.9623,-2.9206,0.0,0.0,0.0,0.0,0.0,0.0,0.0,0.0,0.0,0.0,0.0,0.0,0.0,0.0,-2.5844,0.0,0.0,0.0,0.0,0.0,0.0,0.0,0.0,0.0,0.0,0.0,0.0,0.0,0.0,0.0,0.0,0.0,0.0,0.0,0.0,-3.0447,-3.0688,-3.081,-3.0654,-3.0613,-3.0716,-3.0777,-3.0716,-3.0497,-3.1205,-3.207,-3.308,-3.2849,-3.34,-3.4568,-3.349,-3.2967,-3.2967,-3.2967,-3.2752,-3.2505,-3.4014,-3.4813,-3.5213,-3.623,-3.6846,-3.7123,-3.7523,-3.7831,-3.8044,0.0,0.0,0.0,0.0,0.0,0.0,0.0,0.0,0.0,0.0,0.0,-2.8247,-2.9044,-2.8416,-2.7925,-2.7925,-2.664,-2.6082,-2.6657,-2.6082,-2.6015,-2.6657,-2.6691,-2.6691,0.0,0.0,0.0,0.0,0.0,0.0,0.0,0.0,0.0,0.0,0.0,0.0,0.0,0.0,0.0,-2.9304,-2.9588,-3.0188,0.0,0.0,-3.1988,0.0,-3.1268,-3.1873,-3.2702,-3.0827,-3.0042,0.0,0.0,0.0,0.0,0.0,-2.6653,0.0,0.0,0.0,0.0,0.0,0.0,0.0,-2.584,-2.5909,-2.5997,0.0,0.0,0.0,0.0,0.0,0.0,0.0,0.0,0.0,0.0,0.0,0.0,0.0,0.0,0.0,0.0,0.0,-2.9231,-2.9397,-2.9992,-3.0431,-3.0514,-3.0677,-3.0778,-3.0818,-3.1044,-3.0958,-3.0497,-3.1042,-3.156,-3.2,-3.1854,-3.232,-3.3275,-3.2505,-3.2259,-3.2382,-3.2321,-3.2321,-3.2444,-3.3029,-3.3706,-3.4443,-3.5213,-3.5861,-3.6384,-3.6476,-3.6876,-3.7305,-2.8122,0.0,0.0,0.0,0.0,0.0,0.0,0.0,0.0,0.0,0.0,0.0,-2.9803,-2.9228,-2.8773,-2.8773,-2.7909,-2.7181,-2.6725,-2.6556,-2.6556,-2.6691,-2.6691,-2.6691,-2.6691,0.0,0.0,0.0,0.0,0.0,0.0,0.0,0.0,0.0,0.0,0.0,0.0,0.0,0.0,-2.8671,-2.8858,0.0,-3.0912,-3.126,-3.1388,-3.1354,-3.1185,-3.1354,-3.1523,0.0,-3.0393,-2.983,0.0,0.0,0.0,0.0,0.0,0.0,0.0,0.0,0.0,0.0,0.0,0.0,-2.5783,-2.6127,-2.6392,0.0,0.0,0.0,0.0,0.0,0.0,0.0,0.0,0.0,0.0,0.0,0.0,0.0,0.0,0.0,0.0,0.0,-2.8158,-2.9297,-2.9529,-2.9514,-2.9329,-2.9749,-2.9888,-2.9656,-3.0656,-3.0958,-3.0497,-3.0249,-3.0518,-3.1275,-3.0373,-3.086,-3.2536,-3.1366,-3.1397,-3.2351,-3.1855,-3.189,-3.2413,-3.2536,-3.2998,-3.3737,-3.5028,-3.5583,-3.5737,-3.6292,-3.6475,-3.6441,-2.7868,0.0,0.0,0.0,0.0,0.0,0.0,0.0,0.0,0.0,0.0,0.0,0.0,0.0,0.0,-2.9044,-2.8619,-2.7909,-2.6759,-2.7029,-2.7097,-2.6725,-2.6691,-2.6691,-2.6691,-2.6691,0.0,0.0,0.0,0.0,0.0,0.0,0.0,0.0,0.0,0.0,0.0,0.0,-2.6887,-2.801,-2.849,0.0,-3.0972,-3.1131,-3.119,-3.119,-3.119,-3.119,-3.1258,-3.1536,-3.1086,0.0,0.0,-2.9721,-2.9004,0.0,-2.8405,-2.7984,0.0,0.0,0.0,-2.673,0.0,0.0,0.0,-2.6211,0.0,0.0,0.0,0.0,0.0,0.0,0.0,0.0,0.0,0.0,0.0,0.0,0.0,0.0,0.0,0.0,0.0,0.0,-2.7746,-2.882,-2.8887,-2.8827,-2.8708,-2.935,-2.9497,-2.912,-3.0112,-3.0456,-3.0043,-2.9805,-2.9996,-3.0598,-3.0016,-3.0514,-3.1859,-3.1213,-3.1459,-3.2382,-3.2044,-3.2074,-3.2382,-3.2382,-3.2598,-3.3029,-3.4474,-3.5213,-3.5583,-3.623,-3.6383,-3.6164,-2.7587,0.0,0.0,0.0,0.0,0.0,0.0,0.0,0.0,0.0,0.0,0.0,0.0,0.0,0.0,0.0,0.0,0.0,0.0,0.0,0.0,-2.6928,-2.6759,-2.6691,-2.6691,-2.6691,0.0,0.0,0.0,0.0,0.0,0.0,0.0,0.0,0.0,0.0,0.0,0.0,0.0,-2.7714,0.0,-2.9676,-3.083,-3.1083,-3.119,-3.119,-3.119,-3.119,-3.1292,-3.1847,0.0,-3.0912,-3.0878,-3.0336,0.0,0.0,0.0,0.0,0.0,0.0,0.0,0.0,0.0,-2.6834,0.0,0.0,0.0,0.0,0.0,0.0,0.0,0.0,0.0,0.0,0.0,0.0,0.0,0.0,0.0,0.0,0.0,0.0,0.0,0.0,-2.768,-2.8144,-2.831,-2.8304,-2.8061,-2.8766,-2.9032,-2.8706,-2.9487,-2.9783,-2.9563,-2.9496,-2.9557,-2.9736,-2.976,-3.0261,-3.1182,-3.1059,-3.152,-3.2382,-3.2259,-3.2259,-3.2382,-3.2382,-3.2382,-3.2536,-3.3767,-3.472,-3.5368,-3.6015,-3.6198,-3.6133,-2.773,-2.8126,0.0,0.0,0.0,0.0,0.0,0.0,0.0,0.0,0.0,0.0,0.0,0.0,0.0,0.0,0.0,0.0,-3.0615,0.0,0.0,0.0,0.0,0.0,-2.6691,-2.6691,-2.6674,0.0,0.0,0.0,0.0,0.0,0.0,0.0,-2.5577,0.0,0.0,0.0,-2.7181,0.0,-2.9365,-2.9844,0.0,-3.0881,-3.119,-3.119,-3.119,-3.119,-3.119,0.0,-3.1039,-3.0871,0.0,-3.0559,0.0,0.0,0.0,0.0,0.0,0.0,0.0,0.0,-2.7203,0.0,0.0,0.0,0.0,0.0,0.0,0.0,0.0,0.0,0.0,0.0,0.0,0.0,0.0,0.0,0.0,0.0,0.0,0.0,0.0,0.0,0.0,-2.7448,-2.8011,-2.7924,-2.6867,-2.7335,-2.7774,-2.7996,-2.8756,-2.922,-2.9429,-2.9143,-2.8787,-2.84,-2.8552,-2.9261,-3.0479,-2.9894,-3.0658,-3.2351,-3.1767,-3.1828,-3.2382,-3.2382,-3.2382,-3.2475,-3.3244,-3.3952,-3.466,-3.5186,-3.5644,-3.6005,-2.7677,-2.7584,0.0,0.0,0.0,0.0,0.0,0.0,0.0,0.0,0.0,0.0,0.0,0.0,0.0,0.0,0.0,-3.1732,0.0,0.0,0.0,0.0,0.0,0.0,0.0,-2.7483,-2.7211,0.0,-2.6617,0.0,0.0,0.0,0.0,0.0,-2.6126,0.0,-2.7323,0.0,0.0,0.0,0.0,0.0,0.0,-3.0881,-3.119,-3.119,-3.119,-3.119,-3.119,0.0,-3.0972,0.0,0.0,0.0,0.0,0.0,0.0,0.0,0.0,0.0,0.0,0.0,0.0,0.0,0.0,0.0,-2.5953,0.0,0.0,0.0,0.0,0.0,0.0,0.0,0.0,0.0,0.0,0.0,0.0,0.0,0.0,0.0,0.0,0.0,0.0,0.0,0.0,-2.6891,-2.6395,-2.6738,-2.7166,-2.7705,-2.821,-2.8614,-2.888,-2.8818,-2.8614,-2.821,-2.8363,-2.9119,-3.0386,-3.0109,-3.0874,-3.2382,-3.2105,-3.2136,-3.2382,-3.2382,-3.2382,-3.2413,-3.2637,-3.3376,-3.4389,-3.4972,-3.546,-3.5816,-2.7622,0.0,0.0,0.0,0.0,0.0,0.0,0.0,0.0,0.0,0.0,0.0,-3.3897,-3.3977,0.0,0.0,0.0,-3.4201,0.0,0.0,-3.0615,0.0,0.0,0.0,0.0,0.0,0.0,0.0,0.0,0.0,0.0,0.0,0.0,0.0,0.0,-2.6811,-2.7711,0.0,0.0,-2.7943,-2.9101,-2.9696,-3.0008,-3.0881,-3.119,-3.119,-3.119,-3.119,-3.119,-3.1151,-3.0952,0.0,-3.0818,0.0,0.0,0.0,0.0,0.0,-2.9968,0.0,0.0,0.0,0.0,0.0,0.0,0.0,0.0,0.0,0.0,0.0,0.0,0.0,0.0,0.0,0.0,0.0,0.0,0.0,0.0,0.0,0.0,0.0,0.0,0.0,0.0,0.0,-2.6402,0.0,-2.6219,-2.6391,-2.6893,-2.7785,-2.7796,-2.8122,-2.8865,-2.8583,-2.8391,-2.8326,-2.8517,-2.9223,-3.0417,-3.0571,-3.1305,-3.2382,-3.2382,-3.2382,-3.2382,-3.2382,-3.2382,-3.2382,-3.2247,-3.2865,-3.3966,-3.4546,-3.5183,-3.5688,-2.7696,-2.8072,0.0,0.0,0.0,0.0,0.0,0.0,0.0,0.0,0.0,0.0,0.0,0.0,0.0,0.0,0.0,-3.6694,-3.6592,0.0,-3.0852,0.0,0.0,-2.8619,0.0,0.0,0.0,0.0,0.0,0.0,0.0,0.0,0.0,0.0,0.0,-2.7126,-2.8424,-2.7785,-2.7995,-2.8758,-2.8826,-2.9263,-3.0008,0.0,-3.119,-3.119,-3.119,0.0,0.0,-3.1072,-3.0892,0.0,0.0,0.0,0.0,0.0,0.0,0.0,0.0,0.0,0.0,-2.9026,0.0,0.0,0.0,0.0,-2.6458,0.0,0.0,0.0,0.0,0.0,0.0,-2.463,0.0,0.0,0.0,0.0,0.0,0.0,0.0,0.0,0.0,0.0,0.0,-2.6303,-2.6851,-2.695,-2.6219,-2.6219,-2.6881,-2.8323,-2.7453,-2.7868,-2.975,-2.8494,-2.8131,-2.8701,-2.9027,-2.9608,-3.0417,-3.1059,-3.1736,-3.2382,-3.2382,-3.2382,-3.2382,-3.2382,-3.2382,-3.2382,-3.2247,-3.2534,-3.3089,-3.3578,-3.4572,-3.5688,0.0,0.0,0.0,0.0,0.0,0.0,0.0,-3.1684,0.0,0.0,0.0,0.0,0.0,0.0,-3.8667,0.0,0.0,-3.8352,-3.6897,-3.5115,0.0,0.0,0.0,-3.1286,0.0,0.0,0.0,0.0,0.0,0.0,0.0,0.0,0.0,0.0,0.0,-2.7684,0.0,0.0,0.0,0.0,0.0,-2.9571,-3.0008,0.0,0.0,-3.1092,-3.1171,-3.119,0.0,-3.1151,-3.0952,-3.0729,-3.077,-3.0543,-3.029,-3.0333,-3.0312,0.0,0.0,0.0,-3.0161,-2.9686,0.0,0.0,0.0,0.0,0.0,0.0,0.0,0.0,0.0,0.0,-2.55,-2.5292,-2.5435,0.0,0.0,0.0,0.0,0.0,0.0,0.0,0.0,0.0,0.0,-2.4812,-2.5441,-2.574,0.0,-2.5655,-2.6344,-2.7647,-2.7205,-2.7474,-2.8602,-2.8389,-2.8253,-2.8259,-2.8425,-2.9179,-3.0417,-3.0632,-3.1366,-3.2382,-3.2382,-3.2382,-3.2382,-3.2302,-3.2274,-3.2247,-3.2025,-3.2276,-3.2823,-3.2975,-3.3848,-3.4956,-2.9435,0.0,0.0,0.0,0.0,0.0,0.0,0.0,0.0,0.0,-3.6389,0.0,-4.046,0.0,-4.0257,0.0,-4.1136,-3.9943,-3.7743,-3.684,0.0,-3.2801,-3.3152,0.0,0.0,0.0,0.0,0.0,0.0,-2.8605,0.0,0.0,0.0,0.0,0.0,0.0,0.0,0.0,-2.8226,0.0,0.0,-2.9688,0.0,0.0,-3.0912,-3.1032,0.0,-3.119,-3.119,-3.1151,-3.0972,-3.079,-3.0831,-3.0605,-3.03,-3.0417,-3.0363,-3.0279,-3.029,-3.0333,0.0,-3.0141,-2.9062,0.0,-2.8147,0.0,0.0,0.0,0.0,0.0,0.0,0.0,0.0,-2.5629,-2.5597,-2.5278,0.0,-2.4158,0.0,0.0,0.0,0.0,0.0,0.0,-2.5142,-2.4397,-2.4794,-2.5158,0.0,0.0,-2.5975,-2.7024,-2.6616,-2.6932,-2.8031,-2.7899,-2.7959,-2.8259,-2.8675,-2.9373,-3.0417,-3.0878,-3.1582,-3.2382,-3.2382,-3.2355,-3.233,-3.2247,-3.2163,-3.2137,-3.1883,-3.204,-3.2403,-3.2555,-3.3426,-3.4623,0.0,0.0,0.0,0.0,-3.0243,0.0,0.0,0.0,-3.6728,0.0,-3.8159,-3.9343,-4.0265,-4.0899,-4.1542,-4.2286,-4.2286,0.0,-3.9174,-3.8362,0.0,0.0,-3.3558,-3.2848,-3.1292,0.0,0.0,0.0,0.0,0.0,0.0,0.0,0.0,0.0,-2.9065,0.0,-2.7444,-2.83,-2.8315,-2.7957,-2.9087,-2.9589,-2.9669,-3.0232,0.0,-3.1012,-3.1131,-3.119,-3.1171,-3.1052,-3.0972,-3.0871,-3.0749,-3.0593,-3.0489,-3.0489,-3.0489,-3.0468,-3.0438,-3.0384,-3.0309,-3.0215,0.0,0.0,0.0,0.0,-2.7843,0.0,0.0,0.0,0.0,0.0,0.0,-2.5759,-2.5629,-2.5153,0.0,0.0,0.0,0.0,0.0,0.0,0.0,-2.557,-2.5601,-2.479,-2.4873,0.0,0.0,0.0,-2.5848,-2.6562,-2.5811,-2.6243,-2.8012,-2.7099,-2.7321,-2.8654,-2.949,-3.006,-3.0448,-3.1709,-3.2321,-3.2382,-3.2355,-3.233,-3.2191,-3.2163,-3.2137,-3.1968,-3.1856,-3.1799,-3.1891,-3.2377,-3.3365,-3.4563,-3.0975,-3.1321,-3.1827,0.0,-3.0852,-3.1123,0.0,0.0,0.0,0.0,-3.9445,-4.0324,-4.3876,-4.2929,-4.232,-4.3064,-4.2117,0.0,0.0,0.0,0.0,-3.5126,-3.5622,-3.4697,-3.209,-3.2544,0.0,-2.9837,0.0,0.0,-2.9618,0.0,0.0,0.0,0.0,0.0,-2.7419,-2.868,-2.8934,-2.8541,-2.8662,-2.909,0.0,0.0,-3.0229,-3.081,-3.0932,-3.1012,-3.1052,-3.0952,-3.0912,-3.0871,-3.0749,-3.0593,-3.0489,-3.0489,-3.0489,-3.0489,-3.0468,-3.0071,-2.9786,-3.021,-2.9235,-2.8306,0.0,0.0,0.0,0.0,0.0,0.0,0.0,0.0,0.0,0.0,0.0,0.0,0.0,0.0,0.0,0.0,0.0,0.0,-2.3996,-2.3752,-2.3276,-2.2567,-2.3457,0.0,0.0,0.0,0.0,-2.6272,-2.6404,-2.671,-2.7186,-2.7296,-2.7585,-2.8033,-2.8248,-2.9047,-3.0256,-3.0487,-3.1189,-3.2247,-3.2135,-3.2081,-3.2053,-3.194,-3.1855,-3.1826,-3.1655,-3.1868,-3.2406,-3.3006,-3.3455,-3.3844,-3.3086,0.0,0.0,-3.3715,0.0,0.0,-3.5272,0.0,0.0,-4.0257,-4.0561,0.0,-4.3031,-4.2963,-4.2692,-4.2455,-4.1677,0.0,0.0,0.0,0.0,-3.6197,-3.5893,-3.4866,-3.2814,-3.2848,0.0,-3.0581,0.0,0.0,-2.9979,0.0,0.0,0.0,0.0,-2.89,0.0,-2.8182,-2.8615,-2.8628,-2.8158,0.0,0.0,-2.9397,-2.9576,-2.9736,-3.0129,-3.053,-3.0952,-3.0851,-3.081,-3.079,-3.0634,-3.0551,-3.0489,-3.0489,-3.0489,-3.0489,-3.0489,-3.0191,-2.9893,-2.9951,-2.9105,-2.8359,-2.8615,-2.8135,-2.7558,0.0,0.0,0.0,0.0,0.0,0.0,0.0,0.0,0.0,0.0,0.0,0.0,0.0,0.0,0.0,-2.3987,-2.3161,-2.2573,-2.2522,0.0,0.0,0.0,0.0,0.0,-2.5826,-2.686,-2.714,-2.6598,-2.7758,-2.8162,-2.779,-2.8092,-2.8914,-3.0125,-3.0323,-3.1049,-3.2137,-3.2053,-3.1968,-3.1912,-3.1856,-3.1771,-3.1655,-3.1539,-3.1899,-3.2557,-3.2916,-3.3245,-3.3634,0.0,0.0,0.0,0.0,0.0,0.0,0.0,-3.7821,0.0,-4.0079,0.0,-4.1813,-4.0519,-4.2016,-4.2625,-4.1305,0.0,-4.0764,-4.0146,-3.9503,-3.8488,-3.7032,-3.5577,-3.437,-3.3423,-3.2699,0.0,0.0,0.0,0.0,0.0,0.0,0.0,0.0,0.0,0.0,0.0,-2.764,-2.8048,0.0,-2.7692,-2.7825,-2.8538,-2.8907,-2.8774,-2.8475,-2.9052,-2.9856,-3.0583,-3.0529,-3.0542,-3.0555,-3.0497,-3.0489,-3.0489,-3.0489,-3.0489,-3.0489,-3.039,-3.029,-3.0059,-2.945,-2.8754,-2.8257,-2.824,-2.766,-2.7259,-2.7807,-2.782,-2.7571,0.0,0.0,0.0,0.0,0.0,0.0,0.0,0.0,0.0,0.0,0.0,0.0,0.0,-2.332,0.0,0.0,0.0,0.0,0.0,0.0,0.0,-2.54,-2.7063,0.0,-2.6646,0.0,-2.8828,-2.8137,-2.857,-2.9199,-2.9997,-3.0637,-3.1304,-3.1968,-3.194,-3.1855,-3.1771,-3.1771,-3.1655,-3.1511,-3.1511,-3.1899,-3.2527,-3.2527,-3.2886,-3.3544,0.0,0.0,0.0,0.0,0.0,-3.9005,-4.0223,-4.002,-4.0045,-4.0899,-4.1745,-4.2185,-4.1914,-4.1711,-4.1474,-4.1238,-4.0629,0.0,0.0,0.0,0.0,-3.7787,-3.6897,-3.5453,-3.3457,-3.2699,-3.1955,0.0,0.0,0.0,0.0,0.0,0.0,0.0,0.0,0.0,-2.8926,-2.9032,0.0,-2.8424,-2.7636,-2.7769,-2.8458,-2.7864,-2.7959,-2.8409,-2.8542,-2.8699,-2.8976,-2.9477,-2.9696,-2.9876,-3.0332,-3.0489,-3.0489,-3.0489,-3.0489,-3.0357,-2.9761,-2.9185,-2.874,-2.8608,-2.8044,-2.7647,-2.8224,-2.7774,-2.7278,-2.7392,-2.6943,-2.6642,-2.6996,0.0,0.0,0.0,0.0,0.0,0.0,0.0,0.0,0.0,0.0,0.0,0.0,0.0,0.0,0.0,0.0,0.0,0.0,0.0,0.0,0.0,0.0,0.0,0.0,0.0,-2.8947,-2.9858,-2.9048,-2.9068,-2.9833,-3.0361,-3.1022,-3.1828,-3.1655,-3.1568,-3.1539,-3.1539,-3.1539,-3.1511,-3.1511,-3.1899,-3.2527,-3.2527,-3.2557,-3.2796,0.0,0.0,0.0,0.0,0.0,0.0,0.0,-4.2178,0.0,-4.1813,-4.2083,-4.2016,-4.1238,-4.1508,-4.1441,-4.0696,-4.0316,-4.0113,-4.0113,-3.974,-3.9039,-3.7956,-3.6806,0.0,-3.3457,-3.2699,-3.1955,-3.119,0.0,0.0,0.0,0.0,0.0,0.0,0.0,-2.8563,0.0,0.0,0.0,-2.7765,-2.7072,-2.7008,-2.7359,-2.7319,-2.7282,-2.7296,-2.768,-2.7599,-2.7518,-2.892,-2.9437,-2.9609,-3.0278,-3.0489,-3.0489,-3.0489,-3.0224,-2.986,-2.9496,-2.892,-2.831,-2.7912,-2.7547,-2.7282,-2.7263,-2.7282,-2.7282,-2.7282,-2.7017,-2.6697,-2.6554,-2.6724,0.0,0.0,0.0,0.0,0.0,0.0,0.0,0.0,0.0,0.0,0.0,0.0,0.0,0.0,0.0,0.0,0.0,0.0,0.0,0.0,0.0,0.0,0.0,0.0,0.0,-2.8905,-2.8707,-2.8989,-2.9729,-3.025,-3.0909,-3.1626,-3.1539,-3.1511,-3.1511,-3.1511,-3.1511,-3.1511,-3.1511,-3.1899,-3.2437,-3.2108,-3.2647,-3.3574,0.0,-3.9765,0.0,0.0,-4.112,0.0,-4.2455,-4.3735,-4.4107,-4.2726,-4.2523,-4.1982,-4.0468,-4.1373,-4.1542,-4.0214,-4.0113,-4.0113,-4.0113,-3.9571,-3.8836,-3.7956,-3.6411,-3.489,-3.3423,-3.251,-3.1698,0.0,0.0,0.0,0.0,0.0,0.0,0.0,0.0,0.0,0.0,0.0,-2.7145,-2.6928,-2.6474,-2.6294,-2.6343,-2.6869,-2.67,-2.6303,-2.6851,-2.6766,-2.6733,-2.8588,-2.9185,-2.935,-3.0224,-3.0489,-3.0456,-3.0323,-2.986,-2.933,-2.9052,-2.8575,-2.7978,-2.7249,-2.7083,-2.6917,-2.6336,-2.6634,-2.7083,-2.7083,-2.7083,-2.6914,-2.6341,-2.6531,0.0,0.0,0.0,0.0,0.0,0.0,0.0,0.0,0.0,0.0,0.0,0.0,0.0,0.0,0.0,0.0,0.0,0.0,0.0,0.0,0.0,-2.8516,-2.6995,0.0,-2.967,0.0,-2.8625,-2.9086,-2.9621,-3.0372,-3.1002,-3.1511,-3.1511,-3.1511,-3.1511,-3.166,-3.172,-3.172,-3.172,-3.2019,-3.2407,-3.175,-3.2527,-3.3873,0.0,0.0,0.0,0.0,0.0,0.0,0.0,-4.4045,-4.4282,-4.3436,-4.3301,-4.276,-4.1271,-4.1238,-4.0967,-4.018,-4.0113,-4.0113,-4.0113,-4.0045,-3.9368,-3.7956,-3.6411,-3.489,-3.3423,-3.2002,-3.0954,0.0,0.0,0.0,0.0,0.0,0.0,0.0,0.0,0.0,0.0,-2.7441,-2.6972,-2.6285,-2.6236,-2.6203,-2.6203,-2.627,-2.6252,-2.6219,-2.6303,-2.67,-2.7315,-2.821,-2.8508,-2.874,-3.0059,-3.0489,-3.0357,-2.9694,-2.943,-2.9118,-2.7845,-2.7448,-2.7216,-2.6501,-2.6285,-2.6285,-2.6219,-2.6252,-2.6285,-2.6285,-2.6285,-2.6465,-2.6916,-2.6609,-2.6429,0.0,0.0,0.0,0.0,0.0,0.0,0.0,0.0,0.0,0.0,0.0,0.0,0.0,0.0,0.0,0.0,0.0,0.0,-2.5839,0.0,-2.8305,-2.9532,-2.8876,0.0,-3.0037,-2.9686,-2.9562,-2.9651,-3.0853,-3.1451,-3.1511,-3.1511,-3.1511,-3.154,-3.2138,-3.2407,-3.2407,-3.2407,-3.2437,-3.2407,-3.175,-3.163,-3.1959,0.0,0.0,0.0,0.0,0.0,0.0,0.0,-4.4384,-4.4479,-4.4147,-4.3707,-4.2834,-4.1373,-4.1204,-4.0899,-4.018,-4.0113,-4.0113,-4.0113,-3.9706,-3.8971,-3.7956,-3.6411,-3.489,-3.3423,-3.2374,-3.1258,0.0,0.0,0.0,0.0,0.0,0.0,0.0,0.0,-2.7186,-2.7304,-2.6854,-2.6486,-2.6185,-2.6185,-2.6185,-2.6185,-2.6185,-2.6185,-2.6252,-2.67,-2.705,-2.7448,-2.8622,-2.8986,-2.9185,-3.0158,-3.0489,-3.0357,-2.9628,-2.9118,-2.8555,-2.758,-2.6984,-2.6568,-2.6252,-2.6185,-2.6185,-2.6185,-2.6866,-2.7396,-2.6932,-2.6851,-2.6932,-2.7193,-2.6958,-2.6708,0.0,0.0,0.0,0.0,0.0,0.0,0.0,0.0,0.0,0.0,0.0,0.0,0.0,0.0,0.0,0.0,0.0,0.0,-2.5507,0.0,-2.7198,-2.7911,-2.856,-2.9011,-2.9282,-2.9853,-3.0133,-3.0163,-3.1062,-3.1511,-3.154,-3.1929,-3.2079,-3.2108,-3.2378,-3.2527,-3.2437,-3.2049,-3.1899,-3.1899,-3.2049,-3.2348,-3.2826,-4.4769,0.0,-4.3319,0.0,-4.367,-4.3362,-4.4445,-4.4615,-4.4445,-4.4005,-4.3436,-4.2692,-4.1644,-4.1339,-4.0899,-4.018,-4.0113,-4.0011,-3.9808,-3.9276,-3.8464,-3.728,-3.5971,0.0,-3.3119,-3.2138,-3.1021,-2.977,-3.0085,0.0,0.0,0.0,0.0,0.0,-2.677,-2.6703,-2.6954,-2.6438,-2.6221,-2.6185,-2.6185,-2.6185,-2.6185,-2.6185,-2.6185,-2.6303,-2.705,-2.7448,-2.7779,-2.8754,-2.9383,-2.9794,-3.0323,-3.0357,-3.0026,-2.9317,-2.8641,-2.7912,-2.7182,-2.6601,-2.6185,-2.6185,-2.6185,-2.6252,-2.6468,-2.7348,-2.7912,-2.7415,-2.7116,-2.6984,-2.6984,-2.691,-2.6708,-2.6285,0.0,0.0,0.0,0.0,0.0,0.0,0.0,-2.599,-2.6008,0.0,0.0,0.0,0.0,0.0,0.0,0.0,0.0,0.0,0.0,0.0,0.0,-2.85,-2.9031,-2.8906,-2.9983,-3.0492,-3.0522,-3.1391,-3.178,-3.1839,-3.2527,-3.2796,-3.2826,-3.3006,-3.2976,-3.2766,-3.2258,-3.2079,-3.2108,-3.2378,-3.2916,-3.3604,-4.5427,-4.483,-4.4389,-4.5147,-4.4872,-4.4581,-4.4615,-4.4615,-4.4073,-4.2523,-4.232,-4.2286,-4.2286,-4.1644,-4.0899,-4.018,-4.0113,-3.9808,-3.9039,-3.9005,-3.799,0.0,0.0,-3.3816,-3.2361,-3.0886,-2.977,-2.901,0.0,0.0,-2.752,0.0,-2.8049,-2.7411,-2.7411,-2.6978,-2.6312,-2.6312,-2.6259,-2.6185,-2.6185,-2.6185,-2.6185,-2.6185,-2.6185,-2.6303,-2.705,-2.7779,-2.8376,-2.8409,-2.935,-3.0489,-3.0489,-2.9992,-2.9264,-2.8608,-2.7879,-2.7149,-2.6402,-2.6219,-2.6185,-2.6185,-2.6185,-2.6402,-2.7116,-2.7282,-2.7315,-2.7282,-2.67,-2.6219,-2.6219,-2.6219,-2.6219,-2.6185,0.0,0.0,0.0,0.0,0.0,0.0,-2.5936,-2.5917,-2.6008,0.0,0.0,0.0,0.0,0.0,0.0,0.0,0.0,-2.753,-2.6611,0.0,-2.9254,-2.8837,-2.8936,-2.9621,-3.0193,-3.0492,-3.0552,-3.1898,-3.2497,-3.2527,-3.3215,-3.3484,-3.3544,-3.4204,-3.4114,-3.3484,-3.3484,-3.3484,-3.3395,-3.2736,-3.2916,-3.3604,-4.6989,-4.6488,-4.5987,-4.5865,-4.501,-4.4202,-4.383,-4.3369,-4.2888,-4.2354,-4.1847,-4.1542,-4.1542,-4.0865,-4.0383,0.0,-3.9639,-3.9242,0.0,-3.8082,-3.7202,-3.6434,-3.4709,-3.3525,-3.3051,-3.1123,-2.9698,-2.8848,0.0,0.0,0.0,-2.757,-2.7267,-2.6571,-2.6571,-2.6438,-2.6239,-2.6239,-2.6221,-2.6185,-2.6185,-2.6185,-2.6252,-2.6785,-2.695,-2.7116,-2.829,-2.8887,-2.9152,-2.9682,-3.0145,-3.0489,-3.0489,-2.9992,-2.9363,-2.9152,-2.8243,-2.7249,-2.7017,-2.6568,-2.6185,-2.6185,-2.6185,-2.6402,-2.7116,-2.768,-2.8177,-2.8622,-2.776,-2.7116,-2.7613,-2.6866,-2.6185,-2.6185,-2.6185,0.0,0.0,0.0,0.0,0.0,0.0,-2.5917,0.0,-2.5899,0.0,0.0,0.0,0.0,0.0,0.0,0.0,0.0,-2.7456,0.0,-2.9285,-2.9713,-3.0013,-3.0223,-3.133,-3.2108,-3.2527,-3.2527,-3.2766,-3.3215,-3.3873,-3.4173,-3.4204,-3.4414,-3.4384,-3.4114,-3.3185,-3.3095,-3.3455,-3.3275,-3.3604,-3.4294,-4.7699,-4.7024,-4.6349,-4.6012,-4.4876,-4.3885,-4.3563,-4.3126,-4.2714,-4.2439,-4.1877,-4.1375,-4.1103,-4.0485,0.0,-4.0113,-3.9436,-3.887,-3.8599,-3.7472,-3.6558,-3.5983,-3.4303,-3.3152,-3.2577,0.0,0.0,-2.841,-2.8104,-2.7644,-2.7065,-2.7011,-2.676,-2.631,-2.6274,-2.6257,-2.6257,-2.6203,-2.6185,-2.6185,-2.6185,-2.6369,-2.6667,-2.7116,-2.7448,-2.7845,-2.8986,-2.9397,-2.9463,-2.9926,-3.0257,-3.0456,-3.0158,-2.9761,-2.9397,-2.9397,-2.839,-2.7282,-2.7282,-2.6766,-2.6185,-2.6185,-2.6185,-2.6468,-2.7481,-2.8276,-2.882,-2.8986,-2.8111,-2.7348,-2.7528,-2.6833,-2.6185,-2.6185,-2.6185,-2.6168,-2.6132,0.0,0.0,0.0,0.0,0.0,0.0,-2.5954,0.0,0.0,0.0,0.0,0.0,0.0,0.0,-2.7879,-2.8383,0.0,-3.0328,-3.067,-3.0865,-3.0883,-3.1988,-3.2856,-3.3484,-3.3335,-3.3484,-3.3903,-3.4562,-3.4711,-3.4533,-3.4773,-3.4412,-3.3694,-3.3095,-3.2976,-3.3125,-3.3125,-3.3694,-3.4563,-4.7533,-4.6543,0.0,0.0,-4.4597,0.0,-4.3641,-4.3571,-4.329,-4.2612,-4.2137,-4.1585,-4.0871,-4.0427,-4.0138,-4.0113,0.0,0.0,0.0,-3.7144,-3.6084,-3.4641,-3.3829,-3.2747,-3.1393,-2.9822,-2.8586,-2.7722,-2.696,-2.6571,-2.6502,-2.6502,-2.6502,-2.6485,-2.6365,-2.6329,-2.6312,-2.6239,-2.6236,-2.6303,-2.6303,-2.6733,-2.7381,-2.7415,-2.7879,-2.8575,-2.9251,-2.9463,-2.9463,-2.9463,-2.9926,-3.039,-2.9694,-2.9463,-2.9463,-2.9463,-2.8489,-2.7381,-2.7381,-2.6866,-2.6318,-2.6219,-2.6285,-2.67,-2.8011,-2.892,-2.9284,-2.8542,-2.7845,-2.7149,-2.6402,-2.6219,-2.6185,-2.6185,-2.6185,-2.6168,-2.6026,0.0,0.0,0.0,0.0,0.0,0.0,-2.6041,-2.611,0.0,0.0,0.0,0.0,0.0,-2.7912,-2.9443,-2.9468,-3.0315,-3.2094,-3.1694,-3.1555,-3.1688,-3.2347,-3.3006,-3.3696,-3.4204,-3.4503,-3.4623,-3.513,-3.507,-3.4623,-3.519,-3.4352,-3.2766,-3.3335,-3.3215,-3.2676,-3.2677,-3.3455,-3.4563,0.0,0.0,-4.5981,-4.4971,-4.4569,-4.4037,-4.3009,-4.2389,-4.1955,-4.178,-4.1655,-4.1394,-4.0884,-4.0683,-4.05,-4.0138,-3.8903,-3.8091,-3.7922,-3.6637,-3.5701,-3.5385,-3.4078,-3.3254,-3.2882,-3.0311,-2.8333,-2.6962,-2.6673,-2.6537,-2.6589,-2.652,-2.6502,-2.6502,-2.6468,-2.6399,-2.6279,-2.6294,-2.6573,-2.705,-2.705,-2.7481,-2.821,-2.8721,-2.9019,-2.9251,-2.9959,-3.0224,-3.0224,-3.0224,-3.0357,-3.0456,-3.029,-3.0224,-3.0224,-3.0224,-2.9251,-2.8144,-2.8144,-2.8011,-2.7613,-2.6483,-2.7065,-2.7812,-2.7613,-2.8953,-2.9914,-2.8641,-2.8243,-2.7912,-2.7182,-2.6568,-2.6185,-2.6185,-2.6185,-2.6185,-2.6168,-2.6063,0.0,0.0,-2.6484,-2.6615,-2.6041,-2.6594,-2.6869,0.0,0.0,0.0,0.0,-2.9673,-3.0346,-3.0257,-3.1453,-3.2119,-3.2088,-3.2129,-3.2696,-3.3747,-3.3871,-3.4575,-3.5676,-3.4331,-3.4292,-3.522,-3.4352,-3.4472,-3.525,-3.4861,-3.4741,-3.4771,-3.4382,-3.4472,-3.4741,-3.4203,-3.4532,-3.525,-4.5381,-4.5345,-4.5156,-4.4443,-4.4043,-4.3586,-4.2852,-4.2403,-4.2139,-4.2139,-4.1952,-4.1652,-4.1162,-4.0943,-4.0587,-4.0163,-3.8734,-3.7922,-3.7922,-3.6445,-3.543,-3.5115,-3.4032,-3.3085,-3.2408,-3.0161,-2.8231,-2.6691,-2.664,-2.6606,-2.664,-2.6606,-2.6589,-2.6589,-2.6571,-2.6687,-2.6954,-2.6918,-2.7299,-2.7911,-2.7854,-2.8268,-2.8965,-2.9304,-2.9595,-2.9959,-3.0357,-3.0489,-3.0489,-3.0489,-3.0489,-3.0489,-3.0489,-3.0489,-3.0489,-3.0489,-2.9715,-2.8787,-2.8475,-2.8409,-2.821,-2.7396,-2.8025,-2.8754,-2.8357,-2.9417,-3.0112,-2.8707,-2.8409,-2.8097,-2.7038,-2.6504,-2.6221,-2.631,-2.6257,-2.6185,-2.6185,-2.6063,0.0,-2.6469,-2.6864,-2.7081,-2.7104,-2.751,-2.7684,-2.744,0.0,0.0,-2.9571,-3.1462,-3.2221,-3.1537,-3.2722,-3.3266,-3.3066,-3.2967,-3.3568,-3.4844,-3.4576,-3.5126,-3.6352,-3.5027,-3.4801,-3.5459,-3.4741,-3.4472,-3.4622,-3.4831,-3.4622,-3.4143,-3.4382,-3.4563,-3.4532,-3.4173,-3.4472,-3.504,-4.4947,-4.4476,-4.4041,-4.3932,-4.3425,-4.3046,-4.2937,-4.2901,-4.2901,-4.2901,-4.2537,-4.2118,-4.1674,-4.1253,-4.0825,-4.0353,-3.9006,-3.8095,-3.7922,-3.6445,-3.5295,-3.4675,-3.3964,-3.2949,-3.1562,-2.989,-2.8231,-2.6691,-2.6691,-2.6691,-2.6691,-2.6691,-2.6691,-2.6691,-2.664,-2.7027,-2.77,-2.7646,-2.8095,-2.8862,-2.8734,-2.9129,-2.9782,-2.9643,-3.0,-3.0551,-3.0531,-3.0531,-3.0531,-3.0531,-3.051,-3.0489,-3.0489,-3.0489,-3.0489,-3.051,-3.0079,-2.9417,-2.874,-2.8475,-2.8409,-2.8542,-2.8986,-2.9363,-2.9284,-2.9893,-3.0112,-2.8707,-2.8428,-2.8035,-2.6729,-2.6376,-2.6325,-2.6584,-2.6394,-2.6236,-2.6369,0.0,-2.644,-2.7067,-2.7429,-2.7863,-2.8489,-2.874,-2.8873,-2.8873,-3.0013,-3.0754,0.0,-3.2762,-3.3557,-3.305,-3.3624,-3.4105,-3.4338,-3.3988,-3.4424,-3.5697,-3.5186,-3.5521,-3.6508,-3.5698,-3.5407,-3.5489,-3.519,-3.4532,-3.3724,-3.4771,-3.4262,-3.2916,-3.4084,-3.4174,-3.3664,-3.3754,-3.4083,-3.4503,-4.3408,-4.3715,-4.3896,-4.3208,-4.3534,-4.3679,-4.301,-4.2901,-4.2901,-4.2901,-4.2844,-4.2596,-4.2118,-4.2015,-4.1782,-4.1343,-4.0147,-3.8984,-3.798,-3.6445,-3.5532,-3.543,-3.4709,-3.3931,-3.3085,-3.0398,-2.8231,-2.6691,-2.6691,-2.6691,-2.6691,-2.6691,-2.6691,-2.6691,-2.6674,-2.7079,-2.77,-2.77,-2.8434,-2.9632,-2.9613,-3.0048,-3.0684,-3.0529,-3.0649,-3.0831,-3.0729,-3.0688,-3.0688,-3.0688,-3.0572,-3.0489,-3.0489,-3.0489,-3.051,-3.0647,-3.0506,-3.0158,-2.943,-2.882,-2.8542,-2.9118,-2.9297,-2.9231,-2.8655,-2.9549,-3.0112,-2.8752,-2.8472,-2.8244,-2.7538,-2.6869,-2.6633,-2.7163,-2.6712,-2.6476,-2.7068,0.0,-2.7131,-2.7263,-2.8867,-2.9773,-2.9297,-3.0357,-3.1085,-3.1085,-3.1317,-3.1979,-3.3226,-3.3591,-3.4021,-3.4518,-3.4651,-3.4791,-3.4949,-3.4976,-3.5672,-3.6989,-3.697,-3.7051,-3.7174,-3.5393,-3.4911,-3.54,-3.3724,-3.3484,-3.4324,-3.3963,-3.3963,-3.4234,-3.4414,-3.4444,-3.4414,-3.4981,-3.4891,-3.4593,-4.2973,-4.3191,-4.3336,-4.2955,-4.3227,-4.3317,-4.2973,-4.2901,-4.2901,-4.2901,-4.2901,-4.2729,-4.2257,-4.2216,-4.1994,-4.1565,-4.0622,-3.9668,-3.8661,-3.7104,-3.5893,-3.5047,-3.4675,-3.3592,-3.1664,-2.9924,-2.8231,-2.6691,-2.6691,-2.6691,-2.6691,-2.7097,-2.7097,-2.6725,-2.7131,-2.7468,-2.7771,-2.8227,-2.9001,-2.9989,-3.03,-3.065,-3.0952,-3.0851,-3.0851,-3.0892,-3.0831,-3.077,-3.0708,-3.0708,-3.0593,-3.051,-3.0572,-3.0593,-3.0613,-3.077,-3.0429,-3.0028,-3.0013,-2.9483,-2.9118,-2.9827,-2.9992,-2.9893,-2.9615,-3.0087,-3.0314,-2.929,-2.9148,-2.8891,-2.783,-2.7342,-2.7224,-2.7561,-2.692,0.0,0.0,-2.7992,-2.8215,-2.8939,-3.0257,-3.1118,-3.1172,-3.1802,-3.2199,-3.2199,-3.2564,-3.3094,-3.3756,-3.4187,-3.4551,-3.4883,-3.4956,-3.4984,-3.5053,-3.555,-3.631,-3.7242,-3.6979,-3.7057,-3.7354,-3.5707,-3.5177,-3.5459,-3.4532,-3.4053,-3.3994,-3.4024,-3.3784,-3.3484,-3.4234,-3.4503,-3.4533,-3.4863,-3.4981,-3.5011,-4.2901,-4.2901,-4.2901,-4.2901,-4.2901,-4.2901,-4.2901,-4.2901,-4.2901,-4.2901,-4.2901,-4.2768,-4.2398,-4.2358,-4.2236,-4.1867,-4.1033,-4.0193,-3.9417,-3.7945,-3.6466,-3.5121,-3.481,-3.3352,-3.0564,-2.9844,-2.8671,-2.6962,-2.7131,-2.725,-2.725,-2.7807,-2.7774,-2.7266,-2.7841,-2.8162,-2.8365,-2.8991,-2.9668,-3.0393,-3.0856,-3.1052,-3.1052,-3.0952,-3.0952,-3.0972,-3.0932,-3.0871,-3.079,-3.079,-3.0675,-3.0593,-3.0729,-3.0749,-3.077,-3.0871,-3.045,-2.9996,-3.0398,-3.0092,-2.9814,-3.0398,-3.0531,-3.0518,-3.0373,-3.0555,-3.0536,-2.9822,-2.9747,-2.9508,-2.8459,-2.807,-2.8019,-2.8243,0.0,0.0,0.0,-2.9235,-2.9669,-3.0684,-3.157,-3.2332,-3.2917,-3.3116,-3.3282,-3.3425,-3.3822,-3.4121,-3.4286,-3.4684,-3.4883,-3.4883,-3.4939,-3.5071,-3.5233,-3.5746,-3.6478,-3.7438,-3.685,-3.687,-3.7354,-3.623,-3.5539,-3.525,-3.51,-3.4352,-3.3305,-3.3814,-3.3425,-3.2617,-3.3634,-3.4144,-3.4264,-3.4264,-3.4681,-3.519,-4.2901,-4.2901,-4.2901,-4.2901,-4.2901,-4.2901,-4.2901,-4.2901,-4.2901,-4.2901,-4.2901,-4.2882,-4.2844,-4.2844,-4.2844,-4.2806,-4.1681,-4.0622,-3.9912,-3.8642,-3.7551,-3.6766,-3.5729,-3.4042,-3.1733,-3.1253,-2.9939,-2.7722,-2.845,-2.884,-2.884,-2.8874,-2.8874,-2.884,-2.8874,-2.9296,-2.992,-2.9987,-3.0446,-3.1123,-3.1157,-3.119,-3.1171,-3.1052,-3.1072,-3.1151,-3.1052,-3.1012,-3.0992,-3.0992,-3.0932,-3.0871,-3.0892,-3.0892,-3.0892,-3.0892,-3.0858,-3.0764,-3.0551,-3.0456,-3.0464,-3.0634,-3.0708,-3.0529,-2.9995,-3.0403,-3.0677,-3.0017,-2.9868,-2.9907,-2.9935,-2.9364,-2.909,-2.9637,0.0,0.0,-3.0644,-3.1224,-3.1608,-3.1686,-3.2862,-3.3657,-3.369,-3.4319,-3.5015,-3.5711,-3.5181,-3.5114,-3.581,-3.5247,-3.4883,-3.4883,-3.4901,-3.5241,-3.5902,-3.5389,-3.6104,-3.8117,-3.7476,-3.7242,-3.7383,-3.6661,-3.5671,-3.4563,-3.3903,-3.3245,-3.2587,-3.2647,-3.2587,-3.2497,-3.2617,-3.3036,-3.3574,-3.3574,-3.3993,-3.4563,-4.2901,-4.2901,-4.2901,-4.2901,-4.2901,-4.2901,-4.2901,-4.2901,-4.2901,-4.2901,-4.2901,-4.2901,-4.2901,-4.2901,-4.2901,-4.2901,-4.2008,-4.1084,-4.031,-3.9372,-3.8287,-3.6954,-3.6027,-3.4711,-3.2896,-3.2246,-3.1063,-2.9224,-3.0021,-3.016,-2.9693,-3.0419,-3.035,-2.9676,-2.9703,-2.9714,-2.9761,-2.9999,-3.0277,-3.0548,-3.1021,-3.119,-3.119,-3.1151,-3.1151,-3.119,-3.1151,-3.1072,-3.1012,-3.1012,-3.0972,-3.0912,-3.0952,-3.0932,-3.0892,-3.0892,-3.0932,-3.0932,-3.081,-3.0749,-3.077,-3.081,-3.0831,-3.0784,-3.0523,-3.0731,-3.1026,-3.1234,-3.1328,-3.1388,-3.1461,-3.1244,-3.1123,-3.1354,0.0,-3.1072,-3.2119,-3.2436,-3.2684,-3.3018,-3.431,-3.5148,-3.5148,-3.5843,-3.6373,-3.6671,-3.6439,-3.6208,-3.6009,-3.528,-3.4883,-3.4883,-3.5346,-3.5711,-3.6009,-3.6214,-3.6708,-3.7507,-3.7775,-3.7653,-3.7267,-3.6642,-3.6052,-3.5548,-3.4483,-3.3633,-3.3055,-3.2645,-3.2228,-3.1929,-3.2318,-3.2916,-3.3484,-3.3484,-3.4173,-3.504,-4.2901,-4.2901,-4.2901,-4.2901,-4.2901,-4.2901,-4.2901,-4.2901,-4.2901,-4.2901,-4.2901,-4.2901,-4.2901,-4.2665,-4.252,-4.252,-4.1578,-4.0727,-4.0202,-3.9441,-3.8509,-3.7356,-3.6675,-3.5507,-3.374,-3.3301,-3.2211,-3.0434,-3.124,-3.133,-3.0804,-3.148,-3.1358,-3.059,-3.0475,-3.0292,-3.0071,-3.0323,-3.0446,-3.048,-3.0987,-3.119,-3.119,-3.119,-3.119,-3.119,-3.119,-3.1151,-3.1072,-3.1072,-3.1032,-3.0992,-3.1052,-3.1012,-3.0932,-3.0932,-3.0972,-3.1012,-3.0952,-3.0972,-3.0992,-3.0952,-3.112,-3.1221,-3.1059,-3.1402,-3.1813,-3.2103,-3.2435,-3.2666,-3.2666,-3.2666,-3.2666,-3.2666,-3.2611,-3.282,-3.3446,-3.3829,-3.4219,-3.4559,-3.5428,-3.6108,-3.634,-3.6804,-3.7201,-3.7433,-3.7235,-3.687,-3.6373,-3.5446,-3.5015,-3.5247,-3.5512,-3.5777,-3.6009,-3.6738,-3.7003,-3.6746,-3.757,-3.7666,-3.7159,-3.6349,-3.5883,-3.5618,-3.4294,-3.3387,-3.2778,-3.2374,-3.1899,-3.154,-3.2019,-3.2736,-3.3455,-3.3275,-3.4173,-3.54,-4.2901,-4.2901,-4.2901,-4.2901,-4.2901,-4.2901,-4.2901,-4.2901,-4.2901,-4.2901,-4.2901,-4.2901,-4.2901,-4.2194,-4.1705,-4.1705,-4.0311,-3.9405,-3.9369,-3.8662,-3.8191,-3.8191,-3.7756,-3.6434,-3.4142,-3.4429,-3.3512,-3.1226,-3.1948,-3.2335,-3.2282,-3.1913,-3.1712,-3.1712,-3.1332,-3.119,-3.121,-3.119,-3.119,-3.119,-3.119,-3.119,-3.119,-3.119,-3.119,-3.119,-3.119,-3.119,-3.119,-3.119,-3.119,-3.119,-3.119,-3.1112,-3.1012,-3.1012,-3.1012,-3.1012,-3.1012,-3.1112,-3.1171,-3.1052,-3.1571,-3.1948,-3.134,-3.2341,-3.3186,-3.2462,-3.2882,-3.3423,-3.3423,-3.3423,-3.3423,-3.3423,-3.4653,-3.5385,-3.4607,-3.5609,-3.6386,-3.643,-3.6155,-3.6307,-3.7036,-3.7135,-3.7433,-3.8136,-3.7533,-3.7135,-3.7135,-3.5711,-3.5247,-3.5976,-3.528,-3.528,-3.6009,-3.6738,-3.6738,-3.6009,-3.6771,-3.7157,-3.7155,-3.5896,-3.4986,-3.4351,-3.3064,-3.2138,-3.1511,-3.1511,-3.1511,-3.1511,-3.1511,-3.2318,-3.3425,-3.2766,-3.3784,-3.54,-4.2901,-4.2901,-4.2901,-4.2901,-4.2901,-4.2901,-4.2901,-4.2901,-4.2901,-4.2901,-4.2901,-4.2901,-4.2901,-4.2194,-4.1705,-4.1705,-4.0311,-3.9152,-3.8589,-3.8336,-3.8191,-3.8191,-3.8072,-3.7119,-3.5331,-3.5382,-3.4578,-3.2727,-3.3517,-3.3609,-3.3055,-3.3018,-3.2792,-3.2435,-3.1564,-3.1312,-3.1526,-3.1308,-3.119,-3.119,-3.119,-3.119,-3.119,-3.119,-3.119,-3.119,-3.119,-3.119,-3.119,-3.119,-3.119,-3.119,-3.1092,-3.1112,-3.1131,-3.1032,-3.1072,-3.1151,-3.1151,-3.1543,-3.1968,-3.1894,-3.1692,-3.1692,-3.2544,-3.2679,-3.2869,-3.3681,-3.3998,-3.4336,-3.4856,-3.5419,-3.5814,-3.5814,-3.6129,-3.6512,-3.6723,-3.6619,-3.6683,-3.7123,-3.7561,-3.7886,-3.7985,-3.8484,-3.883,-3.895,-3.8295,-3.7897,-3.7897,-3.697,-3.6539,-3.6771,-3.6572,-3.6539,-3.6771,-3.7003,-3.7003,-3.6804,-3.803,-3.8117,-3.7117,-3.7281,-3.6453,-3.4872,-3.4607,-3.3571,-3.2137,-3.2193,-3.2198,-3.2198,-3.2198,-3.3036,-3.4204,-3.3994,-3.4592,-3.5459,-4.2901,-4.2901,-4.2901,-4.2901,-4.2901,-4.2901,-4.2901,-4.2901,-4.2901,-4.2901,-4.2901,-4.2901,-4.2901,-4.2194,-4.156,-4.1234,-3.9804,-3.8717,-3.8227,-3.8191,-3.8191,-3.8191,-3.8191,-3.7594,-3.629,-3.5965,-3.5152,-3.3864,-3.4045,-3.39,-3.3414,-3.3298,-3.3079,-3.2763,-3.1968,-3.1749,-3.1896,-3.1545,-3.1408,-3.1408,-3.1408,-3.1408,-3.1408,-3.1545,-3.1654,-3.1654,-3.1654,-3.1542,-3.1408,-3.1408,-3.1327,-3.121,-3.1254,-3.1332,-3.1389,-3.1312,-3.1332,-3.1438,-3.1588,-3.1955,-3.2429,-3.3038,-3.2835,-3.2645,-3.3254,-3.3525,-3.3863,-3.4742,-3.5182,-3.5622,-3.6377,-3.6907,-3.7246,-3.7246,-3.7506,-3.7696,-3.7793,-3.761,-3.7629,-3.7968,-3.8363,-3.8681,-3.8872,-3.9339,-3.9528,-3.9395,-3.8671,-3.838,-3.8626,-3.7665,-3.7235,-3.7533,-3.7268,-3.7102,-3.7102,-3.74,-3.74,-3.7135,-3.7996,-3.8129,-3.7507,-3.6873,-3.6221,-3.5499,-3.4781,-3.3783,-3.2683,-3.2534,-3.2458,-3.2459,-3.2496,-3.3155,-3.4144,-3.4414,-3.4921,-3.5519,-4.2901,-4.2901,-4.2901,-4.2901,-4.2901,-4.2901,-4.2901,-4.2901,-4.2901,-4.2901,-4.2901,-4.2901,-4.2901,-4.2194,-4.1415,-4.0655,-3.9188,-3.8299,-3.8191,-3.8191,-3.8191,-3.8191,-3.8191,-3.7865,-3.7104,-3.6254,-3.5406,-3.4624,-3.3791,-3.3393,-3.3378,-3.2988,-3.2795,-3.2779,-3.2435,-3.2282,-3.2265,-3.1896,-3.1733,-3.1733,-3.1733,-3.1733,-3.177,-3.2144,-3.2282,-3.2282,-3.2282,-3.2056,-3.1733,-3.1733,-3.1545,-3.1366,-3.162,-3.1712,-3.1712,-3.1675,-3.1657,-3.1754,-3.219,-3.2361,-3.2767,-3.4235,-3.4641,-3.4506,-3.3761,-3.4585,-3.5532,-3.5667,-3.6299,-3.7032,-3.7753,-3.7956,-3.799,-3.799,-3.8565,-3.8768,-3.8193,-3.8501,-3.8832,-3.8908,-3.8807,-3.8992,-3.9636,-3.9703,-3.9651,-3.9528,-3.8894,-3.8716,-3.9309,-3.803,-3.7599,-3.8295,-3.7599,-3.7235,-3.7301,-3.7897,-3.7838,-3.7201,-3.7268,-3.7599,-3.8037,-3.5575,-3.5052,-3.5908,-3.4197,-3.3361,-3.3188,-3.2746,-3.253,-3.2481,-3.2551,-3.2976,-3.3574,-3.4264,-3.4891,-3.5429,-4.2901,-4.2901,-4.2901,-4.2901,-4.2901,-4.2901,-4.2901,-4.2901,-4.2901,-4.2901,-4.2901,-4.2901,-4.2901,-4.2194,-4.1632,-4.1451,-4.0021,-3.8862,-3.8263,-3.8191,-3.8191,-3.8191,-3.8191,-3.8118,-3.7937,-3.6544,-3.5406,-3.4624,-3.3791,-3.3393,-3.3378,-3.2988,-3.2795,-3.2779,-3.2435,-3.2282,-3.2282,-3.2196,-3.2162,-3.2162,-3.2162,-3.2162,-3.2162,-3.2248,-3.2282,-3.2282,-3.2282,-3.2231,-3.2162,-3.2162,-3.2109,-3.2038,-3.1786,-3.1712,-3.1657,-3.1389,-3.1327,-3.1443,-3.211,-3.2713,-3.3525,-3.4991,-3.5825,-3.6084,-3.5295,-3.4912,-3.5081,-3.6265,-3.6694,-3.7032,-3.7753,-3.8362,-3.8768,-3.8768,-3.8903,-3.914,-3.9571,-3.9242,-3.9183,-3.9758,-3.98,-3.9792,-3.9858,-3.9755,-3.9677,-3.9651,-3.9413,-3.9335,-3.9475,-3.907,-3.8917,-3.9083,-3.8361,-3.8228,-3.8818,-3.8427,-3.8103,-3.7996,-3.8526,-3.8295,-3.7367,-3.7305,-3.6299,-3.4586,-3.5207,-3.4595,-3.3245,-3.3653,-3.3575,-3.3154,-3.3194,-3.3333,-3.3574,-3.4264,-3.4593,-3.4771,-4.3032,-4.3032,-4.305,-4.2994,-4.2994,-4.2975,-4.2901,-4.2901,-4.2901,-4.2901,-4.2901,-4.2901,-4.2901,-4.252,-4.2122,-4.1741,-4.0311,-3.9224,-3.8807,-3.8408,-3.8191,-3.8191,-3.8191,-3.8191,-3.8191,-3.6616,-3.5587,-3.5152,-3.3973,-3.3393,-3.3393,-3.3193,-3.3101,-3.3065,-3.2894,-3.2814,-3.2814,-3.2601,-3.2535,-3.2535,-3.2535,-3.2535,-3.2551,-3.275,-3.2814,-3.2814,-3.2814,-3.2718,-3.2502,-3.2351,-3.2162,-3.2003,-3.1986,-3.1842,-3.1675,-3.1504,-3.1447,-3.1647,-3.2571,-3.3119,-3.3761,-3.5228,-3.6197,-3.6795,-3.6705,-3.64,-3.6434,-3.7584,-3.7845,-3.8082,-3.8802,-3.9242,-3.9512,-3.9512,-3.9512,-3.9673,-4.0045,-3.9774,-3.9673,-4.0045,-4.0113,-4.0087,-3.9986,-3.9935,-3.9858,-3.9781,-3.9651,-3.958,-3.9501,-3.9395,-3.9315,-3.9315,-3.8924,-3.8891,-3.9315,-3.8917,-3.8725,-3.8725,-3.8758,-3.856,-3.8129,-3.7466,-3.6554,-3.5545,-3.5527,-3.4951,-3.4018,-3.4098,-3.3836,-3.3294,-3.3388,-3.3268,-3.3155,-3.4113,-3.4713,-3.5011,-4.3214,-4.3196,-4.316,-4.3104,-4.3086,-4.3012,-4.2901,-4.2901,-4.2901,-4.2901,-4.2901,-4.2901,-4.2901,-4.2774,-4.2375,-4.156,-4.0202,-3.9333,-3.9188,-3.8589,-3.8191,-3.8191,-3.8191,-3.8191,-3.8191,-3.6761,-3.5949,-3.5804,-3.419,-3.3393,-3.3393,-3.3393,-3.3393,-3.3393,-3.3393,-3.3393,-3.3378,-3.3034,-3.289,-3.289,-3.289,-3.289,-3.2941,-3.3253,-3.3393,-3.3393,-3.3393,-3.3193,-3.2878,-3.2568,-3.2248,-3.2021,-3.2299,-3.2144,-3.1895,-3.1979,-3.1995,-3.2267,-3.3481,-3.3823,-3.4197,-3.5798,-3.674,-3.7433,-3.8201,-3.8163,-3.8125,-3.8836,-3.9005,-3.9233,-3.9977,-4.0113,-4.0113,-4.0113,-4.0113,-4.0113,-4.0113,-4.0113,-4.0113,-4.0113,-4.0113,-4.0113,-4.0113,-4.0113,-4.0062,-3.9935,-3.9807,-3.9677,-3.958,-3.9448,-3.9362,-3.9362,-3.9362,-3.9362,-3.9362,-3.9369,-3.9342,-3.9309,-3.856,-3.846,-3.8851,-3.7003,-3.6373,-3.6671,-3.5446,-3.4883,-3.4859,-3.4423,-3.3892,-3.3351,-3.3357,-3.2986,-3.2645,-3.3875,-3.4741,-3.534,-4.3214,-4.3142,-4.3104,-4.3104,-4.2994,-4.2901,-4.2901,-4.2901,-4.2901,-4.2901,-4.2901,-4.2901,-4.2901,-4.2266,-4.1524,-4.0727,-3.9876,-3.9079,-3.8408,-3.8263,-3.8191,-3.8191,-3.8191,-3.8191,-3.8191,-3.7321,-3.6508,-3.5804,-3.419,-3.3393,-3.3393,-3.3393,-3.3393,-3.3393,-3.3393,-3.3393,-3.3393,-3.3349,-3.3334,-3.3334,-3.3334,-3.3334,-3.3334,-3.3378,-3.3393,-3.3393,-3.3393,-3.3364,-3.3319,-3.3274,-3.3229,-3.3117,-3.2811,-3.2699,-3.2743,-3.3125,-3.3248,-3.3599,-3.5066,-3.5502,-3.5992,-3.8174,-3.8804,-3.9151,-4.0181,-3.9082,-3.8125,-3.8836,-3.9005,-3.9233,-3.9977,-4.0113,-4.0113,-4.0113,-4.0113,-4.0113,-4.0113,-4.0113,-4.0113,-4.0113,-4.0113,-4.0113,-4.0113,-4.0113,-4.0087,-4.0087,-3.9935,-3.9892,-3.9866,-3.9703,-3.9651,-3.9651,-3.9651,-3.9651,-3.9651,-3.952,-3.9475,-3.9475,-3.8612,-3.793,-3.74,-3.7102,-3.6307,-3.5181,-3.4982,-3.4883,-3.4883,-3.4811,-3.4472,-3.3949,-3.3414,-3.2885,-3.2494,-3.3337,-3.4053,-3.4743,-4.3304,-4.3305,-4.3233,-4.3123,-4.3067,-4.2994,-4.2901,-4.2901,-4.2901,-4.2901,-4.2901,-4.2901,-4.2901,-4.2592,-4.2049,-4.1234,-4.0456,-3.9695,-3.8915,-3.8444,-3.8191,-3.8191,-3.8191,-3.8191,-3.8191,-3.7393,-3.685,-3.6472,-3.5313,-3.4298,-3.3393,-3.3864,-3.3828,-3.3393,-3.3393,-3.3393,-3.3393,-3.3393,-3.3393,-3.3393,-3.3393,-3.3393,-3.3393,-3.3393,-3.3393,-3.3393,-3.3393,-3.3393,-3.3393,-3.3393,-3.3238,-3.3019,-3.2842,-3.2986,-3.3244,-3.3459,-3.3811,-3.4409,-3.5498,-3.613,-3.6818,-3.8219,-3.9238,-4.0003,-4.0485,-4.002,-3.9539,-3.9587,-3.9639,-3.9706,-4.0045,-4.0113,-4.0113,-4.0113,-4.0113,-4.0113,-4.0113,-4.0113,-4.0113,-4.0113,-4.0113,-4.0113,-4.0113,-4.0113,-4.0113,-4.0113,-3.9961,-3.9884,-3.9884,-3.9781,-3.9703,-3.9703,-3.9703,-3.9703,-3.9703,-3.9625,-3.9599,-3.9599,-3.922,-3.8583,-3.7698,-3.687,-3.6141,-3.5479,-3.5081,-3.4883,-3.4883,-3.4883,-3.457,-3.4075,-3.3815,-3.3387,-3.3031,-3.3723,-3.4181,-3.4623]},{"header":{"parameterUnit":"m.s-1","parameterCategory":1,"la1":30.6,"la2":28.766,"lo1":-90.7593,"lo2":-88.6598,"dy":0.0162,"dx":0.0183,"nx":116,"ny":114,"refTime":"2023-07-10T12:00:00:Z","depth":0,"parameterNumber":3,"parameterNumberName":"V-component_of_WINDS"},"data":[0.0,0.0,0.0,0.0,0.0,0.0,0.0,0.0,0.0,0.0,0.0,0.0,0.0,0.0,0.0,0.0,0.0,0.0,0.0,0.0,0.0,0.0,0.0,0.0,0.0,0.0,0.0,0.0,0.0,0.0,0.0,0.0,0.0,0.0,0.0,0.0,0.0,0.0,0.0,0.0,0.0,0.0,0.0,0.0,0.0,0.0,0.0,0.0,0.0,0.0,0.0,0.0,0.0,0.0,0.0,0.0,0.0,0.0,0.0,0.0,0.0,0.0,0.0,0.0,0.0,0.0,0.0,0.0,0.0,0.0,0.0,0.0,0.0,0.0,0.0,0.0,0.0,0.0,0.0,0.0,0.0,0.0,0.0,0.0,0.0,0.0,0.0,0.0,0.0,0.0,0.0,0.0,0.0,0.0,0.0,0.0,0.0,0.0,0.0,0.0,0.0,0.0,0.0,0.0,0.0,0.0,0.0,0.0,0.0,0.0,0.0,0.0,0.0,0.0,0.0,0.0,0.0,0.0,0.0,0.0,0.0,0.0,0.0,0.0,0.0,0.0,0.0,0.0,0.0,0.0,0.0,0.0,0.0,0.0,0.0,0.0,0.0,0.0,0.0,0.0,0.0,0.0,0.0,0.0,0.0,0.0,0.0,0.0,0.0,0.0,0.0,0.0,0.0,0.0,0.0,0.0,0.0,0.0,0.0,0.0,0.0,0.0,0.0,0.0,0.0,0.0,0.0,0.0,0.0,0.0,0.0,0.0,0.0,0.0,0.0,0.0,0.0,0.0,0.0,0.0,0.0,0.0,0.0,0.0,0.0,0.0,0.0,0.0,0.0,0.0,0.0,0.0,0.0,0.0,0.0,0.0,0.0,0.0,0.0,0.0,0.0,0.0,0.0,0.0,0.0,0.0,0.0,0.0,0.0,0.0,0.0,0.0,0.0,0.0,0.0,0.0,0.0,0.0,0.0,0.0,0.0,0.0,0.0,0.0,0.0,0.0,0.0,0.0,0.0,0.0,0.0,0.0,0.0,0.0,0.0,0.0,0.0,0.0,0.0,0.0,0.0,0.0,0.0,0.0,0.0,0.0,0.0,0.0,0.0,0.0,0.0,0.0,0.0,0.0,0.0,0.0,0.0,0.0,0.0,0.0,0.0,0.0,0.0,0.0,0.0,0.0,0.0,0.0,0.0,0.0,0.0,0.0,0.0,0.0,0.0,0.0,0.0,0.0,0.0,0.0,0.0,0.0,0.0,0.0,0.0,0.0,0.0,0.0,0.0,0.0,0.0,0.0,0.0,0.0,0.0,0.0,0.0,0.0,0.0,0.0,0.0,0.0,0.0,0.0,0.0,0.0,0.0,0.0,0.0,0.0,0.0,0.0,0.0,0.0,0.0,0.0,0.0,0.0,0.0,0.0,0.0,0.0,0.0,0.0,0.0,0.0,0.0,0.0,0.0,0.0,0.0,0.0,0.0,0.0,0.0,0.0,0.0,0.0,0.0,0.0,0.0,0.0,0.0,0.0,0.0,0.0,0.0,0.0,0.0,0.0,0.0,0.0,0.0,0.0,0.0,0.0,0.0,0.0,0.0,0.0,0.0,0.0,0.0,0.0,0.0,0.0,0.0,0.0,0.0,0.0,0.0,0.0,0.0,0.0,0.0,0.0,0.0,0.0,0.0,0.0,0.0,0.0,0.0,0.0,0.0,0.0,0.0,0.0,0.0,0.0,0.0,0.0,0.0,0.0,0.0,0.0,0.0,0.0,0.0,0.0,0.0,0.0,0.0,0.0,0.0,0.0,0.0,0.0,0.0,0.0,0.0,0.0,0.0,0.0,0.0,0.0,0.0,0.0,0.0,0.0,0.0,0.0,0.0,0.0,0.0,0.0,0.0,0.0,0.0,0.0,0.0,0.0,0.0,0.0,0.0,0.0,0.0,0.0,0.0,0.0,0.0,0.0,0.0,0.0,0.0,0.0,0.0,0.0,0.0,0.0,0.0,0.0,0.0,0.0,0.0,0.0,0.0,0.0,0.0,0.0,0.0,0.0,0.0,0.0,0.0,0.0,0.0,0.0,0.0,0.0,0.0,0.0,0.0,0.0,0.0,0.0,0.0,0.0,0.0,0.0,0.0,0.0,0.0,0.0,0.0,0.0,0.0,0.0,0.0,0.0,0.0,0.0,0.0,0.0,0.0,0.0,0.0,0.0,0.0,0.0,0.0,0.0,0.0,0.0,0.0,0.0,0.0,0.0,0.0,0.0,0.0,0.0,0.0,0.0,0.0,0.0,0.0,0.0,0.0,0.0,0.0,0.0,0.0,0.0,0.0,0.0,0.0,0.0,0.0,0.0,0.0,0.0,0.0,0.0,0.0,0.0,0.0,0.0,0.0,0.0,0.0,0.0,0.0,0.0,0.0,0.0,0.0,0.0,0.0,0.0,0.0,0.0,0.0,0.0,0.0,0.0,0.0,0.0,0.0,0.0,0.0,0.0,0.0,0.0,0.0,0.0,0.0,0.0,0.0,0.0,0.0,0.0,0.0,0.0,0.0,0.0,0.0,0.0,0.0,0.0,0.0,0.0,0.0,0.0,0.0,0.0,0.0,0.0,0.0,0.0,0.0,0.0,0.0,0.0,0.0,0.0,0.0,0.0,0.0,0.0,0.0,0.0,0.0,0.0,0.0,0.0,0.0,0.0,0.0,0.0,0.0,0.0,0.0,0.0,0.0,0.0,0.0,0.0,0.0,0.0,0.0,0.0,0.0,0.0,0.0,0.0,0.0,0.0,0.0,0.0,0.0,0.0,0.0,0.0,0.0,0.0,0.0,0.0,0.0,0.0,0.0,0.0,0.0,0.0,0.0,0.0,0.0,0.0,0.0,0.0,0.0,0.0,0.0,0.0,0.0,0.0,0.0,0.0,0.0,0.0,0.0,0.0,0.0,0.0,0.0,0.0,0.0,0.0,0.0,0.0,0.0,0.0,0.0,0.0,0.0,0.0,0.0,0.0,0.0,0.0,0.0,0.0,0.0,0.0,0.0,0.0,0.0,0.0,0.0,0.0,0.0,0.0,0.0,0.0,0.0,0.0,0.0,0.0,0.0,0.0,0.0,0.0,0.0,0.0,0.0,0.0,0.0,0.0,0.0,0.0,0.0,0.0,0.0,0.0,0.0,0.0,0.0,0.0,0.0,0.0,0.0,0.0,0.0,0.0,0.0,0.0,0.0,0.0,0.0,0.0,0.0,0.0,0.0,0.0,0.0,0.0,0.0,0.0,0.0,0.0,0.0,0.0,0.0,0.0,0.0,0.0,0.0,0.0,0.0,0.0,0.0,0.0,0.0,0.0,0.0,0.0,0.0,0.0,0.0,0.0,0.0,0.0,0.0,0.0,0.0,0.0,0.0,0.0,0.0,0.0,0.0,0.0,0.0,0.0,0.0,0.0,0.0,0.0,0.0,0.0,0.0,0.0,0.0,0.0,0.0,0.0,0.0,0.0,0.0,0.0,0.0,0.0,0.0,0.0,0.0,0.0,0.0,0.0,0.0,0.0,0.0,0.0,0.0,0.0,0.0,0.0,0.0,0.0,0.0,0.0,0.0,0.0,0.0,0.0,0.0,0.0,0.0,0.0,0.0,0.0,0.0,0.0,0.0,0.0,0.0,0.0,0.0,0.0,0.0,0.0,0.0,0.0,0.0,0.0,0.0,0.0,0.0,0.0,0.0,0.0,0.0,0.0,0.0,0.0,0.0,0.0,0.0,0.0,0.0,0.0,0.0,0.0,0.0,0.0,0.0,0.0,0.0,0.0,0.0,0.0,0.0,0.0,0.0,0.0,0.0,0.0,0.0,0.0,0.0,0.0,0.0,0.0,0.0,0.0,0.0,0.0,0.0,0.0,0.0,0.0,0.0,0.0,0.0,0.0,0.0,0.0,0.0,0.0,0.0,0.0,0.0,0.0,0.0,0.0,0.0,0.0,0.0,0.0,0.0,0.0,0.0,0.0,0.0,0.0,0.0,0.0,0.0,0.0,0.0,0.0,0.0,0.0,0.0,0.0,0.0,0.0,0.0,0.0,0.0,0.0,0.0,0.0,0.0,0.0,0.0,0.0,0.0,0.0,0.0,0.0,0.0,0.0,0.0,0.0,0.0,0.0,0.0,0.0,0.0,0.0,0.0,0.0,0.0,0.0,0.0,0.0,0.0,0.0,0.0,0.0,0.0,0.0,0.0,0.0,0.0,0.0,0.0,0.0,0.0,0.0,0.0,0.0,0.0,0.0,0.0,0.0,0.0,0.0,0.0,0.0,0.0,0.0,0.0,0.0,0.0,0.0,0.0,0.0,0.0,0.0,0.0,0.0,0.0,0.0,0.0,0.0,0.0,0.0,0.0,0.0,0.0,0.0,0.0,0.0,0.0,0.0,0.0,0.0,0.0,0.0,0.0,0.0,0.0,0.0,0.0,0.0,0.0,0.0,0.0,0.0,0.0,0.0,0.0,0.0,0.0,0.0,0.0,0.0,0.0,0.0,0.0,0.0,0.0,0.0,0.0,0.0,0.0,0.0,0.0,0.0,0.0,0.0,0.0,0.0,0.0,0.0,0.0,0.0,0.0,0.0,0.0,0.0,0.0,0.0,0.0,0.0,0.0,0.0,0.0,0.0,0.0,0.0,0.0,0.0,0.0,0.0,0.0,0.0,0.0,0.0,0.0,0.0,0.0,0.0,0.0,0.0,0.0,0.0,0.0,0.0,0.0,0.0,0.0,0.0,0.0,0.0,0.0,0.0,0.0,0.0,0.0,0.0,0.0,0.0,0.0,0.0,0.0,0.0,0.0,0.0,0.0,0.0,0.0,0.0,0.0,0.0,0.0,0.0,0.0,0.0,0.0,0.0,0.0,0.0,0.0,0.0,0.0,0.0,0.0,0.0,0.0,0.0,0.0,0.0,0.0,0.0,0.0,0.0,0.0,0.0,0.0,0.0,0.0,0.0,0.0,0.0,0.0,0.0,0.0,0.0,0.0,0.0,0.0,0.0,0.0,0.0,0.0,0.0,0.0,0.0,0.0,0.0,0.0,0.0,0.0,0.0,0.0,0.0,0.0,0.0,0.0,0.0,0.0,0.0,0.0,0.0,0.0,0.0,0.0,0.0,0.0,0.0,0.0,0.0,0.0,0.0,0.0,0.0,0.0,0.0,0.0,0.0,0.0,0.0,0.0,0.0,0.0,0.0,0.0,0.0,0.0,0.0,0.0,0.0,0.0,0.0,0.0,0.0,0.0,0.0,0.0,0.0,0.0,0.0,0.0,0.0,0.0,0.0,0.0,0.0,0.0,0.0,0.0,0.0,0.0,0.0,0.0,0.0,0.0,0.0,0.0,0.0,0.0,0.0,0.0,0.0,0.0,0.0,0.0,0.0,0.0,0.0,0.0,0.0,0.0,0.0,0.0,0.0,0.0,0.0,0.0,0.0,0.0,0.0,0.0,0.0,0.0,0.0,0.0,0.0,0.0,0.0,0.0,0.0,0.0,0.0,0.0,0.0,0.0,0.0,0.0,0.0,0.0,0.0,0.0,0.0,0.0,0.0,0.0,0.0,0.0,0.0,0.0,0.0,0.0,0.0,0.0,0.0,0.0,0.0,0.0,0.0,0.0,0.0,0.0,0.0,0.0,0.0,0.0,0.0,0.0,0.0,0.0,0.0,0.0,0.0,0.0,0.0,0.0,0.0,0.0,0.0,0.0,0.0,0.0,0.0,0.0,0.0,0.0,0.0,0.0,0.0,0.0,0.0,0.0,0.0,0.0,0.0,0.0,0.0,0.0,0.0,0.0,0.0,0.0,0.0,0.0,0.0,0.0,0.0,0.0,0.0,0.0,0.0,0.0,0.0,0.0,0.0,0.0,0.0,0.0,0.0,0.0,0.0,0.0,0.0,0.0,0.0,0.0,0.0,0.0,0.0,0.0,0.0,0.0,0.0,0.0,0.0,0.0,0.0,0.0,0.0,0.0,0.0,0.0,0.0,0.0,0.0,0.0,0.0,0.0,0.0,0.0,0.0,0.0,0.0,0.0,0.0,0.0,0.0,0.0,0.0,0.0,0.0,0.0,0.0,0.0,0.0,0.0,0.0,-1.8469,0.0,0.0,0.0,0.0,0.0,0.0,0.0,0.0,0.0,0.0,0.0,0.0,0.0,0.0,0.0,0.0,0.0,0.0,0.0,0.0,0.0,0.0,0.0,0.0,0.0,0.0,0.0,0.0,0.0,0.0,0.0,0.0,0.0,0.0,0.0,0.0,0.0,0.0,0.0,0.0,0.0,0.0,0.0,0.0,0.0,0.0,0.0,0.0,0.0,0.0,0.0,0.0,0.0,0.0,0.0,0.0,0.0,0.0,0.0,0.0,0.0,0.0,0.0,0.0,0.0,0.0,0.0,0.0,0.0,0.0,0.0,0.0,0.0,0.0,0.0,0.0,0.0,0.0,0.0,0.0,0.0,0.0,0.0,0.0,0.0,0.0,0.0,0.0,0.0,0.0,0.0,0.0,0.0,0.0,0.0,0.0,0.0,0.0,0.0,0.0,0.0,0.0,0.0,0.0,0.0,0.0,0.0,0.0,0.0,0.0,0.0,0.0,0.0,0.0,0.0,0.0,-1.9364,0.0,0.0,0.0,0.0,0.0,0.0,0.0,0.0,0.0,0.0,0.0,0.0,0.0,0.0,0.0,0.0,0.0,0.0,0.0,0.0,0.0,0.0,0.0,0.0,0.0,0.0,0.0,0.0,0.0,0.0,0.0,0.0,0.0,0.0,0.0,0.0,0.0,0.0,0.0,0.0,0.0,0.0,0.0,0.0,0.0,0.0,0.0,0.0,0.0,0.0,0.0,0.0,0.0,0.0,0.0,0.0,0.0,0.0,0.0,0.0,0.0,0.0,0.0,0.0,0.0,0.0,0.0,0.0,0.0,0.0,0.0,0.0,0.0,0.0,0.0,0.0,0.0,0.0,0.0,0.0,0.0,0.0,0.0,0.0,0.0,0.0,0.0,0.0,0.0,0.0,0.0,0.0,0.0,0.0,0.0,0.0,0.0,0.0,0.0,0.0,0.0,0.0,0.0,0.0,0.0,0.0,0.0,0.0,-2.4821,-2.5149,-2.5195,-2.5117,-2.4941,-2.459,-2.3027,-2.1797,-2.0918,0.0,0.0,0.0,0.0,0.0,0.0,0.0,0.0,0.0,0.0,0.0,0.0,0.0,0.0,0.0,0.0,0.0,0.0,0.0,0.0,0.0,0.0,0.0,0.0,0.0,0.0,0.0,0.0,0.0,0.0,0.0,0.0,0.0,0.0,0.0,0.0,0.0,0.0,0.0,-1.3471,-1.4178,-1.456,-1.4595,0.0,0.0,0.0,0.0,0.0,0.0,0.0,0.0,0.0,0.0,0.0,0.0,0.0,0.0,0.0,0.0,0.0,0.0,0.0,0.0,0.0,0.0,0.0,0.0,0.0,0.0,0.0,0.0,0.0,0.0,0.0,0.0,0.0,0.0,0.0,0.0,0.0,0.0,0.0,0.0,0.0,0.0,0.0,0.0,-1.6734,-1.6969,0.0,0.0,0.0,0.0,0.0,0.0,0.0,0.0,0.0,0.0,0.0,0.0,0.0,0.0,-2.5469,-2.6431,-2.7,-2.7168,-2.834,-2.8691,-2.832,-2.7949,-2.7949,-2.8184,-2.7226,0.0,-2.2227,-2.1797,0.0,0.0,0.0,0.0,0.0,0.0,0.0,0.0,0.0,0.0,0.0,0.0,0.0,0.0,0.0,0.0,0.0,0.0,0.0,0.0,0.0,0.0,0.0,0.0,0.0,0.0,0.0,0.0,0.0,0.0,0.0,0.0,0.0,0.0,0.0,0.0,-1.3461,-1.4368,-1.5118,-1.5618,-1.603,-1.6234,-1.505,-1.4256,-1.3737,-1.3107,0.0,0.0,0.0,0.0,0.0,0.0,0.0,0.0,0.0,0.0,0.0,0.0,0.0,0.0,0.0,0.0,0.0,0.0,0.0,0.0,0.0,0.0,0.0,0.0,0.0,0.0,0.0,0.0,0.0,0.0,0.0,0.0,0.0,0.0,0.0,0.0,0.0,0.0,0.0,-1.7357,-1.7986,-1.7569,-1.8347,-1.8408,0.0,0.0,0.0,0.0,0.0,0.0,0.0,0.0,0.0,-2.4404,-2.5849,-2.6941,-2.7688,-2.8652,-2.9336,-2.9844,-3.0644,-3.0937,-3.0742,-3.0547,-3.0312,-3.0,-2.9355,-2.7812,-2.5644,-2.4258,-2.2891,-2.1582,0.0,0.0,0.0,0.0,-2.0172,-2.0379,0.0,0.0,0.0,0.0,0.0,0.0,0.0,0.0,0.0,0.0,0.0,0.0,0.0,0.0,0.0,0.0,0.0,0.0,0.0,0.0,0.0,0.0,0.0,0.0,0.0,0.0,0.0,0.0,-1.4749,-1.5839,-1.6702,-1.7134,-1.7491,-1.7793,-1.731,-1.6284,-1.4859,-1.4251,-1.3395,0.0,0.0,0.0,0.0,0.0,0.0,0.0,0.0,0.0,0.0,0.0,0.0,0.0,0.0,0.0,0.0,0.0,0.0,0.0,0.0,0.0,0.0,0.0,0.0,0.0,0.0,0.0,0.0,0.0,0.0,0.0,0.0,0.0,0.0,0.0,0.0,0.0,0.0,-1.8576,-1.9071,-1.8281,-1.9829,-2.0171,0.0,0.0,0.0,0.0,0.0,0.0,-2.3435,-2.5208,-2.6489,-2.7156,-2.8672,-2.9707,-3.0234,-3.0762,-3.1406,-3.2168,-3.2383,-3.2422,-3.2324,-3.2226,-3.1758,-3.1035,-3.0566,-2.9766,-2.8613,-2.6445,-2.4687,-2.3242,-2.234,-2.1777,-2.1466,-2.1641,-2.1626,-2.165,0.0,0.0,0.0,0.0,0.0,0.0,0.0,0.0,0.0,0.0,0.0,0.0,0.0,0.0,0.0,0.0,0.0,0.0,0.0,0.0,0.0,0.0,0.0,0.0,0.0,0.0,0.0,-1.4161,-1.554,-1.6749,-1.7848,-1.8596,-1.9241,-1.9736,-1.9434,-1.8287,-1.6477,-1.492,-1.4087,-1.3701,0.0,0.0,0.0,0.0,0.0,0.0,0.0,0.0,0.0,0.0,0.0,0.0,0.0,0.0,0.0,0.0,0.0,0.0,0.0,0.0,0.0,0.0,0.0,0.0,0.0,0.0,0.0,0.0,0.0,0.0,0.0,0.0,0.0,0.0,0.0,0.0,0.0,0.0,0.0,-1.9342,-2.1482,0.0,0.0,0.0,0.0,-2.2625,-2.4202,-2.569,-2.6962,-2.8878,-3.0294,-3.1191,-3.2109,-3.2969,-3.3809,-3.3437,-3.3496,-3.3945,-3.3555,-3.3144,-3.2754,-3.2344,-3.1914,-3.1465,-3.1035,-3.0566,-2.9941,-2.7793,-2.6387,-2.544,-2.4609,-2.4004,-2.3594,-2.3247,-2.3221,-2.3358,0.0,0.0,0.0,0.0,0.0,0.0,0.0,0.0,0.0,0.0,0.0,0.0,0.0,0.0,0.0,0.0,0.0,0.0,0.0,0.0,0.0,0.0,0.0,0.0,0.0,0.0,0.0,0.0,-1.7089,-1.8153,-1.9184,-1.9507,-1.97,-1.9881,-1.9784,-1.9265,-1.8372,-1.6948,-1.5555,-1.434,-1.353,-1.2546,0.0,0.0,0.0,0.0,0.0,0.0,0.0,0.0,0.0,0.0,0.0,0.0,0.0,0.0,0.0,0.0,0.0,0.0,0.0,0.0,0.0,0.0,0.0,0.0,0.0,0.0,0.0,0.0,0.0,0.0,0.0,0.0,0.0,0.0,0.0,0.0,0.0,-2.3316,-2.4765,0.0,0.0,-2.4784,-2.5484,-2.6123,-2.7607,-2.8933,-2.9964,-3.1444,-3.2559,-3.3144,-3.3711,-3.416,-3.4473,-3.4062,-3.3926,-3.4062,-3.3633,-3.3203,-3.2793,-3.2637,-3.2187,-3.1504,-3.1367,-3.0879,-3.0137,-2.9375,-2.8242,-2.6914,-2.6328,-2.5664,-2.5019,-2.5051,-2.5225,-2.5398,0.0,0.0,0.0,0.0,0.0,0.0,0.0,0.0,0.0,0.0,0.0,0.0,0.0,0.0,0.0,0.0,0.0,0.0,0.0,0.0,0.0,0.0,0.0,0.0,0.0,0.0,0.0,0.0,0.0,0.0,0.0,-2.0014,-2.0062,-2.0146,-2.0146,-2.0002,-1.973,-1.8703,-1.7122,-1.5306,-1.4508,-1.3566,-1.2577,0.0,0.0,0.0,0.0,0.0,0.0,0.0,0.0,0.0,0.0,0.0,0.0,0.0,0.0,0.0,0.0,0.0,0.0,0.0,0.0,0.0,0.0,0.0,0.0,0.0,0.0,0.0,0.0,0.0,0.0,0.0,0.0,0.0,0.0,0.0,-2.5139,-2.5947,-2.7696,-2.8401,-2.727,-2.837,-2.9145,-2.9316,-3.0956,-3.2207,-3.2793,-3.3906,-3.459,-3.4726,-3.5137,-3.5293,-3.5156,-3.4726,-3.4434,-3.4277,-3.3848,-3.3262,-3.2578,-3.2578,-3.2109,-3.1309,-3.1309,-3.0976,-3.043,-3.043,-2.9668,-2.8457,-2.7891,-2.7129,-2.6387,-2.6566,-2.6715,-2.6761,0.0,0.0,0.0,0.0,0.0,0.0,0.0,0.0,0.0,0.0,0.0,0.0,0.0,0.0,0.0,0.0,0.0,0.0,0.0,0.0,0.0,0.0,0.0,0.0,0.0,0.0,0.0,0.0,0.0,0.0,0.0,0.0,0.0,0.0,0.0,-2.0533,-2.0267,-2.0014,-1.8698,-1.6682,-1.533,-1.4594,-1.4158,0.0,0.0,0.0,0.0,0.0,0.0,0.0,0.0,0.0,0.0,0.0,0.0,0.0,0.0,0.0,0.0,0.0,0.0,0.0,0.0,0.0,0.0,0.0,0.0,0.0,0.0,0.0,0.0,0.0,0.0,0.0,0.0,0.0,-2.2216,-2.513,-2.7214,-2.7137,-3.0026,-3.1058,-2.8637,-3.1658,-3.327,-3.2112,-3.4185,-3.5469,-3.5449,-3.625,-3.6484,-3.6055,-3.6445,-3.6465,-3.6016,-3.5605,-3.5156,-3.4687,-3.4277,-3.3418,-3.2248,-3.2229,-3.1719,-3.0918,-3.0898,-3.0898,-3.0898,-3.0898,-3.0625,-3.0117,-2.9277,-2.8437,-2.7767,-2.7748,-2.7609,-2.7401,0.0,0.0,0.0,0.0,0.0,0.0,0.0,0.0,0.0,0.0,0.0,0.0,0.0,0.0,0.0,0.0,0.0,0.0,0.0,0.0,0.0,0.0,0.0,0.0,0.0,0.0,0.0,0.0,0.0,0.0,0.0,0.0,0.0,0.0,0.0,0.0,0.0,0.0,0.0,0.0,-1.7129,0.0,-1.4777,0.0,0.0,0.0,0.0,0.0,0.0,0.0,0.0,0.0,0.0,0.0,0.0,0.0,0.0,0.0,0.0,0.0,0.0,0.0,0.0,0.0,0.0,0.0,0.0,0.0,0.0,0.0,0.0,0.0,0.0,0.0,0.0,-2.5485,-2.575,-2.7474,-2.9591,-3.199,-3.2636,-3.3382,-3.4643,-3.5245,-3.562,-3.5801,-3.6708,-3.709,-3.6797,-3.6992,-3.6934,-3.6504,-3.6601,-3.6465,-3.6016,-3.5605,-3.5156,-3.4687,-3.4277,-3.3555,-3.2617,-3.2305,-3.1875,-3.1328,-3.1016,-3.0898,-3.0898,-3.0898,-3.0625,-3.0176,-2.9941,-2.9316,-2.8574,-2.8863,-2.876,-2.8584,0.0,0.0,0.0,0.0,0.0,0.0,0.0,0.0,0.0,0.0,0.0,0.0,0.0,0.0,0.0,0.0,0.0,0.0,0.0,0.0,0.0,0.0,0.0,0.0,0.0,0.0,0.0,0.0,0.0,0.0,0.0,0.0,0.0,0.0,0.0,0.0,0.0,0.0,0.0,0.0,0.0,0.0,-1.6314,-1.5055,-1.4412,-1.4229,-1.4089,-1.3983,-1.3996,-1.4765,0.0,0.0,0.0,0.0,0.0,0.0,0.0,0.0,0.0,0.0,0.0,0.0,0.0,0.0,0.0,0.0,0.0,0.0,0.0,0.0,0.0,0.0,0.0,0.0,-2.6166,-2.8024,-2.9048,-3.007,-3.1551,-3.3823,-3.4325,-3.4989,-3.6413,-3.7108,-3.7483,-3.76,-3.8103,-3.8281,-3.7851,-3.7832,-3.748,-3.6699,-3.6836,-3.6641,-3.6035,-3.5605,-3.5156,-3.4687,-3.4277,-3.3535,-3.2519,-3.2285,-3.1836,0.0,-3.0996,-3.0898,-3.0898,-3.0898,-3.0723,0.0,0.0,0.0,0.0,0.0,-2.9039,-2.8808,0.0,0.0,0.0,0.0,0.0,0.0,0.0,0.0,0.0,0.0,0.0,0.0,0.0,0.0,0.0,0.0,0.0,0.0,0.0,0.0,0.0,0.0,0.0,0.0,0.0,0.0,0.0,0.0,0.0,0.0,0.0,0.0,0.0,0.0,0.0,0.0,0.0,0.0,0.0,0.0,0.0,0.0,-1.8163,-1.6369,-1.5747,-1.5872,-1.6211,-1.5749,-1.5276,-1.7278,0.0,0.0,0.0,0.0,0.0,0.0,0.0,0.0,0.0,0.0,0.0,0.0,0.0,0.0,0.0,0.0,0.0,0.0,0.0,0.0,0.0,0.0,0.0,0.0,-2.8436,-3.0064,-3.1946,-3.2514,-3.3028,-3.3923,-3.5222,-3.6126,-3.6036,-3.7915,-3.8879,-3.8272,-3.8906,-3.9062,-3.8594,0.0,0.0,0.0,0.0,-3.6836,-3.6035,-3.5605,-3.5156,-3.4687,-3.4277,-3.3457,-3.2305,-3.2207,-3.1758,-3.1035,-3.0937,-3.0898,-3.0898,-3.0898,-3.0898,-3.084,-3.0332,-2.9668,-2.9,-2.9046,-2.8838,-2.8652,0.0,0.0,0.0,0.0,0.0,0.0,0.0,0.0,0.0,0.0,0.0,0.0,0.0,0.0,0.0,0.0,0.0,0.0,0.0,0.0,0.0,0.0,0.0,0.0,0.0,0.0,0.0,0.0,0.0,0.0,0.0,0.0,0.0,0.0,0.0,0.0,0.0,0.0,0.0,0.0,0.0,0.0,-1.847,-1.7283,-1.6532,-1.6106,-1.5555,-1.5395,-1.5607,-1.7113,-1.7311,-1.7255,-1.8961,0.0,0.0,0.0,0.0,0.0,0.0,0.0,0.0,0.0,0.0,0.0,0.0,0.0,0.0,0.0,0.0,0.0,0.0,0.0,0.0,-2.7936,-3.0174,-3.2134,-3.3266,-3.3523,-3.401,-3.5105,-3.5554,-3.6441,-3.8423,-3.8728,-3.8994,-3.9465,-3.969,-3.9414,-3.8613,-3.8242,0.0,-3.7187,-3.6934,-3.6543,-3.6035,-3.5605,-3.5156,-3.4687,0.0,0.0,-3.3164,-3.248,-3.2131,-3.1875,-3.1191,-3.0898,-3.0898,-3.0898,-3.0898,-3.082,-3.0,-2.959,-2.9411,-2.8971,-2.888,-2.8951,0.0,0.0,0.0,0.0,0.0,0.0,0.0,0.0,0.0,0.0,0.0,0.0,0.0,0.0,0.0,0.0,0.0,0.0,0.0,0.0,0.0,0.0,0.0,0.0,0.0,0.0,0.0,0.0,0.0,0.0,0.0,0.0,0.0,0.0,0.0,0.0,0.0,0.0,0.0,0.0,0.0,0.0,-1.9181,-1.8251,-1.7382,-1.6777,-1.7355,-1.7368,-1.7381,-1.917,-1.9572,-1.9478,-2.0371,-2.0058,-1.9229,0.0,0.0,0.0,0.0,0.0,0.0,0.0,0.0,0.0,0.0,0.0,0.0,0.0,0.0,-2.4306,0.0,0.0,-2.9233,-3.0736,-3.2514,-3.3863,-3.433,-3.477,-3.508,-3.5296,-3.5448,-3.6312,-3.8254,-3.8595,-3.9051,-3.9796,-3.9635,-3.9258,-3.8613,-3.8164,-3.7637,-3.7012,-3.6777,-3.6465,-3.6016,-3.5371,-3.4922,-3.4687,-3.4043,-3.3516,-3.3086,-3.2461,-3.2051,-3.1816,-3.1172,-3.0898,-3.0898,-3.0898,-3.0898,-3.082,-3.0156,-2.9883,-2.9841,-2.9416,-2.9313,-2.9467,0.0,0.0,0.0,0.0,0.0,0.0,0.0,0.0,0.0,0.0,0.0,0.0,0.0,0.0,0.0,0.0,0.0,0.0,0.0,0.0,0.0,0.0,0.0,0.0,0.0,0.0,0.0,0.0,0.0,0.0,0.0,0.0,0.0,0.0,0.0,0.0,0.0,0.0,0.0,0.0,0.0,0.0,-1.9808,-1.9048,-1.8094,-1.7346,-1.8767,-1.8749,-1.8433,-2.07,-2.1243,-2.0971,-2.1371,-2.1261,-2.0703,-1.9307,-1.9108,0.0,0.0,0.0,0.0,0.0,0.0,0.0,0.0,0.0,-2.2579,-2.4155,-2.5481,-2.6979,-2.9072,-3.0192,-3.1439,-3.3322,-3.4362,-3.4935,-3.5027,-3.5504,-3.5614,-3.499,-3.5339,-3.6091,-3.7352,-3.8179,-3.8899,-3.9625,-3.9365,-3.8984,-3.8476,-3.8047,-3.7461,-3.6699,-3.6582,-3.6367,-3.6016,-3.5137,-3.4707,-3.4687,-3.3828,-3.3203,-3.2773,-3.2363,-3.1934,-3.1504,-3.1074,-3.0898,-3.0898,-3.0898,-3.0898,-3.0859,-3.0488,-3.0273,-3.0154,-2.9789,-2.9647,-2.9668,0.0,0.0,0.0,0.0,0.0,0.0,0.0,0.0,0.0,0.0,0.0,0.0,0.0,0.0,0.0,0.0,0.0,0.0,0.0,0.0,0.0,0.0,0.0,0.0,0.0,0.0,0.0,0.0,0.0,0.0,0.0,0.0,0.0,0.0,0.0,0.0,0.0,0.0,0.0,0.0,0.0,0.0,-1.982,-1.9253,-1.8372,-1.7404,-1.6888,-1.6403,-1.6312,-1.8826,-1.9483,-1.9606,-2.2097,-2.2143,-2.1161,-2.0128,0.0,-1.9076,-1.8464,-1.8749,-1.9509,-2.0576,-2.0906,-2.1847,0.0,0.0,-2.6855,-2.8975,-3.0181,-3.0967,-3.1337,-3.2369,-3.3334,-3.3711,-3.4168,-3.4605,-3.4972,-3.4788,-3.4568,-3.4477,-3.5155,-3.6091,-3.7352,-3.784,-3.8253,-3.8703,-3.9035,-3.8848,-3.8047,-3.7598,-3.7148,-3.668,-3.6289,-3.6074,-3.6016,-3.5137,-3.4707,-3.4687,-3.3828,-3.3203,-3.2773,-3.2363,-3.1934,-3.1504,-3.1074,-3.0898,-3.0898,-3.0898,-3.0898,-3.0879,-3.084,-3.0566,-3.0098,-2.9293,-2.905,-2.9192,0.0,0.0,0.0,0.0,0.0,0.0,0.0,0.0,0.0,0.0,0.0,0.0,0.0,0.0,0.0,0.0,0.0,0.0,0.0,0.0,0.0,0.0,0.0,0.0,0.0,0.0,0.0,0.0,0.0,0.0,0.0,0.0,0.0,0.0,0.0,0.0,0.0,0.0,0.0,0.0,0.0,0.0,-1.9555,-1.8698,-1.7919,-1.7262,-1.7277,-1.6898,0.0,0.0,-1.9444,-1.9816,-2.1349,-2.1336,-2.0629,-1.9922,-1.9721,0.0,-2.0056,-2.0607,0.0,0.0,-2.3419,-2.4873,-2.6889,-2.8048,-2.9203,-3.1109,-3.2293,-3.3184,-3.3431,-3.4174,-3.4746,0.0,-3.5222,-3.543,-3.5375,-3.4807,-3.4238,-3.378,-3.3596,-3.425,-3.6197,-3.6711,-3.7096,-3.7489,-3.8093,-3.8014,-3.6874,-3.6891,-3.6738,-3.6309,-3.6113,-3.6016,-3.6016,-3.541,-3.4961,-3.4687,-3.4082,-3.3437,-3.2773,-3.2363,-3.1797,-3.1133,-3.0957,-3.0898,-3.0898,-3.0898,-3.0898,-3.0898,-3.0898,-3.0605,-3.0117,-2.9698,-2.9515,-2.9494,0.0,0.0,0.0,0.0,0.0,0.0,0.0,0.0,0.0,0.0,0.0,0.0,0.0,0.0,0.0,0.0,0.0,0.0,0.0,0.0,0.0,0.0,0.0,0.0,0.0,0.0,0.0,0.0,0.0,0.0,0.0,0.0,0.0,0.0,0.0,0.0,0.0,0.0,0.0,0.0,0.0,0.0,-1.9132,-1.807,-1.7222,-1.6678,-1.7103,-1.6902,0.0,0.0,-1.8841,-1.9299,-2.007,-2.0206,-1.9925,-1.9618,-1.9782,-2.0289,-2.1103,0.0,0.0,-2.3987,-2.5748,-2.751,-2.848,-2.9801,-3.1218,-3.2478,-3.3585,-3.4328,-3.4499,-3.4762,0.0,-3.541,-3.5464,-3.5485,-3.5302,-3.4477,-3.356,-3.2661,-3.1946,-3.2206,-3.3954,-3.4952,-3.5779,-3.6236,-3.6989,-3.7022,-3.6124,-3.6452,-3.6465,-3.6035,-3.6016,-3.6016,-3.6016,-3.5469,-3.5039,-3.4687,-3.416,-3.3516,-3.2773,-3.2246,-3.1582,-3.0898,-3.0898,-3.0898,-3.0898,-3.0898,-3.0898,-3.0898,-3.0898,-3.0605,-3.0137,-2.9951,-2.9794,-2.9701,0.0,0.0,0.0,0.0,0.0,0.0,0.0,0.0,0.0,0.0,0.0,0.0,0.0,0.0,0.0,0.0,0.0,0.0,0.0,0.0,0.0,0.0,0.0,0.0,0.0,0.0,0.0,0.0,0.0,0.0,0.0,0.0,0.0,0.0,0.0,0.0,0.0,0.0,0.0,0.0,0.0,0.0,-1.8589,-1.7515,-1.646,-1.5418,-1.5348,0.0,0.0,0.0,-1.6784,-1.7239,-1.8515,-1.9084,0.0,-1.9461,-1.982,0.0,0.0,0.0,-2.444,-2.5635,-2.7416,-2.9333,-3.0841,-3.2136,-3.3149,-3.3586,-3.4289,-3.4547,-3.388,-3.3763,-3.4053,-3.4855,-3.4408,-3.4018,-3.4385,-3.3413,-3.2203,-3.1011,-3.0497,-3.0277,0.0,-3.2506,-3.4196,-3.5018,-3.5724,-3.6124,-3.6105,-3.6452,-3.6465,-3.6035,-3.6016,-3.6016,-3.6016,-3.5156,-3.4707,-3.4687,-3.3848,-3.3223,-3.2773,-3.1914,-3.1309,-3.0898,-3.0898,-3.0898,-3.0898,-3.0898,-3.0898,-3.0898,-3.0898,-3.0605,-3.0137,-2.9783,-2.9538,-2.9436,0.0,0.0,0.0,0.0,0.0,0.0,0.0,0.0,0.0,0.0,0.0,0.0,0.0,0.0,0.0,0.0,0.0,0.0,0.0,0.0,0.0,0.0,0.0,0.0,0.0,0.0,0.0,0.0,0.0,0.0,0.0,0.0,0.0,0.0,0.0,0.0,0.0,0.0,0.0,0.0,0.0,0.0,-1.8034,-1.6545,-1.5781,-1.5395,0.0,0.0,0.0,0.0,-1.6053,-1.651,-1.7327,0.0,0.0,-1.8922,-2.0147,-2.1452,-2.2795,0.0,-2.6701,-2.8663,-3.0075,-3.1433,-3.298,-3.3613,-3.3766,-3.3415,-3.3027,-3.2445,-3.1119,-3.114,-3.1492,-3.2134,-3.3096,-3.3762,-3.3633,-3.3486,-3.2551,-3.0259,-3.0112,0.0,0.0,0.0,0.0,-3.2936,-3.4212,-3.4883,-3.488,-3.5733,-3.6172,-3.6016,-3.6016,-3.6016,-3.6016,-3.5449,-3.5,-3.4687,-3.3262,-3.2519,-3.2344,-3.1484,-3.1016,-3.0898,-3.0898,-3.0898,-3.0898,-3.0898,-3.0898,-3.0898,-3.0898,-3.0605,-3.0176,-3.0039,-2.9587,-2.905,0.0,0.0,0.0,0.0,0.0,0.0,0.0,0.0,0.0,0.0,0.0,0.0,0.0,0.0,0.0,0.0,0.0,0.0,0.0,0.0,0.0,0.0,0.0,0.0,0.0,0.0,0.0,0.0,0.0,0.0,0.0,0.0,0.0,0.0,0.0,0.0,0.0,0.0,0.0,0.0,0.0,0.0,-1.6869,-1.5507,-1.493,0.0,0.0,0.0,0.0,0.0,0.0,0.0,-1.6448,-1.7242,-1.8166,-1.9326,-2.1044,-2.296,-2.4643,-2.6774,-2.8938,-3.0937,-3.2148,-3.3096,-3.3946,-3.3898,-3.3341,-3.2065,-3.1214,-3.0272,-2.8723,-2.8667,-2.9056,-2.9806,-3.1029,-3.1983,-3.2313,-3.2331,-3.1671,-3.0002,-2.9782,0.0,0.0,0.0,0.0,-3.1488,-3.2992,-3.3964,-3.4098,-3.5143,-3.5859,-3.6016,-3.6016,-3.6016,-3.6016,-3.543,-3.4844,-3.4219,-3.2988,-3.2324,-3.2209,-3.1445,-3.1035,-3.0898,-3.0898,-3.0898,-3.0898,-3.0898,-3.0898,-3.0898,-3.0898,-3.0703,-3.041,-3.0098,-2.9629,-2.9137,0.0,0.0,0.0,0.0,0.0,0.0,0.0,0.0,0.0,0.0,0.0,0.0,0.0,0.0,0.0,0.0,0.0,0.0,0.0,0.0,0.0,0.0,0.0,0.0,0.0,0.0,0.0,0.0,0.0,0.0,0.0,0.0,0.0,0.0,0.0,0.0,0.0,0.0,0.0,0.0,0.0,0.0,-1.5429,-1.455,0.0,0.0,0.0,0.0,0.0,0.0,0.0,0.0,0.0,0.0,-1.965,-2.0768,-2.2647,-2.4716,-2.6316,-2.8792,-3.1194,-3.2423,-3.3541,-3.4257,-3.3853,-3.3058,-3.1864,-2.9886,-2.8948,-2.8087,0.0,0.0,-2.6714,-2.8061,-2.8425,-2.9085,-3.0626,-3.0259,-2.9929,0.0,0.0,0.0,0.0,0.0,0.0,-3.0699,0.0,-3.3263,-3.37,-3.4776,-3.5605,-3.6016,-3.6016,-3.6016,-3.5996,-3.5098,-3.4238,-3.3418,-3.2969,-3.2559,-3.2148,-3.1699,-3.1269,-3.0898,-3.0898,-3.0898,-3.0898,-3.0898,-3.0898,-3.0898,-3.0898,-3.0859,-3.0723,-2.9883,-2.9607,-2.9564,0.0,0.0,0.0,0.0,0.0,0.0,0.0,0.0,0.0,0.0,0.0,0.0,0.0,0.0,0.0,0.0,0.0,0.0,0.0,0.0,0.0,0.0,0.0,0.0,0.0,0.0,0.0,0.0,0.0,0.0,0.0,0.0,0.0,0.0,0.0,0.0,0.0,0.0,0.0,0.0,0.0,0.0,-1.5732,0.0,0.0,0.0,0.0,0.0,0.0,0.0,0.0,0.0,0.0,-2.0339,-2.1292,-2.3249,-2.5069,-2.683,-2.8755,-3.0901,-3.29,-3.411,-3.4183,-3.378,-3.3065,-3.1764,-3.0097,-2.7803,-2.6265,-2.4845,0.0,0.0,0.0,-2.6425,-2.8847,0.0,-3.1598,-3.2551,0.0,0.0,0.0,-3.1322,-3.0424,-3.0589,0.0,0.0,-3.1952,-3.296,-3.3681,-3.5027,-3.5918,-3.6016,-3.6016,-3.5879,-3.5566,-3.4668,-3.3965,-3.3418,-3.2676,-3.2266,-3.2148,-3.1387,-3.0996,-3.0898,-3.0898,-3.0898,-3.0898,-3.0898,-3.0898,-3.0898,-3.0898,-3.0488,-2.9883,-2.9704,-2.916,-2.8648,0.0,0.0,0.0,0.0,0.0,0.0,0.0,0.0,0.0,0.0,0.0,0.0,0.0,0.0,0.0,0.0,0.0,0.0,0.0,0.0,0.0,0.0,0.0,0.0,0.0,0.0,0.0,0.0,0.0,0.0,0.0,0.0,0.0,0.0,0.0,0.0,0.0,0.0,0.0,0.0,0.0,0.0,0.0,0.0,0.0,0.0,0.0,0.0,0.0,0.0,0.0,-1.9865,-2.1534,-2.2745,-2.3922,-2.5823,0.0,-2.9122,-3.0791,-3.2606,-3.4183,-3.4862,-3.4293,-3.3193,-3.1854,-2.9891,-2.7716,-2.5212,-2.377,0.0,0.0,0.0,0.0,0.0,0.0,0.0,-3.0754,-3.2019,-3.2588,0.0,-3.2313,0.0,-3.1396,-3.1524,-3.1488,0.0,-3.2121,-3.296,-3.3434,-3.4873,-3.584,-3.6016,-3.6016,-3.5723,-3.5098,-3.4414,-3.3848,-3.3418,-3.2559,-3.2229,-3.2148,-3.1289,-3.0898,-3.0898,0.0,-3.0898,-3.0898,-3.0898,-3.0898,-3.0859,-3.0664,-3.0273,-2.9805,-2.9434,-2.8984,-2.8535,0.0,0.0,0.0,0.0,0.0,0.0,0.0,0.0,0.0,0.0,0.0,0.0,0.0,0.0,0.0,0.0,0.0,0.0,0.0,0.0,0.0,0.0,0.0,0.0,0.0,0.0,0.0,0.0,0.0,0.0,0.0,0.0,0.0,0.0,0.0,0.0,0.0,0.0,0.0,0.0,0.0,0.0,0.0,0.0,0.0,0.0,0.0,0.0,0.0,0.0,-2.0817,-2.1731,-2.3262,-2.5029,-2.6772,-2.8275,-2.9782,-3.1231,-3.2496,-3.3945,-3.5082,-3.4972,-3.4,-3.2496,-3.0369,-2.7787,-2.5164,-2.2621,0.0,0.0,-1.95,0.0,-2.1888,-2.2968,0.0,-2.7032,-2.947,-3.0516,-3.1433,-3.2551,-3.2735,-3.2625,-3.2276,-3.2203,-3.2019,-3.1653,-3.2683,-3.3263,-3.3206,-3.4669,-3.5625,-3.5937,-3.6014,-3.5697,-3.4871,-3.4631,-3.4235,-3.365,-3.2866,-3.2452,-3.2371,-3.1388,-3.0995,-3.1112,0.0,0.0,-3.0898,-3.0898,-3.0898,-3.084,-3.0371,-3.0156,-3.0019,-2.9219,-2.8887,-2.8789,0.0,0.0,0.0,0.0,0.0,0.0,0.0,0.0,0.0,0.0,0.0,0.0,0.0,0.0,0.0,0.0,0.0,0.0,0.0,0.0,0.0,0.0,0.0,0.0,0.0,0.0,0.0,0.0,0.0,0.0,0.0,0.0,0.0,0.0,0.0,0.0,0.0,0.0,0.0,0.0,0.0,0.0,0.0,0.0,0.0,0.0,0.0,0.0,0.0,0.0,-2.1998,-2.3665,-2.5576,-2.7027,-2.8312,-2.9929,-3.1047,-3.2129,-3.367,-3.4788,-3.5357,-3.4678,-3.3358,-3.1506,-2.881,-2.6146,0.0,0.0,0.0,-1.9325,-1.9102,-1.9961,0.0,-2.406,0.0,0.0,0.0,0.0,-3.2496,0.0,0.0,0.0,0.0,0.0,0.0,0.0,0.0,0.0,-3.3643,-3.5027,-3.5781,-3.5508,-3.6219,-3.6336,-3.5783,-3.6452,-3.6178,-3.5067,-3.4164,-3.3733,-3.3513,-3.1741,-3.146,-3.2342,0.0,0.0,-3.0898,-3.0898,-3.0898,-3.084,-3.0371,-2.998,-2.9629,-2.9101,-2.8691,-2.8398,0.0,0.0,0.0,0.0,0.0,0.0,0.0,0.0,0.0,0.0,0.0,0.0,0.0,0.0,0.0,0.0,0.0,0.0,0.0,0.0,0.0,0.0,0.0,0.0,0.0,0.0,0.0,0.0,0.0,0.0,0.0,0.0,0.0,0.0,0.0,0.0,0.0,0.0,0.0,0.0,0.0,0.0,0.0,0.0,0.0,0.0,0.0,0.0,0.0,0.0,-2.1752,-2.379,-2.6482,-2.8129,-2.9287,-3.0681,-3.1524,-3.2349,-3.3963,-3.4678,-3.4844,-3.4238,-3.2404,-3.0002,-2.716,0.0,0.0,0.0,0.0,-1.8432,-1.8098,0.0,0.0,0.0,0.0,0.0,0.0,0.0,0.0,0.0,0.0,0.0,0.0,0.0,0.0,0.0,0.0,0.0,-3.3993,-3.5047,-3.5605,-3.541,-3.599,-3.6203,-3.5976,-3.6857,-3.7006,-3.6399,-3.5461,-3.5013,-3.4912,-3.3424,-3.2742,-3.2685,-3.2076,0.0,-3.0898,-3.0898,-3.0898,-3.082,-3.0137,-2.9746,-2.9548,-2.8828,-2.8457,-2.8301,0.0,0.0,0.0,0.0,0.0,0.0,0.0,0.0,0.0,0.0,0.0,0.0,0.0,0.0,0.0,0.0,0.0,0.0,0.0,0.0,0.0,0.0,0.0,0.0,0.0,0.0,0.0,0.0,0.0,0.0,0.0,0.0,0.0,0.0,0.0,0.0,0.0,0.0,0.0,0.0,0.0,0.0,0.0,0.0,0.0,0.0,0.0,0.0,0.0,0.0,-2.0808,-2.2638,-2.5656,-2.7785,-2.925,-3.0204,-3.1139,-3.2203,-3.3633,-3.4275,-3.4348,-3.3615,-3.1414,-2.8663,-2.5708,-2.2936,0.0,0.0,0.0,-1.7858,-1.7423,0.0,0.0,0.0,0.0,0.0,0.0,0.0,0.0,0.0,0.0,0.0,0.0,0.0,0.0,0.0,0.0,0.0,-3.426,-3.4901,-3.5195,-3.5117,-3.5922,-3.6373,-3.6269,-3.7396,-3.7814,-3.7493,-3.6603,-3.6139,-3.606,-3.4897,-3.4056,-3.3459,-3.3176,0.0,0.0,-3.1187,-3.0974,-3.0644,-2.9766,-2.9434,-2.9336,-2.8574,-2.8301,-2.8301,0.0,0.0,0.0,0.0,0.0,0.0,0.0,0.0,0.0,0.0,0.0,0.0,0.0,0.0,0.0,0.0,0.0,0.0,0.0,0.0,0.0,0.0,0.0,0.0,0.0,0.0,0.0,0.0,0.0,0.0,0.0,0.0,0.0,0.0,0.0,0.0,0.0,0.0,0.0,0.0,0.0,0.0,0.0,0.0,0.0,0.0,0.0,0.0,0.0,0.0,0.0,-2.0008,-2.2153,-2.4922,-2.7416,-2.7526,0.0,0.0,-3.2533,-3.3853,-3.4532,-3.2643,-3.0589,-2.8113,-2.4587,0.0,0.0,0.0,-1.7802,-1.7751,-1.7759,-1.8155,0.0,0.0,0.0,0.0,0.0,0.0,0.0,0.0,0.0,0.0,0.0,0.0,0.0,0.0,0.0,0.0,0.0,-3.4568,-3.459,-3.4199,-3.652,-3.7544,-3.7193,-3.9117,-3.9494,-3.8296,-3.7348,-3.6891,-3.6756,-3.5135,-3.4947,-3.5795,0.0,0.0,0.0,-3.2097,-3.1257,-3.0176,-2.9316,-2.8984,-2.8926,-2.8457,-2.8301,-2.8301,0.0,0.0,0.0,0.0,0.0,0.0,0.0,0.0,0.0,0.0,0.0,0.0,0.0,0.0,0.0,0.0,0.0,0.0,0.0,0.0,0.0,0.0,0.0,0.0,0.0,0.0,0.0,0.0,0.0,0.0,0.0,0.0,0.0,0.0,0.0,0.0,0.0,0.0,0.0,0.0,0.0,0.0,0.0,0.0,0.0,0.0,0.0,0.0,0.0,0.0,0.0,0.0,-1.8889,-2.0613,0.0,0.0,-2.7765,-2.9599,-3.1377,-3.2881,-3.3578,-3.2038,-2.9929,-2.7435,-2.4262,0.0,0.0,-1.8135,-1.7745,-1.767,-1.7618,-1.804,-1.8713,0.0,0.0,0.0,0.0,0.0,0.0,0.0,0.0,0.0,0.0,0.0,0.0,0.0,0.0,0.0,0.0,-3.3986,-3.4626,-3.5237,-3.6742,-3.7654,-3.7938,-3.9598,-3.9985,-3.9146,-3.8414,-3.8083,-3.8005,-3.7006,-3.6426,-3.6154,0.0,0.0,0.0,-3.2483,-3.1737,-3.1095,-2.9514,-2.8926,-2.8867,-2.8437,-2.8301,-2.8301,0.0,0.0,0.0,0.0,0.0,0.0,0.0,0.0,0.0,0.0,0.0,0.0,0.0,0.0,0.0,0.0,0.0,0.0,0.0,0.0,0.0,0.0,0.0,0.0,0.0,0.0,0.0,0.0,0.0,0.0,0.0,0.0,0.0,0.0,0.0,0.0,0.0,0.0,0.0,0.0,0.0,0.0,0.0,0.0,0.0,0.0,0.0,0.0,0.0,0.0,0.0,0.0,0.0,0.0,0.0,0.0,-2.5637,-2.7546,-2.9434,-3.1212,-3.2148,-3.0699,-2.8773,-2.6517,0.0,0.0,0.0,-1.7982,-1.7754,-1.7716,-1.7529,-1.8035,-1.8545,0.0,0.0,0.0,0.0,0.0,0.0,0.0,0.0,0.0,0.0,0.0,0.0,0.0,0.0,0.0,0.0,-3.3403,-3.4366,-3.579,-3.6603,-3.7451,-3.8424,-3.9424,-3.9753,-3.9369,-3.8815,-3.8575,-3.8551,-3.8166,-3.7524,-3.675,0.0,0.0,0.0,-3.3149,-3.2205,-3.143,-2.9802,-2.8982,-2.8691,-2.8398,-2.8301,-2.832,0.0,0.0,0.0,0.0,0.0,0.0,0.0,0.0,0.0,0.0,0.0,0.0,0.0,0.0,0.0,0.0,0.0,0.0,0.0,0.0,0.0,0.0,0.0,0.0,0.0,0.0,0.0,0.0,0.0,0.0,0.0,0.0,0.0,0.0,0.0,0.0,0.0,0.0,0.0,0.0,0.0,0.0,0.0,0.0,0.0,0.0,0.0,0.0,0.0,0.0,0.0,0.0,0.0,0.0,0.0,0.0,-2.2868,-2.5582,-2.6408,-2.8682,-3.0332,-2.8373,-2.694,-2.5227,0.0,0.0,0.0,-1.7761,-1.7788,-1.7906,-1.7564,-1.8161,-1.8578,-1.8161,0.0,0.0,0.0,0.0,0.0,0.0,0.0,0.0,0.0,0.0,0.0,0.0,0.0,0.0,0.0,-3.284,-3.361,-3.5376,-3.6132,-3.7118,-3.8424,-3.8658,-3.8839,-3.8815,-3.8262,-3.7998,-3.7998,-3.7974,-3.7974,0.0,0.0,0.0,0.0,-3.4372,-3.2671,-3.0574,-3.0066,-2.9217,-2.8301,-2.8301,-2.8301,-2.8359,0.0,0.0,0.0,0.0,0.0,0.0,0.0,0.0,0.0,0.0,0.0,0.0,0.0,0.0,0.0,0.0,0.0,0.0,0.0,0.0,0.0,0.0,0.0,0.0,0.0,0.0,0.0,-1.2409,-1.2889,0.0,0.0,0.0,0.0,0.0,0.0,0.0,0.0,0.0,0.0,0.0,0.0,0.0,0.0,0.0,0.0,0.0,0.0,0.0,0.0,0.0,0.0,0.0,0.0,0.0,0.0,0.0,0.0,0.0,-2.3828,-2.5564,-2.6738,-2.5252,-2.417,-2.297,-2.1033,0.0,0.0,0.0,-1.7769,-1.794,-1.7681,-1.8072,-1.8571,-1.9047,-1.9581,0.0,0.0,0.0,0.0,0.0,0.0,0.0,0.0,0.0,0.0,0.0,0.0,0.0,0.0,0.0,-3.4385,-3.6089,-3.6112,-3.6937,-3.8666,-3.8766,-3.8623,-3.8238,-3.807,-3.7974,-3.7974,-3.7974,0.0,0.0,0.0,0.0,0.0,-3.4593,-3.3578,-3.2709,-3.0673,-2.967,-2.9303,-2.8548,-2.8476,-2.88,0.0,0.0,0.0,0.0,0.0,0.0,0.0,0.0,0.0,0.0,0.0,0.0,0.0,0.0,0.0,0.0,0.0,0.0,0.0,0.0,0.0,0.0,0.0,0.0,0.0,0.0,-1.2522,-1.3256,-1.3881,-1.4434,-1.4911,-1.5251,0.0,0.0,0.0,0.0,0.0,0.0,0.0,0.0,0.0,0.0,-1.6431,0.0,0.0,0.0,0.0,0.0,0.0,0.0,0.0,0.0,0.0,0.0,0.0,0.0,-1.7789,0.0,0.0,-2.2868,-2.3969,-2.2887,-2.218,0.0,0.0,0.0,0.0,0.0,0.0,0.0,-1.7678,-1.8135,-1.8735,-1.9155,-1.9621,0.0,0.0,0.0,0.0,0.0,0.0,0.0,0.0,0.0,0.0,0.0,0.0,0.0,0.0,0.0,-3.3886,-3.5925,-3.6184,-3.7086,-3.8761,-3.8599,-3.8334,-3.7974,-3.7974,-3.7974,-3.7974,-3.7781,0.0,0.0,0.0,0.0,0.0,-3.4799,-3.4086,-3.3536,-3.1826,-3.0897,-3.038,-2.9323,-2.9326,-2.9921,0.0,0.0,0.0,0.0,0.0,0.0,0.0,0.0,0.0,0.0,0.0,0.0,0.0,0.0,0.0,0.0,0.0,0.0,0.0,0.0,0.0,0.0,0.0,0.0,0.0,-1.27,-1.3515,-1.4478,-1.5186,-1.5819,-1.637,-1.648,-1.658,0.0,0.0,0.0,0.0,0.0,0.0,0.0,0.0,0.0,0.0,0.0,0.0,0.0,0.0,0.0,0.0,0.0,0.0,0.0,0.0,0.0,0.0,0.0,0.0,0.0,0.0,0.0,0.0,0.0,0.0,0.0,0.0,0.0,0.0,0.0,0.0,0.0,0.0,-1.8337,-1.8962,-1.8757,-1.9429,0.0,0.0,0.0,0.0,0.0,0.0,0.0,0.0,0.0,0.0,0.0,0.0,0.0,0.0,0.0,-3.2606,-3.4796,-3.6095,-3.7394,-3.8641,-3.8214,-3.7974,-3.7926,-3.7926,-3.7926,-3.7902,-3.7372,0.0,0.0,0.0,0.0,0.0,-3.504,-3.4213,-3.33,-3.325,-3.2622,-3.1629,-3.0495,-3.0776,-3.1636,0.0,0.0,0.0,0.0,0.0,0.0,0.0,0.0,0.0,0.0,0.0,0.0,0.0,0.0,0.0,0.0,0.0,0.0,0.0,0.0,0.0,0.0,0.0,0.0,0.0,-1.3179,-1.3863,-1.429,-1.5352,-1.6027,-1.6332,-1.7038,-1.7239,-1.6991,-1.7225,0.0,0.0,0.0,0.0,0.0,0.0,0.0,0.0,0.0,0.0,0.0,-1.5239,-1.5038,0.0,0.0,0.0,0.0,0.0,0.0,0.0,0.0,-1.5074,-1.5496,-1.5955,0.0,-1.7605,-1.7232,0.0,0.0,0.0,0.0,0.0,0.0,0.0,0.0,0.0,0.0,0.0,0.0,0.0,0.0,0.0,0.0,0.0,0.0,0.0,0.0,0.0,0.0,0.0,0.0,0.0,0.0,0.0,0.0,-3.2493,-3.2742,-3.4712,-3.6354,-3.7565,-3.7853,-3.7781,-3.7372,-3.7372,-3.7372,-3.7348,-3.6819,0.0,0.0,0.0,0.0,-3.4992,-3.4823,-3.4677,-3.4311,-3.3499,-3.3279,-3.3317,-3.2214,-3.2193,-3.2718,0.0,0.0,0.0,0.0,0.0,0.0,0.0,0.0,0.0,0.0,0.0,0.0,0.0,0.0,0.0,0.0,0.0,0.0,0.0,0.0,0.0,0.0,0.0,0.0,0.0,-1.4311,-1.5143,-1.5852,-1.6593,-1.7208,-1.7687,-1.8209,-1.813,-1.7543,-1.7116,0.0,0.0,0.0,0.0,0.0,0.0,0.0,0.0,0.0,0.0,0.0,-1.503,-1.487,0.0,-1.5776,-1.5799,-1.5404,0.0,0.0,0.0,0.0,-1.4653,-1.4836,-1.4909,-1.5808,-1.6692,-1.6537,-1.6966,-1.7415,0.0,0.0,0.0,0.0,0.0,0.0,0.0,0.0,0.0,0.0,0.0,0.0,0.0,0.0,0.0,0.0,0.0,0.0,0.0,0.0,0.0,0.0,0.0,0.0,0.0,0.0,-3.1584,-3.1705,-3.3573,-3.5047,-3.6072,-3.69,-3.7108,-3.6819,-3.6819,-3.6819,-3.6819,-3.629,0.0,0.0,0.0,0.0,-3.4775,-3.4775,-3.4775,-3.475,-3.4424,-3.4484,-3.4664,-3.3799,-3.3786,-3.4125,0.0,0.0,0.0,0.0,0.0,0.0,0.0,0.0,0.0,0.0,0.0,0.0,0.0,0.0,0.0,0.0,0.0,0.0,0.0,0.0,0.0,0.0,0.0,0.0,0.0,-1.5565,-1.6474,-1.7622,-1.7952,-1.8467,-1.9127,-1.9237,-1.8871,-1.8045,-1.6982,0.0,0.0,0.0,0.0,0.0,-1.6094,0.0,0.0,0.0,0.0,0.0,0.0,0.0,0.0,-1.5569,-1.5679,-1.5515,-1.5588,0.0,0.0,0.0,0.0,0.0,-1.477,-1.6019,-1.7285,-1.712,-1.77,-1.8309,0.0,0.0,0.0,0.0,0.0,0.0,0.0,0.0,0.0,0.0,0.0,0.0,0.0,0.0,0.0,0.0,0.0,0.0,0.0,0.0,0.0,0.0,0.0,0.0,0.0,0.0,0.0,-3.1249,-3.2673,-3.3781,-3.4538,-3.5805,-3.6362,-3.629,-3.629,-3.629,-3.6266,-3.5737,-3.5497,0.0,0.0,0.0,-3.4775,-3.4775,-3.4775,-3.4823,-3.54,-3.5617,-3.5515,-3.5203,-3.5337,-3.5491,0.0,0.0,0.0,0.0,0.0,0.0,0.0,0.0,0.0,0.0,0.0,0.0,0.0,0.0,0.0,0.0,0.0,0.0,0.0,0.0,0.0,0.0,0.0,0.0,0.0,0.0,0.0,0.0,0.0,-1.8155,-1.832,-1.8999,-1.8871,-1.8063,-1.755,-1.7128,-1.6798,-1.6618,-1.65,-1.6336,-1.5914,0.0,0.0,0.0,0.0,0.0,0.0,0.0,0.0,-1.5253,-1.5087,-1.4744,-1.5074,0.0,0.0,0.0,0.0,0.0,-1.5336,-1.6554,-1.7528,-1.6785,-1.7254,-1.7837,0.0,0.0,0.0,0.0,0.0,0.0,0.0,0.0,0.0,0.0,0.0,0.0,0.0,0.0,0.0,0.0,0.0,0.0,0.0,0.0,0.0,0.0,0.0,0.0,0.0,0.0,0.0,-3.0686,-3.1827,-3.2731,-3.343,-3.5426,-3.617,-3.5737,-3.5737,-3.5737,-3.5713,-3.5184,-3.4895,0.0,0.0,-3.4775,-3.4775,-3.4775,-3.4775,-3.4823,-3.54,-3.5617,-3.5639,-3.5992,-3.6186,-3.6023,0.0,0.0,0.0,0.0,0.0,0.0,0.0,0.0,0.0,0.0,0.0,0.0,0.0,0.0,0.0,0.0,0.0,0.0,0.0,0.0,0.0,0.0,0.0,0.0,0.0,0.0,0.0,0.0,0.0,-1.8559,-1.876,-1.8687,-1.8357,-1.777,-1.7367,-1.7143,-1.7063,-1.6961,-1.6824,-1.6614,0.0,0.0,0.0,0.0,0.0,0.0,0.0,0.0,0.0,0.0,-1.5472,-1.5219,-1.5407,0.0,0.0,0.0,0.0,0.0,-1.5397,-1.6439,-1.7417,-1.7329,-1.8139,-1.8854,-1.8516,0.0,0.0,0.0,0.0,0.0,0.0,0.0,0.0,0.0,0.0,0.0,0.0,0.0,0.0,0.0,0.0,0.0,0.0,0.0,0.0,0.0,0.0,0.0,0.0,0.0,0.0,0.0,-3.0469,-3.1482,-3.1542,-3.3664,-3.4727,-3.4703,-3.4487,-3.4366,-3.4342,-3.4102,-3.4006,-3.4006,0.0,-3.415,-3.4366,-3.4366,-3.451,-3.4823,-3.54,-3.5785,-3.6026,-3.6002,-3.5785,-3.5328,0.0,0.0,0.0,0.0,0.0,0.0,0.0,0.0,0.0,0.0,0.0,0.0,0.0,0.0,0.0,0.0,0.0,0.0,0.0,0.0,0.0,0.0,0.0,0.0,0.0,0.0,-1.7568,-1.7972,-1.8375,-1.8779,-1.9146,-1.854,-1.799,-1.7477,0.0,-1.7121,-1.7201,-1.727,-1.7128,-1.6831,0.0,0.0,0.0,0.0,0.0,0.0,0.0,0.0,0.0,0.0,0.0,0.0,0.0,0.0,0.0,-1.5429,-1.5332,-1.5381,-1.5606,-1.6336,-1.7187,-1.765,0.0,-1.9492,-1.957,0.0,0.0,0.0,0.0,0.0,0.0,0.0,0.0,0.0,0.0,0.0,0.0,0.0,0.0,0.0,0.0,0.0,0.0,0.0,0.0,0.0,0.0,0.0,0.0,0.0,0.0,0.0,-2.9421,-3.0466,-3.0823,-3.2136,-3.3123,-3.3814,-3.3477,-3.3284,-3.3284,-3.3284,-3.3284,-3.3284,-3.3284,-3.3501,-3.3814,-3.3934,-3.415,-3.4535,-3.5184,-3.5689,-3.5978,-3.5449,-3.4943,-3.4414,0.0,0.0,0.0,0.0,0.0,0.0,0.0,0.0,0.0,0.0,0.0,0.0,0.0,0.0,0.0,0.0,0.0,0.0,0.0,0.0,0.0,0.0,0.0,0.0,0.0,-1.6927,-1.7147,-1.7532,-1.7972,-1.8338,-1.876,-1.8687,-1.8247,-1.7495,0.0,-1.7539,-1.7235,-1.7545,-1.7432,-1.7042,-1.6767,0.0,0.0,0.0,0.0,0.0,0.0,0.0,0.0,0.0,0.0,0.0,0.0,0.0,-1.5478,-1.5624,-1.5653,-1.5761,-1.6277,-1.6695,-1.703,-1.705,0.0,0.0,-2.0155,0.0,0.0,0.0,0.0,0.0,0.0,0.0,0.0,0.0,0.0,0.0,0.0,0.0,0.0,0.0,0.0,0.0,0.0,0.0,0.0,0.0,0.0,0.0,0.0,0.0,0.0,0.0,0.0,-3.0139,-3.3051,-3.1786,-3.1903,-3.3332,-3.3308,-3.3284,-3.3284,-3.3284,-3.3284,-3.3284,-3.3284,-3.3308,-3.338,-3.379,-3.3789,-3.3501,-3.4487,-3.4847,-3.4823,-3.4294,-3.4078,-3.403,0.0,0.0,0.0,0.0,0.0,0.0,0.0,0.0,0.0,0.0,0.0,0.0,0.0,0.0,0.0,0.0,0.0,0.0,0.0,0.0,0.0,0.0,0.0,-1.6541,-1.6541,-1.7275,-1.7862,-1.8247,-1.8412,-1.8393,-1.8339,-1.8193,0.0,0.0,0.0,-1.7578,-1.751,-1.7647,-1.7364,-1.6825,-1.6733,-1.637,0.0,0.0,0.0,0.0,0.0,0.0,0.0,0.0,0.0,0.0,0.0,0.0,0.0,0.0,-1.5951,-1.5963,-1.6086,-1.6757,-1.7367,-1.7367,0.0,0.0,0.0,0.0,0.0,0.0,0.0,0.0,0.0,0.0,0.0,0.0,0.0,0.0,0.0,0.0,0.0,0.0,0.0,0.0,0.0,0.0,0.0,0.0,0.0,0.0,0.0,0.0,0.0,0.0,0.0,-2.8609,-3.042,-3.0468,-3.1249,-3.2803,-3.2442,-3.2319,-3.2319,-3.2319,-3.2319,-3.2319,-3.2319,-3.2466,-3.2827,-3.2996,-3.3164,-3.3356,-3.4006,-3.4294,-3.427,-3.4054,-3.4198,-3.439,0.0,0.0,0.0,0.0,0.0,0.0,0.0,0.0,0.0,0.0,0.0,0.0,0.0,0.0,0.0,0.0,0.0,0.0,0.0,0.0,0.0,0.0,0.0,-1.6248,-1.6471,-1.7276,-1.788,-1.8137,-1.8394,-1.832,-1.8009,0.0,0.0,0.0,0.0,0.0,-1.7908,-1.7707,-1.7362,-1.6978,-1.6621,-1.6294,0.0,0.0,0.0,0.0,0.0,0.0,0.0,0.0,0.0,0.0,0.0,0.0,0.0,0.0,0.0,-1.6161,-1.5904,-1.6457,-1.7156,0.0,0.0,0.0,0.0,0.0,0.0,0.0,0.0,0.0,0.0,0.0,0.0,0.0,0.0,0.0,0.0,0.0,0.0,0.0,0.0,0.0,0.0,0.0,0.0,0.0,0.0,0.0,0.0,0.0,0.0,0.0,0.0,-2.6952,-2.8267,-2.897,-2.9984,-3.1321,-3.1416,-3.1717,-3.2223,-3.2223,-3.2223,-3.2223,-3.2054,-3.2154,-3.2491,-3.2491,-3.2707,-3.3068,-3.3212,-3.3501,-3.3742,-3.3574,-3.4054,-3.4655,0.0,0.0,0.0,0.0,0.0,0.0,0.0,0.0,0.0,0.0,0.0,0.0,0.0,0.0,0.0,0.0,0.0,0.0,0.0,0.0,0.0,0.0,0.0,-1.6065,-1.6872,-1.6908,-1.6908,-1.6908,-1.7715,-1.799,-1.7819,-1.821,0.0,0.0,0.0,0.0,-1.8367,-1.7687,-1.7462,-1.7493,-1.6499,-1.6236,-1.6457,0.0,0.0,0.0,0.0,0.0,0.0,0.0,0.0,0.0,0.0,0.0,0.0,0.0,-1.5649,-1.6299,-1.5815,-1.591,0.0,0.0,0.0,0.0,0.0,0.0,0.0,0.0,0.0,0.0,0.0,0.0,0.0,0.0,0.0,0.0,0.0,0.0,0.0,0.0,0.0,0.0,0.0,0.0,0.0,0.0,0.0,0.0,0.0,0.0,0.0,0.0,0.0,0.0,-2.7393,-2.7305,-2.781,-2.883,-3.0228,-3.1721,-3.326,-3.3284,-3.3284,-3.326,-3.2731,-3.2515,-3.2515,-3.2515,-3.2515,-3.2442,-3.1889,-3.2391,-3.3236,-3.2707,-3.3501,-3.4703,0.0,0.0,0.0,0.0,0.0,0.0,0.0,0.0,0.0,0.0,0.0,0.0,0.0,0.0,0.0,0.0,0.0,0.0,0.0,0.0,0.0,0.0,0.0,0.0,0.0,0.0,-1.6762,-1.7312,-1.7712,-1.7859,0.0,0.0,0.0,-1.8263,0.0,0.0,-1.7687,-1.7579,-1.7204,-1.6673,-1.6446,-1.6317,-1.622,0.0,0.0,0.0,0.0,0.0,0.0,0.0,0.0,0.0,0.0,0.0,0.0,0.0,-1.5967,-1.6001,-1.6382,-1.6433,0.0,0.0,0.0,0.0,0.0,0.0,0.0,0.0,0.0,0.0,0.0,0.0,0.0,0.0,0.0,0.0,0.0,0.0,0.0,0.0,0.0,0.0,0.0,0.0,0.0,0.0,0.0,0.0,0.0,0.0,0.0,0.0,0.0,0.0,-2.6328,-2.6328,-2.7013,-2.8388,-2.9431,-3.0528,-3.1669,-3.2394,-3.2731,-3.2755,-3.2971,-3.3044,-3.3044,-3.3044,-3.3044,-3.3044,-3.2875,-3.3212,-3.3742,-3.3598,-3.4054,-3.4751,0.0,0.0,0.0,0.0,0.0,0.0,0.0,0.0,0.0,0.0,0.0,0.0,0.0,0.0,0.0,0.0,0.0,0.0,0.0,0.0,0.0,0.0,0.0,0.0,0.0,-1.6028,-1.6484,0.0,0.0,0.0,0.0,0.0,0.0,-1.844,0.0,-1.8453,0.0,-1.7474,-1.7045,-1.6477,-1.6317,-1.6223,-1.621,0.0,0.0,0.0,0.0,0.0,0.0,0.0,0.0,0.0,0.0,0.0,0.0,0.0,-1.5925,-1.6014,-1.6194,0.0,0.0,0.0,0.0,0.0,0.0,0.0,0.0,0.0,0.0,0.0,0.0,0.0,0.0,0.0,0.0,0.0,0.0,0.0,0.0,0.0,0.0,0.0,0.0,0.0,0.0,0.0,0.0,0.0,0.0,0.0,0.0,0.0,0.0,0.0,-2.43,-2.4813,-2.5501,-2.6497,-2.7743,-2.893,-3.0095,-3.1711,-3.2611,-3.2827,-3.314,-3.3164,-3.2996,-3.3212,-3.3284,-3.3284,-3.3284,-3.3597,-3.3982,-3.3982,-3.4318,-3.4775,0.0,0.0,0.0,0.0,0.0,0.0,0.0,0.0,0.0,0.0,0.0,0.0,0.0,0.0,0.0,0.0,0.0,0.0,0.0,0.0,0.0,0.0,0.0,0.0,0.0,0.0,0.0,0.0,0.0,0.0,0.0,0.0,-1.8785,-1.8559,0.0,-1.8778,-1.8048,-1.73,-1.69,-1.6695,-1.6162,-1.6116,-1.6374,-1.621,0.0,0.0,0.0,0.0,0.0,0.0,0.0,0.0,0.0,0.0,0.0,-1.5235,-1.5691,-1.6172,0.0,0.0,0.0,0.0,0.0,0.0,0.0,0.0,0.0,0.0,0.0,0.0,0.0,0.0,0.0,0.0,0.0,0.0,0.0,0.0,0.0,0.0,0.0,0.0,0.0,0.0,0.0,0.0,0.0,0.0,0.0,0.0,0.0,0.0,0.0,0.0,-2.1894,-2.3061,-2.368,0.0,-2.5614,-2.7229,-2.8717,-3.116,-3.2685,-3.3284,-3.3284,-3.302,-3.2611,-3.3092,-3.3284,-3.3284,-3.3284,-3.3573,-3.3934,-3.3982,-3.4294,-3.4703,0.0,0.0,0.0,0.0,0.0,0.0,0.0,0.0,0.0,0.0,0.0,0.0,0.0,0.0,0.0,0.0,0.0,0.0,0.0,0.0,0.0,0.0,0.0,0.0,0.0,0.0,0.0,0.0,0.0,0.0,0.0,0.0,0.0,-1.8144,0.0,-1.7994,-1.7241,-1.695,-1.6616,-1.6246,-1.63,-1.6345,-1.6402,-1.6345,-1.6374,0.0,0.0,0.0,0.0,0.0,0.0,0.0,-1.5691,-1.5691,-1.5732,-1.6029,-1.5876,0.0,0.0,0.0,0.0,0.0,0.0,0.0,0.0,0.0,0.0,0.0,0.0,0.0,0.0,0.0,0.0,0.0,0.0,0.0,0.0,0.0,0.0,0.0,0.0,0.0,0.0,0.0,0.0,0.0,0.0,0.0,0.0,0.0,0.0,0.0,0.0,-2.1894,-2.1894,-2.218,-2.2835,0.0,-2.4968,-2.6426,-2.8234,-2.9952,-3.1687,-3.3284,-3.3284,-3.3212,-3.314,-3.3236,-3.3284,-3.3284,-3.3284,-3.3356,-3.3501,-3.3838,-3.4054,-3.4222,0.0,0.0,0.0,0.0,0.0,0.0,0.0,0.0,0.0,0.0,0.0,0.0,0.0,0.0,0.0,0.0,0.0,0.0,0.0,0.0,0.0,0.0,0.0,0.0,0.0,0.0,0.0,0.0,0.0,0.0,0.0,0.0,0.0,-1.8144,0.0,-1.783,-1.7233,-1.6921,-1.6562,-1.6239,-1.6374,-1.6402,-1.6402,-1.6402,-1.6402,-1.6402,-1.6402,0.0,0.0,0.0,0.0,0.0,0.0,0.0,-1.5773,-1.6278,-1.6131,-1.5936,0.0,0.0,0.0,0.0,0.0,0.0,0.0,0.0,0.0,0.0,0.0,0.0,0.0,0.0,0.0,0.0,0.0,0.0,0.0,0.0,0.0,0.0,0.0,0.0,0.0,0.0,0.0,0.0,0.0,0.0,0.0,0.0,0.0,0.0,-2.1133,-2.129,-2.129,-2.1465,-2.1925,-2.2574,-2.3886,-2.5747,-2.805,-2.9519,-3.0941,-3.2154,-3.2394,-3.2659,-3.2923,-3.3188,-3.3284,-3.3284,-3.3284,-3.3428,-3.3669,-3.3886,-3.415,-3.4414,0.0,0.0,0.0,0.0,0.0,0.0,0.0,0.0,0.0,0.0,0.0,0.0,0.0,0.0,0.0,0.0,0.0,0.0,0.0,0.0,0.0,0.0,0.0,0.0,0.0,0.0,0.0,0.0,0.0,0.0,0.0,0.0,0.0,-1.8293,0.0,-1.7893,-1.7359,-1.6909,-1.6588,-1.6402,-1.6402,-1.6402,-1.6402,-1.6402,-1.6402,-1.6402,-1.6402,-1.6402,-1.6402,-1.6402,0.0,0.0,0.0,0.0,-1.5905,-1.6299,-1.6374,-1.6288,0.0,0.0,0.0,0.0,0.0,0.0,0.0,0.0,0.0,0.0,0.0,0.0,0.0,0.0,0.0,0.0,0.0,0.0,0.0,0.0,0.0,0.0,0.0,0.0,0.0,0.0,0.0,0.0,0.0,0.0,0.0,0.0,-2.0527,-2.0605,-2.0605,-2.0605,-2.0605,-2.0937,-2.1192,-2.1471,-2.337,-2.5537,-2.7911,-2.9231,-3.0158,-3.0802,-3.1356,-3.1793,-3.2274,-3.2779,-3.302,-3.302,-3.302,-3.3332,-3.3742,-3.3838,-3.415,-3.4583,0.0,0.0,0.0,0.0,0.0,0.0,0.0,0.0,0.0,0.0,0.0,0.0,0.0,0.0,0.0,0.0,0.0,0.0,-1.3424,0.0,0.0,-1.422,-1.4907,0.0,0.0,0.0,0.0,0.0,0.0,0.0,0.0,0.0,0.0,-1.8206,0.0,0.0,-1.6889,-1.6576,-1.6436,-1.6402,-1.6402,-1.6402,-1.6402,-1.6402,-1.6402,-1.6402,-1.6402,-1.6402,-1.6402,-1.6402,-1.6361,0.0,0.0,0.0,-1.6319,-1.6381,-1.6288,0.0,0.0,0.0,0.0,0.0,0.0,0.0,0.0,0.0,0.0,0.0,0.0,0.0,0.0,0.0,0.0,0.0,0.0,0.0,0.0,0.0,0.0,0.0,0.0,0.0,0.0,0.0,0.0,0.0,0.0,0.0,0.0,-2.0,-2.0176,-2.0586,-2.0605,-2.0605,-2.0605,-2.0664,-2.1271,-2.2441,-2.494,-2.6565,-2.7318,-2.8265,-2.9268,-3.023,-3.0759,-3.1067,-3.1187,-3.1693,-3.1934,-3.1934,-3.1934,-3.2226,-3.2755,-3.3212,-3.3428,-3.3549,0.0,0.0,0.0,0.0,0.0,0.0,0.0,0.0,0.0,0.0,0.0,0.0,0.0,0.0,0.0,-1.3405,-1.2761,-1.2533,-1.2937,-1.336,-1.37,-1.4063,-1.4551,-1.5018,0.0,0.0,0.0,0.0,0.0,0.0,0.0,-1.8148,-1.8494,0.0,0.0,0.0,0.0,0.0,0.0,-1.6402,-1.6402,-1.6345,-1.6239,-1.6374,-1.6345,-1.6239,-1.6374,-1.6402,-1.6402,-1.6402,-1.6402,-1.6402,-1.6402,0.0,0.0,0.0,-1.6345,0.0,0.0,0.0,0.0,0.0,0.0,0.0,0.0,0.0,0.0,0.0,0.0,0.0,0.0,0.0,0.0,0.0,0.0,0.0,0.0,0.0,0.0,0.0,0.0,0.0,0.0,0.0,0.0,0.0,0.0,0.0,-1.9551,-1.9551,-1.9648,-1.9881,-1.9881,-1.9961,-2.0195,-2.0195,-2.1201,-2.3255,-2.4828,-2.624,-2.749,-2.7869,-2.8643,-2.9653,-2.9893,-3.0326,-3.0946,-3.1163,-3.1452,-3.1717,-3.1717,-3.2054,-3.2539,-3.2755,-3.3044,-3.3308,0.0,0.0,0.0,0.0,0.0,0.0,0.0,0.0,0.0,0.0,0.0,0.0,0.0,0.0,0.0,0.0,-1.2561,-1.227,-1.2565,-1.3016,-1.3505,-1.4054,-1.4326,-1.4687,-1.5254,0.0,0.0,0.0,0.0,0.0,-1.7852,-1.8321,-1.8968,0.0,-1.954,0.0,0.0,0.0,0.0,0.0,0.0,-1.6341,-1.6104,-1.6267,-1.621,-1.6124,-1.6345,-1.6402,-1.6402,-1.6402,-1.6402,-1.6402,-1.6402,-1.6402,0.0,0.0,0.0,0.0,0.0,0.0,0.0,0.0,0.0,0.0,0.0,0.0,0.0,0.0,0.0,0.0,0.0,0.0,0.0,0.0,0.0,0.0,0.0,0.0,0.0,0.0,0.0,0.0,0.0,0.0,0.0,0.0,0.0,0.0,-1.9121,-1.9121,-1.918,-1.9277,-1.9297,-1.9434,-1.9746,-1.9863,-2.1075,-2.3388,-2.4361,-2.5639,-2.7165,-2.7684,-2.8282,-2.8907,-2.9172,-2.9821,-3.073,-3.0807,-3.1235,-3.1717,-3.1717,-3.2054,-3.2491,-3.2491,-3.2755,-3.3092,0.0,0.0,0.0,0.0,0.0,0.0,0.0,0.0,0.0,0.0,0.0,0.0,-1.3445,-1.3563,-1.3336,-1.2438,-1.2326,-1.2308,-1.2326,-1.282,-1.3392,-1.3972,-1.4377,0.0,-1.5381,0.0,0.0,0.0,0.0,0.0,-1.7422,-1.8048,-1.8988,-2.0143,-2.0272,-1.961,-1.8382,0.0,0.0,0.0,0.0,0.0,0.0,0.0,0.0,0.0,0.0,0.0,-1.6402,-1.6402,-1.6402,-1.6402,-1.6402,-1.6402,-1.6402,0.0,0.0,0.0,0.0,0.0,0.0,0.0,0.0,0.0,0.0,0.0,0.0,0.0,0.0,0.0,0.0,0.0,0.0,0.0,0.0,0.0,0.0,0.0,0.0,0.0,0.0,0.0,0.0,0.0,0.0,0.0,0.0,0.0,-1.8637,-1.8637,-1.8831,-1.9277,-1.9297,-1.9297,-1.9316,-1.9707,-2.0773,-2.2459,-2.3863,-2.4949,-2.5761,-2.7601,-2.8234,-2.7849,-2.8859,-2.9605,-3.0158,-3.0663,-3.1235,-3.1717,-3.1717,-3.2054,-3.2491,-3.2491,-3.2515,-3.2539,0.0,0.0,0.0,0.0,0.0,0.0,0.0,0.0,0.0,0.0,0.0,0.0,0.0,-1.358,-1.3329,-1.2973,-1.2632,-1.2431,-1.2431,-1.2613,-1.3113,-1.3961,-1.4134,-1.4596,-1.5362,0.0,0.0,0.0,0.0,-1.6107,-1.7145,-1.7592,-1.8152,-1.8885,-1.9783,-1.9622,-1.8652,-1.8473,0.0,0.0,0.0,0.0,0.0,0.0,0.0,0.0,0.0,0.0,0.0,-1.621,-1.6288,-1.6402,-1.6402,-1.6402,-1.6402,-1.6402,-1.6459,0.0,0.0,0.0,0.0,0.0,0.0,0.0,0.0,0.0,0.0,0.0,0.0,0.0,0.0,0.0,0.0,0.0,0.0,0.0,0.0,0.0,0.0,0.0,0.0,0.0,0.0,0.0,0.0,0.0,0.0,0.0,-1.8242,-1.8188,-1.8508,-1.9095,-1.9095,-1.9237,-1.9555,-2.0321,-2.1383,-2.288,-2.4158,-2.5547,-2.6954,-2.7311,-2.7546,-2.7714,-2.8114,-2.8787,-2.9605,-2.9797,-3.0182,-3.073,-3.1067,-3.1288,-3.1504,-3.1841,-3.2006,-3.2006,0.0,0.0,0.0,0.0,0.0,0.0,0.0,0.0,0.0,0.0,0.0,0.0,0.0,0.0,-1.3736,-1.3548,-1.3087,-1.2845,-1.2979,-1.289,-1.3253,-1.4227,-1.4266,-1.4604,-1.5391,0.0,0.0,0.0,0.0,0.0,0.0,-1.7093,-1.7521,-1.8133,-1.8954,-1.9151,0.0,0.0,0.0,-1.7284,0.0,0.0,-1.6377,0.0,0.0,0.0,0.0,0.0,0.0,0.0,0.0,0.0,-1.6514,-1.6469,-1.6402,-1.6459,-1.6524,0.0,0.0,0.0,0.0,0.0,0.0,0.0,0.0,0.0,0.0,0.0,0.0,0.0,0.0,0.0,0.0,0.0,0.0,0.0,0.0,0.0,0.0,0.0,0.0,0.0,0.0,0.0,0.0,0.0,0.0,0.0,-1.8178,-1.8144,-1.8259,-1.8643,-1.8643,-1.9002,-1.9693,-2.0508,-2.1758,-2.3452,-2.4428,-2.5686,-2.7176,-2.697,-2.6994,-2.7176,-2.733,-2.7969,-2.8787,-2.9148,-2.9508,-2.9869,-3.0398,-3.0657,-3.0663,-3.1043,-3.1284,-3.1452,0.0,0.0,0.0,0.0,0.0,0.0,0.0,0.0,0.0,-1.4192,0.0,0.0,0.0,0.0,0.0,-1.4065,-1.3606,-1.3529,-1.3961,-1.3717,-1.3906,-1.4746,-1.4813,-1.498,-1.5391,0.0,0.0,0.0,0.0,0.0,0.0,0.0,-1.7103,-1.8063,-1.7812,-1.8195,-1.9077,0.0,-1.9471,-1.8961,0.0,-1.7604,-1.7251,0.0,0.0,0.0,-1.7603,-1.7757,0.0,0.0,0.0,0.0,0.0,0.0,-1.6431,-1.6552,0.0,0.0,0.0,0.0,0.0,0.0,0.0,0.0,0.0,0.0,0.0,0.0,0.0,0.0,0.0,0.0,0.0,0.0,0.0,0.0,0.0,0.0,0.0,0.0,0.0,0.0,0.0,0.0,0.0,0.0,0.0,-1.8516,-1.8516,-1.8381,-1.8245,-1.8042,-1.8042,-1.858,-1.9672,-2.0197,-2.1689,-2.4095,-2.4613,-2.5335,-2.6166,-2.6633,-2.6585,-2.6117,-2.6633,-2.7162,-2.769,-2.8811,-2.9244,-2.9316,-2.9845,-3.0062,-3.0062,-3.0086,-3.0422,-3.0898,0.0,0.0,0.0,0.0,0.0,0.0,0.0,0.0,0.0,0.0,0.0,0.0,-1.4114,-1.4531,-1.4746,-1.4601,-1.4465,-1.4301,-1.4107,-1.3997,-1.4172,-1.4766,-1.4813,-1.498,-1.5391,0.0,0.0,0.0,0.0,0.0,0.0,0.0,0.0,0.0,-1.708,-1.7337,-1.7606,-1.806,0.0,0.0,-1.7448,-1.7311,0.0,0.0,0.0,0.0,0.0,-1.7208,0.0,0.0,-1.701,-1.7195,0.0,0.0,0.0,0.0,0.0,0.0,-1.6899,0.0,0.0,0.0,0.0,0.0,0.0,0.0,0.0,0.0,0.0,0.0,0.0,0.0,0.0,0.0,0.0,0.0,0.0,0.0,0.0,0.0,0.0,0.0,0.0,0.0,0.0,0.0,-1.8717,-1.865,-1.8516,-1.8831,-1.8911,-1.871,-1.871,-1.8872,-1.9197,-1.9686,-2.114,-2.3548,-2.4086,-2.5359,-2.7248,-2.6622,-2.6238,-2.6117,-2.6262,-2.619,-2.6093,-2.756,-2.8162,-2.8258,-2.9172,-2.9508,-2.9556,-2.9941,-3.0182,-3.0344,0.0,0.0,0.0,0.0,0.0,0.0,0.0,0.0,0.0,0.0,0.0,0.0,-1.5167,-1.5273,-1.5341,-1.5341,-1.5028,-1.4746,-1.464,-1.4484,-1.459,-1.5019,-1.5039,-1.5156,0.0,0.0,0.0,0.0,0.0,0.0,0.0,0.0,0.0,0.0,0.0,0.0,0.0,0.0,0.0,0.0,-1.7529,0.0,0.0,-1.7823,-1.777,0.0,0.0,0.0,-1.8015,-1.7362,-1.7376,0.0,0.0,0.0,0.0,0.0,0.0,0.0,0.0,0.0,0.0,0.0,0.0,0.0,0.0,-1.6864,0.0,0.0,0.0,0.0,0.0,0.0,0.0,0.0,0.0,0.0,0.0,0.0,0.0,0.0,0.0,0.0,0.0,0.0,0.0,0.0,-1.8795,-1.8852,-1.865,-1.8831,-1.8898,-1.8731,-1.863,-1.8731,-1.9011,-1.9499,-2.0976,-2.3379,-2.3702,-2.4998,-2.7007,-2.6166,-2.5757,-2.5757,-2.5757,-2.5588,-2.5396,-2.6574,-2.7138,-2.745,-2.8306,-2.8787,-2.9003,-2.9316,-2.9556,-2.979,0.0,0.0,0.0,0.0,0.0,0.0,0.0,0.0,0.0,0.0,0.0,-1.6309,-1.6726,-1.6406,-1.6163,-1.6163,-1.542,-1.5059,-1.5391,-1.5059,-1.5019,-1.5391,-1.541,-1.541,0.0,0.0,0.0,0.0,0.0,0.0,0.0,0.0,0.0,0.0,0.0,0.0,0.0,0.0,0.0,-1.8267,-1.7954,-1.8094,0.0,0.0,-1.8889,0.0,-1.8418,-1.8775,-1.9215,-1.7933,-1.7652,0.0,0.0,0.0,0.0,0.0,-1.7267,0.0,0.0,0.0,0.0,0.0,0.0,0.0,-1.6941,-1.6906,-1.6843,0.0,0.0,0.0,0.0,0.0,0.0,0.0,0.0,0.0,0.0,0.0,0.0,0.0,0.0,0.0,0.0,0.0,-1.831,-1.8414,-1.8787,-1.8969,-1.8836,-1.8569,-1.8402,-1.8335,-1.8104,-1.8327,-1.9011,-1.9539,-2.1038,-2.341,-2.341,-2.4355,-2.5997,-2.5396,-2.5204,-2.53,-2.5252,-2.5252,-2.5348,-2.5805,-2.6334,-2.6849,-2.745,-2.8017,-2.8426,-2.8498,-2.8811,-2.9277,-1.2705,0.0,0.0,0.0,0.0,0.0,0.0,0.0,0.0,0.0,0.0,0.0,-1.7207,-1.6875,-1.657,-1.657,-1.6113,-1.5733,-1.543,-1.5332,-1.5332,-1.541,-1.541,-1.541,-1.541,0.0,0.0,0.0,0.0,0.0,0.0,0.0,0.0,0.0,0.0,0.0,0.0,0.0,0.0,-1.7656,-1.7425,0.0,-1.8482,-1.8276,-1.8213,-1.8193,-1.8095,-1.8193,-1.8291,0.0,-1.7903,-1.7703,0.0,0.0,0.0,0.0,0.0,0.0,0.0,0.0,0.0,0.0,0.0,0.0,-1.7309,-1.7499,-1.7593,0.0,0.0,0.0,0.0,0.0,0.0,0.0,0.0,0.0,0.0,0.0,0.0,0.0,0.0,0.0,0.0,0.0,-1.7595,-1.8351,-1.8497,-1.8667,-1.8956,-1.8364,-1.8137,-1.8441,-1.8148,-1.8327,-1.9011,-1.9691,-2.0975,-2.2879,-2.3044,-2.3948,-2.542,-2.4506,-2.453,-2.5276,-2.4832,-2.4915,-2.5324,-2.542,-2.5781,-2.6358,-2.7306,-2.7738,-2.7921,-2.8354,-2.869,-2.8922,-1.3255,0.0,0.0,0.0,0.0,0.0,0.0,0.0,0.0,0.0,0.0,0.0,0.0,0.0,0.0,-1.6726,-1.6523,-1.6113,-1.5449,-1.5605,-1.5644,-1.543,-1.541,-1.541,-1.541,-1.541,0.0,0.0,0.0,0.0,0.0,0.0,0.0,0.0,0.0,0.0,0.0,0.0,-1.6679,-1.7165,-1.7203,0.0,-1.8381,-1.811,-1.8008,-1.8008,-1.8008,-1.8008,-1.8047,-1.8345,-1.8265,0.0,0.0,-1.8035,-1.7861,0.0,-1.8227,-1.8086,0.0,0.0,0.0,-1.8072,0.0,0.0,0.0,-1.7513,0.0,0.0,0.0,0.0,0.0,0.0,0.0,0.0,0.0,0.0,0.0,0.0,0.0,0.0,0.0,0.0,0.0,0.0,-1.7296,-1.8009,-1.805,-1.8145,-1.8333,-1.8118,-1.8253,-1.8776,-1.8816,-1.9077,-1.965,-2.0009,-2.0906,-2.2282,-2.2414,-2.3309,-2.4891,-2.4386,-2.4578,-2.53,-2.5035,-2.5059,-2.53,-2.53,-2.5468,-2.5805,-2.6873,-2.745,-2.7738,-2.8306,-2.8618,-2.8831,-1.383,0.0,0.0,0.0,0.0,0.0,0.0,0.0,0.0,0.0,0.0,0.0,0.0,0.0,0.0,0.0,0.0,0.0,0.0,0.0,0.0,-1.5547,-1.5449,-1.541,-1.541,-1.541,0.0,0.0,0.0,0.0,0.0,0.0,0.0,0.0,0.0,0.0,0.0,0.0,0.0,-1.69,0.0,-1.7656,-1.816,-1.8037,-1.8008,-1.8008,-1.8008,-1.8008,-1.8066,-1.8433,0.0,-1.8482,-1.8462,-1.8454,0.0,0.0,0.0,0.0,0.0,0.0,0.0,0.0,0.0,-1.8057,0.0,0.0,0.0,0.0,0.0,0.0,0.0,0.0,0.0,0.0,0.0,0.0,0.0,0.0,0.0,0.0,0.0,0.0,0.0,0.0,-1.7254,-1.7544,-1.7647,-1.7729,-1.7748,-1.7801,-1.8186,-1.891,-1.9287,-1.976,-2.0365,-2.0462,-2.0986,-2.2004,-2.1971,-2.2803,-2.4362,-2.4266,-2.4626,-2.53,-2.5204,-2.5204,-2.53,-2.53,-2.53,-2.542,-2.6382,-2.7066,-2.7633,-2.8201,-2.86,-2.887,-1.345,-1.4061,0.0,0.0,0.0,0.0,0.0,0.0,0.0,0.0,0.0,0.0,0.0,0.0,0.0,0.0,0.0,0.0,-1.7676,0.0,0.0,0.0,0.0,0.0,-1.541,-1.541,-1.5517,0.0,0.0,0.0,0.0,0.0,0.0,0.0,-1.5827,0.0,0.0,0.0,-1.6575,0.0,-1.7644,-1.7755,0.0,-1.7919,-1.8008,-1.8008,-1.8008,-1.8008,-1.8008,0.0,-1.8421,-1.8549,0.0,-1.8911,0.0,0.0,0.0,0.0,0.0,0.0,0.0,0.0,-1.8348,0.0,0.0,0.0,0.0,0.0,0.0,0.0,0.0,0.0,0.0,0.0,0.0,0.0,0.0,0.0,0.0,0.0,0.0,0.0,0.0,0.0,0.0,-1.711,-1.7461,-1.7747,-1.7867,-1.7289,-1.7398,-1.8355,-1.8763,-1.9478,-2.0558,-2.1028,-2.1643,-2.2339,-2.2207,-2.2759,-2.3866,-2.3408,-2.3953,-2.5276,-2.4819,-2.4867,-2.53,-2.53,-2.53,-2.5372,-2.5973,-2.6526,-2.7079,-2.7801,-2.848,-2.9091,-1.3649,-1.4436,0.0,0.0,0.0,0.0,0.0,0.0,0.0,0.0,0.0,0.0,0.0,0.0,0.0,0.0,0.0,-1.832,0.0,0.0,0.0,0.0,0.0,0.0,0.0,-1.6068,-1.6069,0.0,-1.6073,0.0,0.0,0.0,0.0,0.0,-1.6128,0.0,-1.6867,0.0,0.0,0.0,0.0,0.0,0.0,-1.7919,-1.8008,-1.8008,-1.8008,-1.8008,-1.8008,0.0,-1.8381,0.0,0.0,0.0,0.0,0.0,0.0,0.0,0.0,0.0,0.0,0.0,0.0,0.0,0.0,0.0,-1.7547,0.0,0.0,0.0,0.0,0.0,0.0,0.0,0.0,0.0,0.0,0.0,0.0,0.0,0.0,0.0,0.0,0.0,0.0,0.0,0.0,-1.6967,-1.7019,-1.7281,-1.7768,-1.8512,-1.9298,-2.0223,-2.1322,-2.1471,-2.1808,-2.2389,-2.2259,-2.2751,-2.3794,-2.3577,-2.4121,-2.53,-2.5083,-2.5107,-2.53,-2.53,-2.53,-2.5324,-2.5671,-2.6311,-2.7171,-2.7756,-2.8523,-2.9263,-1.3847,0.0,0.0,0.0,0.0,0.0,0.0,0.0,0.0,0.0,0.0,0.0,-1.957,-1.9666,0.0,0.0,0.0,-1.9746,0.0,0.0,-1.7676,0.0,0.0,0.0,0.0,0.0,0.0,0.0,0.0,0.0,0.0,0.0,0.0,0.0,0.0,-1.643,-1.6981,0.0,0.0,-1.6748,-1.74,-1.7623,-1.7632,-1.7919,-1.8008,-1.8008,-1.8008,-1.8008,-1.8008,-1.8076,-1.8414,0.0,-1.8563,0.0,0.0,0.0,0.0,0.0,-1.9976,0.0,0.0,0.0,0.0,0.0,0.0,0.0,0.0,0.0,0.0,0.0,0.0,0.0,0.0,0.0,0.0,0.0,0.0,0.0,0.0,0.0,0.0,0.0,0.0,0.0,0.0,0.0,-1.6498,0.0,-1.6423,-1.7098,-1.7758,-1.8391,-1.9553,-2.0573,-2.1408,-2.1784,-2.2032,-2.218,-2.238,-2.2935,-2.3818,-2.3938,-2.4458,-2.53,-2.53,-2.53,-2.53,-2.53,-2.53,-2.53,-2.5535,-2.6201,-2.7139,-2.7726,-2.8554,-2.9419,-1.396,-1.4342,0.0,0.0,0.0,0.0,0.0,0.0,0.0,0.0,0.0,0.0,0.0,0.0,0.0,0.0,0.0,-2.1132,-2.1073,0.0,-1.7812,0.0,0.0,-1.6523,0.0,0.0,0.0,0.0,0.0,0.0,0.0,0.0,0.0,0.0,0.0,-1.6664,-1.7461,-1.686,-1.6738,-1.6982,-1.7022,-1.728,-1.7632,0.0,-1.8008,-1.8008,-1.8008,0.0,0.0,-1.8212,-1.8516,0.0,0.0,0.0,0.0,0.0,0.0,0.0,0.0,0.0,0.0,-1.9487,0.0,0.0,0.0,0.0,-1.7846,0.0,0.0,0.0,0.0,0.0,0.0,-1.6574,0.0,0.0,0.0,0.0,0.0,0.0,0.0,0.0,0.0,0.0,0.0,-1.6436,-1.6738,-1.68,-1.6423,-1.6423,-1.6838,-1.7698,-1.9089,-1.9924,-2.0161,-2.1963,-2.2427,-2.1628,-2.2678,-2.3393,-2.3818,-2.4266,-2.4795,-2.53,-2.53,-2.53,-2.53,-2.53,-2.53,-2.53,-2.5535,-2.6053,-2.6795,-2.7556,-2.8499,-2.9419,0.0,0.0,0.0,0.0,0.0,0.0,0.0,-1.8247,0.0,0.0,0.0,0.0,0.0,0.0,-2.2324,0.0,0.0,-2.2087,-2.1249,-2.0273,0.0,0.0,0.0,-1.8154,0.0,0.0,0.0,0.0,0.0,0.0,0.0,0.0,0.0,0.0,0.0,-1.7173,0.0,0.0,0.0,0.0,0.0,-1.768,-1.7632,0.0,0.0,-1.8178,-1.8042,-1.8008,0.0,-1.8076,-1.8414,-1.8785,-1.8717,-1.9085,-1.9483,-1.9417,-1.945,0.0,0.0,0.0,-1.954,-1.9695,0.0,0.0,0.0,0.0,0.0,0.0,0.0,0.0,0.0,0.0,-1.724,-1.706,-1.7197,0.0,0.0,0.0,0.0,0.0,0.0,0.0,0.0,0.0,0.0,-1.5504,-1.5898,-1.6084,0.0,-1.6581,-1.7026,-1.7234,-1.8829,-1.987,-2.0308,-2.1587,-2.2273,-2.2328,-2.2559,-2.3054,-2.3818,-2.3986,-2.4506,-2.53,-2.53,-2.53,-2.53,-2.5465,-2.55,-2.5535,-2.5875,-2.6371,-2.6937,-2.7182,-2.8027,-2.9138,-1.5364,0.0,0.0,0.0,0.0,0.0,0.0,0.0,0.0,0.0,-2.0956,0.0,-2.3359,0.0,-2.3242,0.0,-2.375,-2.3003,-2.1736,-2.1269,0.0,-1.889,-1.9141,0.0,0.0,0.0,0.0,0.0,0.0,-1.7315,0.0,0.0,0.0,0.0,0.0,0.0,0.0,0.0,-1.696,0.0,0.0,-1.8015,0.0,0.0,-1.8482,-1.8279,0.0,-1.8008,-1.8008,-1.8076,-1.8381,-1.8684,-1.8617,-1.8985,-1.9396,-1.9285,-1.9297,-1.9429,-1.9483,-1.9417,0.0,-1.9714,-1.9009,0.0,-1.8763,0.0,0.0,0.0,0.0,0.0,0.0,0.0,0.0,-1.7328,-1.7306,-1.701,0.0,-1.5801,0.0,0.0,0.0,0.0,0.0,0.0,-1.5787,-1.5356,-1.5606,-1.5835,0.0,0.0,-1.7233,-1.7341,-1.8854,-1.9883,-2.0366,-2.1456,-2.214,-2.2328,-2.2809,-2.3312,-2.3818,-2.4179,-2.4675,-2.53,-2.53,-2.5335,-2.543,-2.5535,-2.5641,-2.5735,-2.605,-2.6412,-2.677,-2.7016,-2.7862,-2.8988,0.0,0.0,0.0,0.0,-1.7461,0.0,0.0,0.0,-2.1151,0.0,-2.2031,-2.2715,-2.3306,-2.3613,-2.3984,-2.4414,-2.4414,0.0,-2.2617,-2.2148,0.0,0.0,-1.9375,-1.8965,-1.8066,0.0,0.0,0.0,0.0,0.0,0.0,0.0,0.0,0.0,-1.8427,0.0,-1.6818,-1.7215,-1.6888,-1.6263,-1.765,-1.8177,-1.8271,-1.8845,0.0,-1.8313,-1.811,-1.8008,-1.8042,-1.8245,-1.8381,-1.8549,-1.8751,-1.8931,-1.9098,-1.9098,-1.9098,-1.9131,-1.9252,-1.9264,-1.9309,-1.9528,0.0,0.0,0.0,0.0,-1.8516,0.0,0.0,0.0,0.0,0.0,0.0,-1.7415,-1.7328,-1.6846,0.0,0.0,0.0,0.0,0.0,0.0,0.0,-1.6133,-1.6231,-1.5831,-1.5846,0.0,0.0,0.0,-1.7353,-1.7832,-1.9099,-1.9956,-2.0259,-2.1653,-2.2124,-2.169,-2.3353,-2.4018,-2.3842,-2.4829,-2.5252,-2.53,-2.5335,-2.543,-2.5606,-2.5641,-2.5735,-2.5945,-2.6144,-2.6213,-2.6348,-2.7047,-2.7996,-2.8938,-1.6211,-1.7139,-1.7916,0.0,-1.7812,-1.7969,0.0,0.0,0.0,0.0,-2.2773,-2.3281,-2.5332,-2.4785,-2.4434,-2.4863,-2.4316,0.0,0.0,0.0,0.0,-2.0331,-2.0566,-1.9982,-1.8481,-1.8789,0.0,-1.7227,0.0,0.0,-1.7447,0.0,0.0,0.0,0.0,0.0,-1.7009,-1.7791,-1.7601,-1.6812,-1.7521,-1.787,0.0,0.0,-1.8479,-1.865,-1.8448,-1.8313,-1.8245,-1.8414,-1.8482,-1.8549,-1.8751,-1.8931,-1.9098,-1.9098,-1.9098,-1.9098,-1.9131,-1.8882,-1.8748,-1.9246,-1.8669,-1.8164,0.0,0.0,0.0,0.0,0.0,0.0,0.0,0.0,0.0,0.0,0.0,0.0,0.0,0.0,0.0,0.0,0.0,0.0,-1.5621,-1.5351,-1.4936,-1.4377,-1.5088,0.0,0.0,0.0,0.0,-1.6777,-1.8747,-1.9855,-1.9934,-2.1907,-2.279,-2.2549,-2.3028,-2.3469,-2.3959,-2.4359,-2.492,-2.5535,-2.5676,-2.5805,-2.584,-2.598,-2.6084,-2.6119,-2.6327,-2.6681,-2.7072,-2.7695,-2.8072,-2.8398,-1.6632,0.0,0.0,-1.9416,0.0,0.0,-2.0313,0.0,0.0,-2.3242,-2.3418,0.0,-2.4844,-2.4805,-2.4648,-2.4512,-2.4062,0.0,0.0,0.0,0.0,-2.0898,-2.0723,-2.0079,-1.8945,-1.8965,0.0,-1.7656,0.0,0.0,-1.7527,0.0,0.0,0.0,0.0,-1.8323,0.0,-1.7482,-1.7449,-1.7201,-1.7298,0.0,0.0,-1.8191,-1.8347,-1.8312,-1.8418,-1.8435,-1.8414,-1.8583,-1.865,-1.8684,-1.8865,-1.8998,-1.9098,-1.9098,-1.9098,-1.9098,-1.9098,-1.8911,-1.8725,-1.8852,-1.8364,-1.7936,-1.8406,-1.8141,-1.7811,0.0,0.0,0.0,0.0,0.0,0.0,0.0,0.0,0.0,0.0,0.0,0.0,0.0,0.0,0.0,-1.599,-1.5257,-1.4729,-1.4591,0.0,0.0,0.0,0.0,0.0,-1.6892,-1.8983,-2.0128,-2.0134,-2.208,-2.301,-2.2909,-2.3157,-2.3571,-2.4124,-2.4501,-2.5031,-2.5735,-2.584,-2.5945,-2.6015,-2.6144,-2.6248,-2.6327,-2.6465,-2.6826,-2.7318,-2.762,-2.7896,-2.8222,0.0,0.0,0.0,0.0,0.0,0.0,0.0,-2.1836,0.0,-2.3081,0.0,-2.4141,-2.3335,-2.4258,-2.4609,-2.3848,0.0,-2.3535,-2.312,-2.275,-2.2165,-2.1327,-2.0489,-1.9844,-1.9297,-1.8831,0.0,0.0,0.0,0.0,0.0,0.0,0.0,0.0,0.0,0.0,0.0,-1.7021,-1.7104,0.0,-1.7011,-1.7093,-1.7574,-1.8239,-1.8155,-1.775,-1.8154,-1.834,-1.8422,-1.8662,-1.8716,-1.877,-1.9011,-1.9098,-1.9098,-1.9098,-1.9098,-1.9098,-1.9036,-1.8973,-1.8828,-1.8402,-1.7968,-1.7657,-1.7904,-1.7579,-1.7408,-1.7929,-1.798,-1.7862,0.0,0.0,0.0,0.0,0.0,0.0,0.0,0.0,0.0,0.0,0.0,0.0,0.0,-1.5582,0.0,0.0,0.0,0.0,0.0,0.0,0.0,-1.7457,-1.9304,0.0,-2.0585,0.0,-2.2931,-2.304,-2.3499,-2.3963,-2.4345,-2.492,-2.5462,-2.5945,-2.598,-2.6084,-2.6248,-2.6248,-2.6327,-2.6499,-2.6499,-2.6826,-2.7293,-2.7293,-2.7595,-2.8147,0.0,0.0,0.0,0.0,0.0,-2.2519,-2.3223,-2.3105,-2.3062,-2.3613,-2.4102,-2.4355,-2.4199,-2.4082,-2.3945,-2.3809,-2.3457,0.0,0.0,0.0,0.0,-2.1816,-2.1249,-2.0469,-1.9316,-1.8831,-1.8403,0.0,0.0,0.0,0.0,0.0,0.0,0.0,0.0,0.0,-1.8428,-1.8186,0.0,-1.7461,-1.7102,-1.7184,-1.7482,-1.7327,-1.7471,-1.7709,-1.7792,-1.776,-1.7757,-1.8285,-1.8376,-1.8308,-1.8907,-1.9098,-1.9098,-1.9098,-1.9098,-1.9015,-1.8642,-1.8237,-1.7915,-1.7833,-1.7482,-1.7234,-1.7636,-1.7398,-1.7087,-1.7199,-1.6959,-1.685,-1.724,0.0,0.0,0.0,0.0,0.0,0.0,0.0,0.0,0.0,0.0,0.0,0.0,0.0,0.0,0.0,0.0,0.0,0.0,0.0,0.0,0.0,0.0,0.0,0.0,0.0,-2.2718,-2.3644,-2.3839,-2.4122,-2.4484,-2.5195,-2.5743,-2.6179,-2.6327,-2.643,-2.6465,-2.6465,-2.6465,-2.6499,-2.6499,-2.6826,-2.7293,-2.7293,-2.7379,-2.7519,0.0,0.0,0.0,0.0,0.0,0.0,0.0,-2.429,0.0,-2.4141,-2.4297,-2.4258,-2.3809,-2.3965,-2.3926,-2.3496,-2.3218,-2.3101,-2.3101,-2.2886,-2.2539,-2.1914,-2.125,0.0,-1.9316,-1.8831,-1.8403,-1.8008,0.0,0.0,0.0,0.0,0.0,0.0,0.0,-1.8197,0.0,0.0,0.0,-1.7265,-1.6752,-1.6632,-1.6807,-1.6947,-1.7006,-1.7057,-1.7254,-1.7162,-1.707,-1.8071,-1.8349,-1.8368,-1.892,-1.9098,-1.9098,-1.9098,-1.8932,-1.8704,-1.8476,-1.8071,-1.7647,-1.7399,-1.7172,-1.7006,-1.7036,-1.7006,-1.7006,-1.7006,-1.6841,-1.6763,-1.6917,-1.723,0.0,0.0,0.0,0.0,0.0,0.0,0.0,0.0,0.0,0.0,0.0,0.0,0.0,0.0,0.0,0.0,0.0,0.0,0.0,0.0,0.0,0.0,0.0,0.0,0.0,-2.3459,-2.3823,-2.4217,-2.4671,-2.5327,-2.5879,-2.6361,-2.6465,-2.6499,-2.6499,-2.6499,-2.6499,-2.6499,-2.6499,-2.6826,-2.7278,-2.7002,-2.7394,-2.8172,0.0,-2.0645,0.0,0.0,-2.3621,0.0,-2.4512,-2.5187,-2.5401,-2.4668,-2.4551,-2.4238,-2.3423,-2.3887,-2.3984,-2.3159,-2.3101,-2.3101,-2.3101,-2.2789,-2.2422,-2.1914,-2.1075,-2.0194,-1.9297,-1.8769,-1.8301,0.0,0.0,0.0,0.0,0.0,0.0,0.0,0.0,0.0,0.0,0.0,-1.7004,-1.6909,-1.6382,-1.6153,-1.6222,-1.6708,-1.6684,-1.6436,-1.6738,-1.6726,-1.6705,-1.7864,-1.8237,-1.834,-1.8932,-1.9098,-1.9077,-1.8994,-1.8704,-1.8372,-1.8154,-1.7812,-1.744,-1.6986,-1.6882,-1.6779,-1.6456,-1.6643,-1.6882,-1.6882,-1.6882,-1.6858,-1.6741,-1.7024,0.0,0.0,0.0,0.0,0.0,0.0,0.0,0.0,0.0,0.0,0.0,0.0,0.0,0.0,0.0,0.0,0.0,0.0,0.0,0.0,0.0,-2.0293,-2.0901,0.0,-2.287,0.0,-2.386,-2.4406,-2.48,-2.5485,-2.6072,-2.6499,-2.6499,-2.6499,-2.6499,-2.6625,-2.6675,-2.6675,-2.6675,-2.6927,-2.7253,-2.67,-2.7293,-2.8423,0.0,0.0,0.0,0.0,0.0,0.0,0.0,-2.543,-2.5566,-2.5078,-2.5,-2.4687,-2.3828,-2.3809,-2.3652,-2.314,-2.3101,-2.3101,-2.3101,-2.3062,-2.2672,-2.1914,-2.1075,-2.0194,-1.9297,-1.8477,-1.7871,0.0,0.0,0.0,0.0,0.0,0.0,0.0,0.0,0.0,0.0,-1.6898,-1.6691,-1.6464,-1.6394,-1.6374,-1.6374,-1.6415,-1.6444,-1.6423,-1.6436,-1.6684,-1.7027,-1.7585,-1.7771,-1.7915,-1.8828,-1.9098,-1.9015,-1.86,-1.8434,-1.8195,-1.7358,-1.711,-1.6965,-1.656,-1.6464,-1.6464,-1.6423,-1.6444,-1.6464,-1.6464,-1.6464,-1.6618,-1.7147,-1.683,-1.6675,0.0,0.0,0.0,0.0,0.0,0.0,0.0,0.0,0.0,0.0,0.0,0.0,0.0,0.0,0.0,0.0,0.0,0.0,-1.873,0.0,-2.0051,-2.1952,-2.2107,0.0,-2.3732,-2.4417,-2.475,-2.4825,-2.5946,-2.6449,-2.6499,-2.6499,-2.6499,-2.6524,-2.7027,-2.7253,-2.7253,-2.7253,-2.7278,-2.7253,-2.67,-2.66,-2.6876,0.0,0.0,0.0,0.0,0.0,0.0,0.0,-2.5625,-2.5615,-2.5488,-2.5234,-2.4793,-2.3887,-2.3789,-2.3613,-2.314,-2.3101,-2.3101,-2.3101,-2.2867,-2.25,-2.1914,-2.1075,-2.0194,-1.9297,-1.8691,-1.8047,0.0,0.0,0.0,0.0,0.0,0.0,0.0,0.0,-1.6864,-1.6896,-1.6658,-1.651,-1.6402,-1.6402,-1.6402,-1.6402,-1.6402,-1.6402,-1.6444,-1.6684,-1.6862,-1.711,-1.7885,-1.8112,-1.8237,-1.8891,-1.9098,-1.9015,-1.8559,-1.8195,-1.7843,-1.7192,-1.682,-1.6601,-1.6444,-1.6402,-1.6402,-1.6402,-1.6788,-1.7119,-1.6829,-1.6738,-1.6829,-1.7075,-1.7009,-1.6892,0.0,0.0,0.0,0.0,0.0,0.0,0.0,0.0,0.0,0.0,0.0,0.0,0.0,0.0,0.0,0.0,0.0,0.0,-1.944,0.0,-2.0635,-2.2201,-2.2515,-2.3077,-2.3924,-2.4828,-2.5285,-2.531,-2.6122,-2.6499,-2.6524,-2.6851,-2.6977,-2.7002,-2.7228,-2.7293,-2.7278,-2.6952,-2.6826,-2.6826,-2.6952,-2.7203,-2.7544,-2.0167,0.0,-2.2191,0.0,-2.4269,-2.4972,-2.5596,-2.5693,-2.5596,-2.5343,-2.5078,-2.4648,-2.4043,-2.3867,-2.3613,-2.314,-2.3101,-2.3042,-2.2925,-2.2676,-2.2207,-2.1523,-2.082,0.0,-1.9121,-1.8555,-1.791,-1.7187,-1.781,0.0,0.0,0.0,0.0,0.0,-1.6646,-1.6605,-1.672,-1.644,-1.6345,-1.6402,-1.6402,-1.6402,-1.6402,-1.6402,-1.6402,-1.6436,-1.6862,-1.711,-1.7316,-1.7968,-1.8361,-1.8662,-1.8994,-1.9015,-1.8808,-1.8319,-1.7854,-1.7399,-1.6944,-1.6622,-1.6402,-1.6402,-1.6402,-1.6444,-1.6539,-1.7048,-1.7399,-1.7089,-1.6903,-1.682,-1.682,-1.6938,-1.6892,-1.6464,0.0,0.0,0.0,0.0,0.0,0.0,0.0,-1.6637,-1.6609,0.0,0.0,0.0,0.0,0.0,0.0,0.0,0.0,0.0,0.0,0.0,0.0,-2.3028,-2.3614,-2.4255,-2.5159,-2.5586,-2.5611,-2.6399,-2.6725,-2.6776,-2.7293,-2.7519,-2.7544,-2.7695,-2.767,-2.7494,-2.7128,-2.6977,-2.7002,-2.7228,-2.762,-2.8197,-2.0702,-2.223,-2.3602,-2.4005,-2.5001,-2.5674,-2.5693,-2.5693,-2.5382,-2.4551,-2.4434,-2.4414,-2.4414,-2.4043,-2.3613,-2.314,-2.3101,-2.2925,-2.2539,-2.2519,-2.1934,0.0,0.0,-1.9475,-1.8637,-1.7832,-1.7187,-1.6707,0.0,0.0,-1.6618,0.0,-1.74,-1.6797,-1.6797,-1.6532,-1.6124,-1.6124,-1.621,-1.6402,-1.6402,-1.6402,-1.6402,-1.6402,-1.6402,-1.6436,-1.6862,-1.7316,-1.7688,-1.7709,-1.834,-1.9098,-1.9098,-1.8787,-1.8331,-1.7833,-1.7378,-1.6924,-1.6498,-1.6423,-1.6402,-1.6402,-1.6402,-1.6498,-1.6903,-1.7006,-1.7027,-1.7006,-1.6684,-1.6423,-1.6423,-1.6423,-1.6423,-1.6402,0.0,0.0,0.0,0.0,0.0,0.0,-1.6722,-1.6751,-1.6609,0.0,0.0,0.0,0.0,0.0,0.0,0.0,0.0,-1.8701,-2.0053,0.0,-2.2959,-2.3666,-2.428,-2.48,-2.5335,-2.5586,-2.5636,-2.6766,-2.7268,-2.7293,-2.7871,-2.8097,-2.8147,-2.8637,-2.8562,-2.8097,-2.8097,-2.8097,-2.8021,-2.7469,-2.762,-2.8197,-1.9764,-2.082,-2.1996,-2.2868,-2.3681,-2.4438,-2.5178,-2.5039,-2.4699,-2.4453,-2.416,-2.3984,-2.3984,-2.3594,-2.3257,0.0,-2.2828,-2.2656,0.0,-2.1931,-2.1424,-2.1035,-2.0039,-1.9355,-1.9082,-1.7969,-1.7233,-1.6908,0.0,0.0,0.0,-1.7061,-1.6956,-1.6523,-1.6523,-1.644,-1.6316,-1.6316,-1.6345,-1.6402,-1.6402,-1.6402,-1.6444,-1.6696,-1.68,-1.6903,-1.7678,-1.805,-1.8216,-1.8547,-1.8837,-1.9098,-1.9098,-1.8787,-1.8393,-1.8216,-1.7606,-1.6986,-1.6841,-1.6601,-1.6402,-1.6402,-1.6402,-1.6498,-1.6903,-1.7254,-1.7564,-1.7885,-1.7347,-1.6903,-1.7213,-1.6788,-1.6402,-1.6402,-1.6402,0.0,0.0,0.0,0.0,0.0,0.0,-1.6751,0.0,-1.6779,0.0,0.0,0.0,0.0,0.0,0.0,0.0,0.0,-2.0878,0.0,-2.2983,-2.4384,-2.5184,-2.536,-2.6289,-2.6942,-2.7293,-2.7293,-2.7494,-2.7871,-2.8423,-2.8674,-2.8637,-2.8813,-2.8787,-2.8562,-2.7846,-2.777,-2.8072,-2.7921,-2.8197,-2.8712,-1.9272,-2.0082,-2.0939,-2.1578,-2.2313,-2.2967,-2.3653,-2.3476,-2.3252,-2.3103,-2.3153,-2.3171,-2.3019,-2.308,0.0,-2.3101,-2.2711,-2.2441,-2.2285,-2.158,-2.1054,-2.0722,-1.9805,-1.9141,-1.8809,0.0,0.0,-1.6651,-1.6554,-1.6487,-1.6464,-1.6553,-1.6439,-1.6202,-1.6259,-1.6288,-1.6288,-1.6374,-1.6402,-1.6402,-1.6402,-1.6477,-1.6663,-1.6903,-1.711,-1.7358,-1.8112,-1.8414,-1.8455,-1.8745,-1.8953,-1.9077,-1.8891,-1.8642,-1.8414,-1.8414,-1.774,-1.7006,-1.7006,-1.6726,-1.6402,-1.6402,-1.6402,-1.6539,-1.713,-1.7626,-1.8009,-1.8112,-1.7523,-1.7048,-1.7202,-1.6767,-1.6402,-1.6402,-1.6402,-1.6431,-1.6488,0.0,0.0,0.0,0.0,0.0,0.0,-1.6694,0.0,0.0,0.0,0.0,0.0,0.0,0.0,-1.916,-2.0811,0.0,-2.3167,-2.4505,-2.5443,-2.5971,-2.6841,-2.757,-2.8097,-2.7971,-2.8097,-2.8448,-2.9001,-2.9126,-2.8913,-2.9113,-2.8875,-2.8273,-2.777,-2.767,-2.7795,-2.7795,-2.8273,-2.8938,-1.9265,-1.9816,0.0,0.0,-2.0915,0.0,-2.1462,-2.1428,-2.129,-2.0898,-2.1586,-2.2053,-2.1731,-2.2467,-2.3057,-2.3101,0.0,0.0,0.0,-2.1445,-2.0781,-2.0,-1.9531,-1.8906,-1.8125,-1.7174,-1.6504,-1.6046,-1.5802,-1.5769,-1.5885,-1.5885,-1.5885,-1.5914,-1.6038,-1.6095,-1.6124,-1.6316,-1.6394,-1.6436,-1.6436,-1.6705,-1.7068,-1.7089,-1.7378,-1.7812,-1.8278,-1.8455,-1.8455,-1.8455,-1.8745,-1.9036,-1.86,-1.8455,-1.8455,-1.8455,-1.7802,-1.7068,-1.7068,-1.6788,-1.6485,-1.6423,-1.6464,-1.6684,-1.7461,-1.8071,-1.8299,-1.7792,-1.7358,-1.6924,-1.6498,-1.6423,-1.6402,-1.6402,-1.6402,-1.6431,-1.6581,0.0,0.0,0.0,0.0,0.0,0.0,-1.663,-1.6594,0.0,0.0,0.0,0.0,0.0,-1.9318,-1.8487,-2.0158,-2.1874,-2.3479,-2.421,-2.5213,-2.6531,-2.7022,-2.7573,-2.8149,-2.8637,-2.8888,-2.8988,-2.9478,-2.9428,-2.8988,-2.9528,-2.8825,-2.7494,-2.7971,-2.7871,-2.748,-2.7419,-2.8072,-2.8938,0.0,0.0,-1.934,-1.9905,-2.0135,-2.036,-2.0977,-2.0732,-2.0463,-2.0377,-2.0542,-2.0978,-2.1624,-2.1917,-2.2334,-2.3057,-2.2461,-2.1992,-2.1894,-2.1152,-2.0664,-2.043,-1.9725,-1.9199,-1.8984,-1.75,-1.6317,-1.5566,-1.5751,-1.5827,-1.574,-1.5856,-1.5885,-1.5885,-1.5943,-1.598,-1.6104,-1.6153,-1.6444,-1.6862,-1.6862,-1.713,-1.7585,-1.7947,-1.8133,-1.8278,-1.8766,-1.8932,-1.8932,-1.8932,-1.9015,-1.9077,-1.8973,-1.8932,-1.8932,-1.8932,-1.8278,-1.7544,-1.7544,-1.7461,-1.7213,-1.6589,-1.6912,-1.7337,-1.7213,-1.8092,-1.8692,-1.7854,-1.7606,-1.7399,-1.6944,-1.6601,-1.6402,-1.6402,-1.6402,-1.6402,-1.6431,-1.6524,0.0,0.0,-1.6953,-1.7038,-1.663,-1.678,-1.7076,0.0,0.0,0.0,0.0,-1.9501,-1.9613,-1.8953,-2.0917,-2.2437,-2.3421,-2.4542,-2.566,-2.6724,-2.6882,-2.744,-2.8378,-2.83,-2.8775,-2.9553,-2.8825,-2.8925,-2.9578,-2.9252,-2.9151,-2.9176,-2.885,-2.8925,-2.9151,-2.8699,-2.8976,-2.9578,-1.8335,-1.8321,-1.8474,-1.8865,-1.8808,-1.8782,-1.9191,-1.9046,-1.8872,-1.8872,-1.9285,-1.9923,-2.0917,-2.1427,-2.2094,-2.3013,-2.2363,-2.1894,-2.1894,-2.1094,-2.0507,-2.0273,-1.9648,-1.9102,-1.8711,-1.7369,-1.6258,-1.541,-1.5575,-1.5633,-1.5575,-1.5633,-1.5662,-1.5662,-1.5769,-1.5956,-1.6195,-1.6254,-1.6606,-1.7104,-1.7195,-1.7492,-1.7924,-1.8267,-1.8538,-1.8766,-1.9015,-1.9098,-1.9098,-1.9098,-1.9098,-1.9098,-1.9098,-1.9098,-1.9098,-1.9098,-1.8568,-1.7988,-1.775,-1.7709,-1.7585,-1.7119,-1.7512,-1.7968,-1.7719,-1.8382,-1.8816,-1.7895,-1.7709,-1.7472,-1.6732,-1.6481,-1.6345,-1.6202,-1.6288,-1.6402,-1.6402,-1.6524,0.0,-1.6903,-1.7156,-1.7252,-1.7143,-1.7232,-1.7467,-1.7777,0.0,0.0,-1.9158,-2.0044,-2.0232,-1.9706,-2.1047,-2.2491,-2.4135,-2.5757,-2.6761,-2.7162,-2.7564,-2.8003,-2.853,-2.8746,-2.9202,-2.9754,-2.9151,-2.8925,-2.9051,-2.9227,-2.9051,-2.8649,-2.885,-2.8938,-2.8976,-2.8674,-2.8925,-2.9402,-1.816,-1.7969,-1.7794,-1.775,-1.7545,-1.7337,-1.7293,-1.7279,-1.7279,-1.7279,-1.8056,-1.8918,-1.9877,-2.0737,-2.165,-2.2599,-2.2125,-2.1829,-2.1894,-2.1094,-2.0429,-2.0019,-1.9609,-1.9023,-1.8223,-1.7213,-1.6258,-1.541,-1.541,-1.541,-1.541,-1.541,-1.541,-1.541,-1.5575,-1.592,-1.6317,-1.6407,-1.6798,-1.7342,-1.7479,-1.7807,-1.8161,-1.8388,-1.8701,-1.8998,-1.9031,-1.9031,-1.9031,-1.9031,-1.9065,-1.9098,-1.9098,-1.9098,-1.9098,-1.9065,-1.8796,-1.8382,-1.7915,-1.775,-1.7709,-1.7792,-1.8112,-1.8393,-1.8299,-1.8725,-1.8816,-1.7895,-1.7678,-1.7349,-1.634,-1.6243,-1.6251,-1.6052,-1.6214,-1.6394,-1.6477,0.0,-1.6804,-1.7202,-1.7432,-1.7623,-1.7802,-1.7915,-1.7998,-1.7998,-1.8754,-1.9264,0.0,-2.0472,-2.0969,-2.0602,-2.101,-2.236,-2.4777,-2.6734,-2.7567,-2.7206,-2.8177,-2.8509,-2.8331,-2.9036,-2.9513,-2.9779,-2.9528,-2.8976,-2.8298,-2.9176,-2.875,-2.762,-2.8537,-2.8612,-2.8247,-2.8323,-2.8599,-2.8888,-1.7483,-1.7662,-1.7735,-1.7457,-1.7589,-1.7647,-1.7323,-1.7279,-1.7279,-1.7279,-1.7419,-1.7917,-1.8918,-1.9147,-1.965,-2.0557,-2.1011,-2.1443,-2.1873,-2.1094,-2.0566,-2.0507,-2.0039,-1.959,-1.9102,-1.7506,-1.6258,-1.541,-1.541,-1.541,-1.541,-1.541,-1.541,-1.541,-1.5439,-1.5753,-1.6317,-1.6317,-1.6917,-1.7805,-1.7837,-1.8099,-1.8482,-1.8662,-1.869,-1.8617,-1.8785,-1.8852,-1.8852,-1.8852,-1.8965,-1.9098,-1.9098,-1.9098,-1.9065,-1.8918,-1.8924,-1.8891,-1.8434,-1.8009,-1.7792,-1.8195,-1.8351,-1.831,-1.7905,-1.8464,-1.8816,-1.7749,-1.7533,-1.7308,-1.6588,-1.6185,-1.6122,-1.6605,-1.6369,-1.6304,-1.6832,0.0,-1.6953,-1.7036,-1.8082,-1.8695,-1.8351,-1.9015,-1.9471,-1.9471,-1.9616,-2.0031,-2.0762,-2.099,-2.1259,-2.1569,-2.1652,-2.2379,-2.3908,-2.5295,-2.5799,-2.5422,-2.6737,-2.7354,-2.7319,-2.7281,-2.8208,-2.9704,-2.8298,-2.8097,-2.8737,-2.8499,-2.8499,-2.8662,-2.8813,-2.8838,-2.8813,-2.9352,-2.9277,-2.8963,-1.7308,-1.7395,-1.7454,-1.7355,-1.741,-1.7501,-1.7308,-1.7279,-1.7279,-1.7279,-1.7279,-1.7699,-1.8703,-1.8796,-1.9193,-2.0104,-2.0253,-2.0321,-2.0395,-2.0726,-2.0723,-2.0234,-2.0019,-1.9394,-1.8281,-1.7233,-1.6258,-1.541,-1.541,-1.541,-1.541,-1.5644,-1.5644,-1.543,-1.5664,-1.5939,-1.6196,-1.6421,-1.6955,-1.7665,-1.7982,-1.8235,-1.8414,-1.8583,-1.8583,-1.8516,-1.8617,-1.8717,-1.8818,-1.8818,-1.8931,-1.9065,-1.8965,-1.8931,-1.8898,-1.8717,-1.8601,-1.8582,-1.8754,-1.8423,-1.8195,-1.8683,-1.8787,-1.8725,-1.8506,-1.8709,-1.8713,-1.7993,-1.7775,-1.7446,-1.6557,-1.6307,-1.6277,-1.6397,-1.6175,0.0,0.0,-1.7195,-1.7503,-1.8039,-1.8953,-1.9492,-1.9479,-1.9872,-2.012,-2.012,-2.0348,-2.0679,-2.1093,-2.1362,-2.159,-2.1797,-2.2484,-2.3155,-2.3755,-2.5299,-2.578,-2.512,-2.699,-2.7609,-2.7139,-2.8023,-2.8933,-2.9754,-2.8976,-2.8574,-2.8461,-2.8487,-2.8348,-2.8097,-2.8662,-2.8888,-2.8913,-2.9189,-2.9352,-2.9377,-1.7279,-1.7279,-1.7279,-1.7279,-1.7279,-1.7279,-1.7279,-1.7279,-1.7279,-1.7279,-1.7279,-1.7606,-1.838,-1.8473,-1.875,-1.9467,-1.9407,-1.9171,-1.8801,-1.9911,-2.0265,-1.9468,-1.9545,-1.887,-1.7292,-1.7057,-1.6512,-1.5566,-1.5664,-1.5693,-1.5693,-1.6055,-1.6035,-1.5742,-1.6074,-1.63,-1.6418,-1.6738,-1.7129,-1.7592,-1.804,-1.8245,-1.8245,-1.8414,-1.8414,-1.8381,-1.8448,-1.8549,-1.8684,-1.8684,-1.8798,-1.8931,-1.8785,-1.8751,-1.8717,-1.8549,-1.8341,-1.8336,-1.8949,-1.8849,-1.863,-1.8949,-1.9031,-1.8977,-1.8841,-1.877,-1.8575,-1.8096,-1.7918,-1.7556,-1.6722,-1.6535,-1.6545,-1.6471,0.0,0.0,0.0,-1.7784,-1.8271,-1.9081,-1.9727,-2.0203,-2.0519,-2.0643,-2.0746,-2.0886,-2.1135,-2.1321,-2.1424,-2.1673,-2.1797,-2.1797,-2.2798,-2.3378,-2.3486,-2.5088,-2.5542,-2.4897,-2.6835,-2.7532,-2.7139,-2.8433,-2.9231,-2.9578,-2.9453,-2.8825,-2.7946,-2.8373,-2.8047,-2.7369,-2.8222,-2.8587,-2.8687,-2.8687,-2.9101,-2.9528,-1.7279,-1.7279,-1.7279,-1.7279,-1.7279,-1.7279,-1.7279,-1.7279,-1.7279,-1.7279,-1.7279,-1.7326,-1.7419,-1.7419,-1.7419,-1.7512,-1.807,-1.8245,-1.7822,-1.8431,-1.862,-1.8181,-1.85,-1.81,-1.6784,-1.7503,-1.7285,-1.6046,-1.6426,-1.6609,-1.6609,-1.6629,-1.6629,-1.6609,-1.6629,-1.6914,-1.7318,-1.7357,-1.7578,-1.7969,-1.7988,-1.8008,-1.8042,-1.8245,-1.8212,-1.8076,-1.8245,-1.8313,-1.8347,-1.8347,-1.8448,-1.8549,-1.8516,-1.8516,-1.8516,-1.8516,-1.8496,-1.8576,-1.8998,-1.9077,-1.899,-1.8865,-1.8818,-1.8662,-1.8112,-1.8268,-1.8342,-1.777,-1.7638,-1.7573,-1.737,-1.6953,-1.688,-1.7414,0.0,0.0,-1.8322,-1.8947,-1.9369,-1.9465,-2.0385,-2.1031,-2.1052,-2.1445,-2.188,-2.2315,-2.1983,-2.1942,-2.2377,-2.2025,-2.1797,-2.1797,-2.1915,-2.2182,-2.2598,-2.3535,-2.401,-2.3992,-2.4981,-2.6017,-2.7098,-2.6697,-2.7433,-2.8938,-2.8448,-2.7896,-2.7344,-2.7394,-2.7344,-2.7329,-2.7369,-2.772,-2.8172,-2.8172,-2.8524,-2.8938,-1.7279,-1.7279,-1.7279,-1.7279,-1.7279,-1.7279,-1.7279,-1.7279,-1.7279,-1.7279,-1.7279,-1.7279,-1.7279,-1.7279,-1.7279,-1.7279,-1.74,-1.7281,-1.6903,-1.6915,-1.7247,-1.7974,-1.7913,-1.7401,-1.6401,-1.6475,-1.6042,-1.5092,-1.542,-1.5492,-1.5375,-1.6259,-1.6223,-1.5407,-1.6592,-1.6812,-1.6327,-1.7102,-1.748,-1.7637,-1.791,-1.8008,-1.8008,-1.8076,-1.8076,-1.8008,-1.8076,-1.8212,-1.8313,-1.8313,-1.8381,-1.8482,-1.8414,-1.8448,-1.8516,-1.8516,-1.8448,-1.8448,-1.865,-1.8751,-1.8717,-1.865,-1.8617,-1.8543,-1.8295,-1.8328,-1.8367,-1.8398,-1.8316,-1.8213,-1.8164,-1.7993,-1.7969,-1.8193,0.0,-1.8212,-1.9204,-1.9586,-1.9931,-2.0432,-2.1387,-2.1963,-2.1963,-2.2397,-2.2729,-2.2915,-2.277,-2.2625,-2.2501,-2.2045,-2.1797,-2.1797,-2.2087,-2.2315,-2.2501,-2.3127,-2.3442,-2.3494,-2.4884,-2.5697,-2.5913,-2.6257,-2.6799,-2.74,-2.7368,-2.7054,-2.6589,-2.7091,-2.7102,-2.6851,-2.7178,-2.762,-2.8097,-2.8097,-2.8674,-2.9402,-1.7279,-1.7279,-1.7279,-1.7279,-1.7279,-1.7279,-1.7279,-1.7279,-1.7279,-1.7279,-1.7279,-1.7279,-1.7279,-1.7238,-1.7179,-1.7179,-1.6799,-1.6507,-1.6243,-1.5935,-1.6148,-1.7123,-1.7199,-1.6746,-1.5823,-1.5928,-1.558,-1.4679,-1.4985,-1.507,-1.49,-1.617,-1.6237,-1.5335,-1.6893,-1.7139,-1.6412,-1.7243,-1.7578,-1.7598,-1.7891,-1.8008,-1.8008,-1.8008,-1.8008,-1.8008,-1.8008,-1.8076,-1.8212,-1.8212,-1.8279,-1.8347,-1.8245,-1.8313,-1.8448,-1.8448,-1.8381,-1.8313,-1.8414,-1.8381,-1.8347,-1.8414,-1.8514,-1.8574,-1.8387,-1.8497,-1.8646,-1.8769,-1.8821,-1.8812,-1.8812,-1.8812,-1.8812,-1.8812,-1.8828,-1.9092,-1.98,-2.0226,-2.0714,-2.1281,-2.203,-2.2563,-2.2708,-2.2998,-2.3246,-2.3391,-2.3267,-2.3039,-2.2729,-2.2149,-2.188,-2.2025,-2.219,-2.2356,-2.2501,-2.2956,-2.3122,-2.3017,-2.434,-2.5049,-2.5242,-2.5927,-2.6371,-2.6597,-2.6914,-2.6736,-2.6248,-2.6806,-2.6826,-2.6524,-2.6927,-2.7469,-2.8072,-2.7921,-2.8674,-2.9704,-1.7279,-1.7279,-1.7279,-1.7279,-1.7279,-1.7279,-1.7279,-1.7279,-1.7279,-1.7279,-1.7279,-1.7279,-1.7279,-1.7047,-1.6903,-1.6903,-1.6287,-1.5921,-1.5906,-1.5571,-1.5382,-1.5382,-1.6221,-1.6126,-1.4934,-1.6192,-1.63,-1.5104,-1.5496,-1.5683,-1.5702,-1.6524,-1.6906,-1.6906,-1.7681,-1.8008,-1.7974,-1.8008,-1.8008,-1.8008,-1.8008,-1.8008,-1.8008,-1.8008,-1.8008,-1.8008,-1.8008,-1.8008,-1.8008,-1.8008,-1.8008,-1.8008,-1.8008,-1.8144,-1.8313,-1.8313,-1.8313,-1.8313,-1.8313,-1.8144,-1.8042,-1.8245,-1.8596,-1.8725,-1.814,-1.8672,-1.916,-1.8695,-1.8984,-1.9297,-1.9297,-1.9297,-1.9297,-1.9297,-2.0057,-2.043,-1.998,-2.0976,-2.1809,-2.1889,-2.2265,-2.2687,-2.3143,-2.3205,-2.3391,-2.3888,-2.3453,-2.3205,-2.3205,-2.2315,-2.2025,-2.248,-2.2045,-2.2045,-2.2501,-2.2956,-2.2956,-2.2501,-2.2977,-2.39,-2.5179,-2.5486,-2.6007,-2.6777,-2.7135,-2.6967,-2.6499,-2.6499,-2.6499,-2.6499,-2.6499,-2.7178,-2.8047,-2.7494,-2.8348,-2.9704,-1.7279,-1.7279,-1.7279,-1.7279,-1.7279,-1.7279,-1.7279,-1.7279,-1.7279,-1.7279,-1.7279,-1.7279,-1.7279,-1.7047,-1.6903,-1.6903,-1.6287,-1.5818,-1.5542,-1.544,-1.5382,-1.5382,-1.5673,-1.5423,-1.4635,-1.5019,-1.4811,-1.3976,-1.4313,-1.4396,-1.4201,-1.5705,-1.5994,-1.5384,-1.7182,-1.7716,-1.7251,-1.7803,-1.8008,-1.8008,-1.8008,-1.8008,-1.8008,-1.8008,-1.8008,-1.8008,-1.8008,-1.8008,-1.8008,-1.8008,-1.8008,-1.8008,-1.8178,-1.8144,-1.811,-1.8279,-1.8212,-1.8076,-1.8076,-1.8257,-1.8457,-1.8507,-1.8389,-1.8389,-1.8789,-1.8867,-1.8929,-1.9397,-1.9629,-1.9824,-2.0175,-2.0449,-2.0625,-2.0625,-2.0859,-2.1134,-2.147,-2.157,-2.177,-2.2251,-2.2736,-2.3103,-2.3391,-2.3698,-2.4029,-2.428,-2.3929,-2.3681,-2.3681,-2.3101,-2.2832,-2.2977,-2.2853,-2.2832,-2.2977,-2.3122,-2.3122,-2.2998,-2.3764,-2.3992,-2.3817,-2.4211,-2.4473,-2.4702,-2.5666,-2.5935,-2.5735,-2.6656,-2.7077,-2.7077,-2.7077,-2.772,-2.8637,-2.8461,-2.9026,-2.9754,-1.7279,-1.7279,-1.7279,-1.7279,-1.7279,-1.7279,-1.7279,-1.7279,-1.7279,-1.7279,-1.7279,-1.7279,-1.7279,-1.7047,-1.6844,-1.6712,-1.6082,-1.5643,-1.5396,-1.5382,-1.5382,-1.5382,-1.5382,-1.5189,-1.4662,-1.4531,-1.4247,-1.3682,-1.3755,-1.3697,-1.3543,-1.4912,-1.5206,-1.4673,-1.6332,-1.6837,-1.6472,-1.7217,-1.7545,-1.7545,-1.7545,-1.7545,-1.7545,-1.7217,-1.7097,-1.7097,-1.7097,-1.7304,-1.7545,-1.7545,-1.7769,-1.7974,-1.7818,-1.7681,-1.7579,-1.7716,-1.7681,-1.7651,-1.81,-1.8403,-1.8676,-1.9026,-1.8909,-1.8848,-1.9199,-1.9355,-1.9551,-2.0059,-2.0312,-2.0566,-2.1055,-2.1309,-2.1504,-2.1504,-2.16,-2.1818,-2.204,-2.2043,-2.2165,-2.2589,-2.2994,-2.3299,-2.3588,-2.3872,-2.4163,-2.4378,-2.3989,-2.3866,-2.4136,-2.3536,-2.3267,-2.3453,-2.3287,-2.3184,-2.3184,-2.337,-2.337,-2.3205,-2.3743,-2.3826,-2.3494,-2.3547,-2.3691,-2.4001,-2.4695,-2.4941,-2.4909,-2.6053,-2.6519,-2.6579,-2.7087,-2.7821,-2.8587,-2.8813,-2.9302,-2.9804,-1.7279,-1.7279,-1.7279,-1.7279,-1.7279,-1.7279,-1.7279,-1.7279,-1.7279,-1.7279,-1.7279,-1.7279,-1.7279,-1.7047,-1.6785,-1.6477,-1.5833,-1.5425,-1.5382,-1.5382,-1.5382,-1.5382,-1.5382,-1.525,-1.4944,-1.4648,-1.435,-1.3989,-1.3653,-1.3492,-1.3528,-1.4258,-1.4601,-1.4637,-1.5384,-1.5702,-1.5737,-1.6472,-1.6784,-1.6784,-1.6784,-1.6784,-1.6715,-1.5983,-1.5702,-1.5702,-1.5702,-1.6158,-1.6784,-1.6784,-1.7217,-1.7701,-1.7079,-1.6906,-1.6906,-1.6975,-1.701,-1.7241,-1.8305,-1.8637,-1.887,-1.9766,-2.0,-1.9922,-1.9492,-2.0018,-2.0566,-2.0644,-2.0957,-2.1327,-2.1797,-2.1914,-2.1934,-2.1934,-2.2266,-2.2383,-2.2051,-2.2453,-2.2817,-2.2918,-2.3088,-2.3313,-2.3757,-2.3797,-2.3884,-2.4163,-2.3776,-2.3842,-2.4444,-2.3764,-2.3494,-2.3929,-2.3494,-2.3267,-2.3308,-2.3681,-2.3701,-2.3246,-2.3287,-2.3494,-2.3826,-2.3324,-2.3476,-2.4163,-2.4168,-2.4127,-2.4168,-2.4957,-2.5301,-2.5491,-2.6714,-2.7548,-2.8172,-2.8687,-2.9277,-2.9729,-1.7279,-1.7279,-1.7279,-1.7279,-1.7279,-1.7279,-1.7279,-1.7279,-1.7279,-1.7279,-1.7279,-1.7279,-1.7279,-1.7047,-1.6873,-1.68,-1.617,-1.5701,-1.5411,-1.5382,-1.5382,-1.5382,-1.5382,-1.5352,-1.5279,-1.4765,-1.435,-1.3989,-1.3653,-1.3492,-1.3528,-1.4258,-1.4601,-1.4637,-1.5384,-1.5702,-1.5702,-1.5877,-1.5948,-1.5948,-1.5948,-1.5948,-1.5948,-1.5772,-1.5702,-1.5702,-1.5702,-1.5807,-1.5948,-1.5948,-1.6053,-1.628,-1.6768,-1.6906,-1.701,-1.7579,-1.7769,-1.788,-1.8446,-1.8887,-1.9355,-2.0253,-2.0684,-2.0781,-2.0429,-2.0156,-2.0254,-2.0937,-2.1132,-2.1327,-2.1797,-2.2148,-2.2383,-2.2383,-2.2461,-2.2598,-2.2789,-2.2656,-2.2679,-2.3012,-2.3095,-2.3264,-2.3537,-2.3711,-2.3841,-2.3884,-2.3975,-2.4104,-2.4249,-2.4236,-2.4259,-2.4363,-2.3971,-2.3888,-2.4197,-2.4012,-2.3867,-2.3743,-2.4074,-2.3929,-2.335,-2.3595,-2.3573,-2.3329,-2.4084,-2.428,-2.4154,-2.4788,-2.5415,-2.5961,-2.6227,-2.7053,-2.8172,-2.8687,-2.8963,-2.9176,-1.6951,-1.6951,-1.7012,-1.7153,-1.7153,-1.72,-1.7279,-1.7279,-1.7279,-1.7279,-1.7279,-1.7279,-1.7279,-1.7179,-1.7018,-1.6917,-1.6287,-1.5848,-1.563,-1.5469,-1.5382,-1.5382,-1.5382,-1.5382,-1.5382,-1.4794,-1.4423,-1.4247,-1.3726,-1.3492,-1.3492,-1.3876,-1.4093,-1.4078,-1.4474,-1.4653,-1.4653,-1.5029,-1.5171,-1.5171,-1.5171,-1.5171,-1.5136,-1.4796,-1.4653,-1.4653,-1.4653,-1.4867,-1.5242,-1.5561,-1.5948,-1.6263,-1.6298,-1.6576,-1.6975,-1.7373,-1.7476,-1.7678,-1.8663,-1.9121,-1.9492,-2.039,-2.0898,-2.119,-2.1191,-2.1016,-2.1035,-2.1699,-2.1795,-2.1931,-2.2402,-2.2656,-2.2812,-2.2812,-2.2812,-2.2847,-2.3062,-2.2906,-2.2847,-2.3062,-2.3101,-2.3144,-2.3319,-2.3406,-2.3537,-2.3667,-2.3884,-2.4077,-2.4206,-2.4378,-2.4507,-2.4507,-2.4322,-2.4302,-2.4507,-2.4259,-2.4198,-2.4198,-2.4219,-2.4095,-2.3826,-2.3412,-2.3175,-2.3083,-2.3182,-2.3134,-2.3054,-2.3765,-2.4471,-2.5203,-2.5852,-2.676,-2.7821,-2.8624,-2.9063,-2.9377,-1.6588,-1.6636,-1.673,-1.6979,-1.7026,-1.7106,-1.7279,-1.7279,-1.7279,-1.7279,-1.7279,-1.7279,-1.7279,-1.7282,-1.7121,-1.6844,-1.6243,-1.5891,-1.5833,-1.5542,-1.5382,-1.5382,-1.5382,-1.5382,-1.5382,-1.4853,-1.457,-1.4511,-1.3814,-1.3492,-1.3492,-1.3492,-1.3492,-1.3492,-1.3492,-1.3492,-1.3528,-1.415,-1.4386,-1.4386,-1.4386,-1.4386,-1.4366,-1.3731,-1.3492,-1.3492,-1.3492,-1.3876,-1.451,-1.51,-1.5772,-1.6228,-1.5666,-1.5983,-1.6559,-1.6736,-1.6789,-1.7111,-1.8559,-1.899,-1.92,-2.0099,-2.0575,-2.1017,-2.1723,-2.1867,-2.2012,-2.2422,-2.2519,-2.2594,-2.3023,-2.3101,-2.3101,-2.3101,-2.3101,-2.3101,-2.3101,-2.3101,-2.3101,-2.3101,-2.3101,-2.3101,-2.3101,-2.3101,-2.3188,-2.3406,-2.3624,-2.3841,-2.4077,-2.4292,-2.4358,-2.4358,-2.4358,-2.4358,-2.4358,-2.4421,-2.4464,-2.4444,-2.4095,-2.4033,-2.4218,-2.3122,-2.2729,-2.2915,-2.2149,-2.1797,-2.1835,-2.2515,-2.3239,-2.4009,-2.525,-2.6238,-2.7091,-2.8299,-2.9151,-2.9654,-1.6588,-1.6777,-1.6979,-1.6979,-1.7153,-1.7279,-1.7279,-1.7279,-1.7279,-1.7279,-1.7279,-1.7279,-1.7279,-1.7077,-1.6829,-1.6507,-1.6111,-1.5789,-1.5469,-1.5411,-1.5382,-1.5382,-1.5382,-1.5382,-1.5382,-1.5031,-1.475,-1.4511,-1.3814,-1.3492,-1.3492,-1.3492,-1.3492,-1.3492,-1.3492,-1.3492,-1.3492,-1.3601,-1.3637,-1.3637,-1.3637,-1.3637,-1.3637,-1.3528,-1.3492,-1.3492,-1.3492,-1.3564,-1.3674,-1.3783,-1.3891,-1.4057,-1.4565,-1.4816,-1.5095,-1.6022,-1.6306,-1.6478,-1.7388,-1.7652,-1.7896,-1.9033,-1.9347,-1.9787,-2.1365,-2.1831,-2.2012,-2.2422,-2.2519,-2.2594,-2.3023,-2.3101,-2.3101,-2.3101,-2.3101,-2.3101,-2.3101,-2.3101,-2.3101,-2.3101,-2.3101,-2.3101,-2.3101,-2.3101,-2.3144,-2.3144,-2.3406,-2.3557,-2.36,-2.3797,-2.3884,-2.3884,-2.3884,-2.3884,-2.3884,-2.41,-2.4249,-2.4249,-2.4011,-2.3701,-2.337,-2.3184,-2.2687,-2.1983,-2.1859,-2.1797,-2.1797,-2.1911,-2.244,-2.3224,-2.4055,-2.4837,-2.5789,-2.7542,-2.8574,-2.9088,-1.6353,-1.6461,-1.665,-1.6932,-1.7073,-1.7153,-1.7279,-1.7279,-1.7279,-1.7279,-1.7279,-1.7279,-1.7279,-1.7208,-1.6989,-1.6712,-1.6345,-1.6038,-1.5673,-1.5484,-1.5382,-1.5382,-1.5382,-1.5382,-1.5382,-1.5061,-1.4842,-1.4735,-1.4267,-1.3857,-1.3492,-1.3682,-1.3667,-1.3492,-1.3492,-1.3492,-1.3492,-1.3492,-1.3492,-1.3492,-1.3492,-1.3492,-1.3492,-1.3492,-1.3492,-1.3492,-1.3492,-1.3492,-1.3492,-1.3492,-1.3768,-1.4186,-1.4494,-1.5033,-1.5591,-1.6049,-1.6309,-1.6597,-1.7218,-1.7525,-1.7808,-1.8589,-1.9085,-1.9565,-2.0351,-2.1167,-2.1973,-2.2683,-2.2828,-2.2867,-2.3062,-2.3101,-2.3101,-2.3101,-2.3101,-2.3101,-2.3101,-2.3101,-2.3101,-2.3101,-2.3101,-2.3101,-2.3101,-2.3101,-2.3101,-2.3101,-2.3363,-2.3493,-2.3493,-2.3667,-2.3797,-2.3797,-2.3797,-2.3797,-2.3797,-2.3927,-2.397,-2.397,-2.3917,-2.376,-2.3557,-2.3039,-2.2584,-2.217,-2.1921,-2.1797,-2.1797,-2.1797,-2.2289,-2.3038,-2.335,-2.4424,-2.5865,-2.7005,-2.8052,-2.8988]}]]